[[{"header":{"parameterUnit":"m.s-1","parameterCategory":1,"la1":30.6,"la2":28.766,"lo1":-90.7593,"lo2":-88.6598,"dy":0.0162,"dx":0.0183,"nx":116,"ny":114,"refTime":"2023-07-31T12:00:00:Z","depth":0,"parameterNumber":2,"parameterNumberName":"U-component_of_WINDS"},"data":[0.0,0.0,0.0,0.0,0.0,0.0,0.0,0.0,0.0,0.0,0.0,0.0,0.0,0.0,0.0,0.0,0.0,0.0,0.0,0.0,0.0,0.0,0.0,0.0,0.0,0.0,0.0,0.0,0.0,0.0,0.0,0.0,0.0,0.0,0.0,0.0,0.0,0.0,0.0,0.0,0.0,0.0,0.0,0.0,0.0,0.0,0.0,0.0,0.0,0.0,0.0,0.0,0.0,0.0,0.0,0.0,0.0,0.0,0.0,0.0,0.0,0.0,0.0,0.0,0.0,0.0,0.0,0.0,0.0,0.0,0.0,0.0,0.0,0.0,0.0,0.0,0.0,0.0,0.0,0.0,0.0,0.0,0.0,0.0,0.0,0.0,0.0,0.0,0.0,0.0,0.0,0.0,0.0,0.0,0.0,0.0,0.0,0.0,0.0,0.0,0.0,0.0,0.0,0.0,0.0,0.0,0.0,0.0,0.0,0.0,0.0,0.0,0.0,0.0,0.0,0.0,0.0,0.0,0.0,0.0,0.0,0.0,0.0,0.0,0.0,0.0,0.0,0.0,0.0,0.0,0.0,0.0,0.0,0.0,0.0,0.0,0.0,0.0,0.0,0.0,0.0,0.0,0.0,0.0,0.0,0.0,0.0,0.0,0.0,0.0,0.0,0.0,0.0,0.0,0.0,0.0,0.0,0.0,0.0,0.0,0.0,0.0,0.0,0.0,0.0,0.0,0.0,0.0,0.0,0.0,0.0,0.0,0.0,0.0,0.0,0.0,0.0,0.0,0.0,0.0,0.0,0.0,0.0,0.0,0.0,0.0,0.0,0.0,0.0,0.0,0.0,0.0,0.0,0.0,0.0,0.0,0.0,0.0,0.0,0.0,0.0,0.0,0.0,0.0,0.0,0.0,0.0,0.0,0.0,0.0,0.0,0.0,0.0,0.0,0.0,0.0,0.0,0.0,0.0,0.0,0.0,0.0,0.0,0.0,0.0,0.0,0.0,0.0,0.0,0.0,0.0,0.0,0.0,0.0,0.0,0.0,0.0,0.0,0.0,0.0,0.0,0.0,0.0,0.0,0.0,0.0,0.0,0.0,0.0,0.0,0.0,0.0,0.0,0.0,0.0,0.0,0.0,0.0,0.0,0.0,0.0,0.0,0.0,0.0,0.0,0.0,0.0,0.0,0.0,0.0,0.0,0.0,0.0,0.0,0.0,0.0,0.0,0.0,0.0,0.0,0.0,0.0,0.0,0.0,0.0,0.0,0.0,0.0,0.0,0.0,0.0,0.0,0.0,0.0,0.0,0.0,0.0,0.0,0.0,0.0,0.0,0.0,0.0,0.0,0.0,0.0,0.0,0.0,0.0,0.0,0.0,0.0,0.0,0.0,0.0,0.0,0.0,0.0,0.0,0.0,0.0,0.0,0.0,0.0,0.0,0.0,0.0,0.0,0.0,0.0,0.0,0.0,0.0,0.0,0.0,0.0,0.0,0.0,0.0,0.0,0.0,0.0,0.0,0.0,0.0,0.0,0.0,0.0,0.0,0.0,0.0,0.0,0.0,0.0,0.0,0.0,0.0,0.0,0.0,0.0,0.0,0.0,0.0,0.0,0.0,0.0,0.0,0.0,0.0,0.0,0.0,0.0,0.0,0.0,0.0,0.0,0.0,0.0,0.0,0.0,0.0,0.0,0.0,0.0,0.0,0.0,0.0,0.0,0.0,0.0,0.0,0.0,0.0,0.0,0.0,0.0,0.0,0.0,0.0,0.0,0.0,0.0,0.0,0.0,0.0,0.0,0.0,0.0,0.0,0.0,0.0,0.0,0.0,0.0,0.0,0.0,0.0,0.0,0.0,0.0,0.0,0.0,0.0,0.0,0.0,0.0,0.0,0.0,0.0,0.0,0.0,0.0,0.0,0.0,0.0,0.0,0.0,0.0,0.0,0.0,0.0,0.0,0.0,0.0,0.0,0.0,0.0,0.0,0.0,0.0,0.0,0.0,0.0,0.0,0.0,0.0,0.0,0.0,0.0,0.0,0.0,0.0,0.0,0.0,0.0,0.0,0.0,0.0,0.0,0.0,0.0,0.0,0.0,0.0,0.0,0.0,0.0,0.0,0.0,0.0,0.0,0.0,0.0,0.0,0.0,0.0,0.0,0.0,0.0,0.0,0.0,0.0,0.0,0.0,0.0,0.0,0.0,0.0,0.0,0.0,0.0,0.0,0.0,0.0,0.0,0.0,0.0,0.0,0.0,0.0,0.0,0.0,0.0,0.0,0.0,0.0,0.0,0.0,0.0,0.0,0.0,0.0,0.0,0.0,0.0,0.0,0.0,0.0,0.0,0.0,0.0,0.0,0.0,0.0,0.0,0.0,0.0,0.0,0.0,0.0,0.0,0.0,0.0,0.0,0.0,0.0,0.0,0.0,0.0,0.0,0.0,0.0,0.0,0.0,0.0,0.0,0.0,0.0,0.0,0.0,0.0,0.0,0.0,0.0,0.0,0.0,0.0,0.0,0.0,0.0,0.0,0.0,0.0,0.0,0.0,0.0,0.0,0.0,0.0,0.0,0.0,0.0,0.0,0.0,0.0,0.0,0.0,0.0,0.0,0.0,0.0,0.0,0.0,0.0,0.0,0.0,0.0,0.0,0.0,0.0,0.0,0.0,0.0,0.0,0.0,0.0,0.0,0.0,0.0,0.0,0.0,0.0,0.0,0.0,0.0,0.0,0.0,0.0,0.0,0.0,0.0,0.0,0.0,0.0,0.0,0.0,0.0,0.0,0.0,0.0,0.0,0.0,0.0,0.0,0.0,0.0,0.0,0.0,0.0,0.0,0.0,0.0,0.0,0.0,0.0,0.0,0.0,0.0,0.0,0.0,0.0,0.0,0.0,0.0,0.0,0.0,0.0,0.0,0.0,0.0,0.0,0.0,0.0,0.0,0.0,0.0,0.0,0.0,0.0,0.0,0.0,0.0,0.0,0.0,0.0,0.0,0.0,0.0,0.0,0.0,0.0,0.0,0.0,0.0,0.0,0.0,0.0,0.0,0.0,0.0,0.0,0.0,0.0,0.0,0.0,0.0,0.0,0.0,0.0,0.0,0.0,0.0,0.0,0.0,0.0,0.0,0.0,0.0,0.0,0.0,0.0,0.0,0.0,0.0,0.0,0.0,0.0,0.0,0.0,0.0,0.0,0.0,0.0,0.0,0.0,0.0,0.0,0.0,0.0,0.0,0.0,0.0,0.0,0.0,0.0,0.0,0.0,0.0,0.0,0.0,0.0,0.0,0.0,0.0,0.0,0.0,0.0,0.0,0.0,0.0,0.0,0.0,0.0,0.0,0.0,0.0,0.0,0.0,0.0,0.0,0.0,0.0,0.0,0.0,0.0,0.0,0.0,0.0,0.0,0.0,0.0,0.0,0.0,0.0,0.0,0.0,0.0,0.0,0.0,0.0,0.0,0.0,0.0,0.0,0.0,0.0,0.0,0.0,0.0,0.0,0.0,0.0,0.0,0.0,0.0,0.0,0.0,0.0,0.0,0.0,0.0,0.0,0.0,0.0,0.0,0.0,0.0,0.0,0.0,0.0,0.0,0.0,0.0,0.0,0.0,0.0,0.0,0.0,0.0,0.0,0.0,0.0,0.0,0.0,0.0,0.0,0.0,0.0,0.0,0.0,0.0,0.0,0.0,0.0,0.0,0.0,0.0,0.0,0.0,0.0,0.0,0.0,0.0,0.0,0.0,0.0,0.0,0.0,0.0,0.0,0.0,0.0,0.0,0.0,0.0,0.0,0.0,0.0,0.0,0.0,0.0,0.0,0.0,0.0,0.0,0.0,0.0,0.0,0.0,0.0,0.0,0.0,0.0,0.0,0.0,0.0,0.0,0.0,0.0,0.0,0.0,0.0,0.0,0.0,0.0,0.0,0.0,0.0,0.0,0.0,0.0,0.0,0.0,0.0,0.0,0.0,0.0,0.0,0.0,0.0,0.0,0.0,0.0,0.0,0.0,0.0,0.0,0.0,0.0,0.0,0.0,0.0,0.0,0.0,0.0,0.0,0.0,0.0,0.0,0.0,0.0,0.0,0.0,0.0,0.0,0.0,0.0,0.0,0.0,0.0,0.0,0.0,0.0,0.0,0.0,0.0,0.0,0.0,0.0,0.0,0.0,0.0,0.0,0.0,0.0,0.0,0.0,0.0,0.0,0.0,0.0,0.0,0.0,0.0,0.0,0.0,0.0,0.0,0.0,0.0,0.0,0.0,0.0,0.0,0.0,0.0,0.0,0.0,0.0,0.0,0.0,0.0,0.0,0.0,0.0,0.0,0.0,0.0,0.0,0.0,0.0,0.0,0.0,0.0,0.0,0.0,0.0,0.0,0.0,0.0,0.0,0.0,0.0,0.0,0.0,0.0,0.0,0.0,0.0,0.0,0.0,0.0,0.0,0.0,0.0,0.0,0.0,0.0,0.0,0.0,0.0,0.0,0.0,0.0,0.0,0.0,0.0,0.0,0.0,0.0,0.0,0.0,0.0,0.0,0.0,0.0,0.0,0.0,0.0,0.0,0.0,0.0,0.0,0.0,0.0,0.0,0.0,0.0,0.0,0.0,0.0,0.0,0.0,0.0,0.0,0.0,0.0,0.0,0.0,0.0,0.0,0.0,0.0,0.0,0.0,0.0,0.0,0.0,0.0,0.0,0.0,0.0,0.0,0.0,0.0,0.0,0.0,0.0,0.0,0.0,0.0,0.0,0.0,0.0,0.0,0.0,0.0,0.0,0.0,0.0,0.0,0.0,0.0,0.0,0.0,0.0,0.0,0.0,0.0,0.0,0.0,0.0,0.0,0.0,0.0,0.0,0.0,0.0,0.0,0.0,0.0,0.0,0.0,0.0,0.0,0.0,0.0,0.0,0.0,0.0,0.0,0.0,0.0,0.0,0.0,0.0,0.0,0.0,0.0,0.0,0.0,0.0,0.0,0.0,0.0,0.0,0.0,0.0,0.0,0.0,0.0,0.0,0.0,0.0,0.0,0.0,0.0,0.0,0.0,0.0,0.0,0.0,0.0,0.0,0.0,0.0,0.0,0.0,0.0,0.0,0.0,0.0,0.0,0.0,0.0,0.0,0.0,0.0,0.0,0.0,0.0,0.0,0.0,0.0,0.0,0.0,0.0,0.0,0.0,0.0,0.0,0.0,0.0,0.0,0.0,0.0,0.0,0.0,0.0,0.0,0.0,0.0,0.0,0.0,0.0,0.0,0.0,0.0,0.0,0.0,0.0,0.0,0.0,0.0,0.0,0.0,0.0,0.0,0.0,0.0,0.0,0.0,0.0,0.0,0.0,0.0,0.0,0.0,0.0,0.0,0.0,0.0,0.0,0.0,0.0,0.0,0.0,0.0,0.0,0.0,0.0,0.0,0.0,0.0,0.0,0.0,0.0,0.0,0.0,0.0,0.0,0.0,0.0,0.0,0.0,0.0,0.0,0.0,0.0,0.0,0.0,0.0,0.0,0.0,0.0,0.0,0.0,0.0,0.0,0.0,0.0,0.0,0.0,0.0,0.0,0.0,0.0,0.0,0.0,0.0,0.0,0.0,0.0,0.0,0.0,0.0,0.0,0.0,0.0,0.0,0.0,0.0,0.0,0.0,0.0,0.0,0.0,0.0,0.0,0.0,0.0,0.0,0.0,0.0,0.0,0.0,0.0,0.0,0.0,0.0,0.0,0.0,0.0,0.0,0.0,0.0,0.0,0.0,0.0,0.0,0.0,0.0,0.0,0.0,0.0,0.0,0.0,0.0,0.0,0.0,0.0,0.0,0.0,0.0,0.0,0.0,0.0,0.0,0.0,0.0,0.0,0.0,0.0,0.0,0.0,0.0,0.0,0.0,0.0,0.0,0.0,0.0,0.0,0.0,0.0,0.0,0.0,0.0,0.0,0.0,0.0,0.0,0.0,0.0,0.0,0.0,0.0,0.0,0.0,0.0,0.0,0.0,0.0,0.0,0.0,0.0,0.0,0.0,0.0,0.0,0.0,0.0,0.0,0.0,0.0,0.0,0.0,0.0,0.0,0.0,0.0,0.0,0.0,0.0,0.0,0.0,0.0,0.0,0.0,0.0,-3.1506,-2.9984,0.0,0.0,0.0,0.0,0.0,0.0,0.0,0.0,0.0,0.0,0.0,0.0,0.0,0.0,0.0,0.0,0.0,0.0,0.0,0.0,0.0,0.0,0.0,0.0,0.0,0.0,0.0,0.0,0.0,0.0,0.0,0.0,0.0,0.0,0.0,0.0,0.0,0.0,0.0,0.0,0.0,0.0,0.0,0.0,0.0,0.0,0.0,0.0,0.0,0.0,0.0,0.0,0.0,0.0,0.0,0.0,0.0,0.0,0.0,0.0,0.0,0.0,0.0,0.0,0.0,0.0,0.0,0.0,0.0,0.0,0.0,0.0,0.0,0.0,0.0,0.0,0.0,0.0,0.0,0.0,0.0,0.0,0.0,0.0,0.0,0.0,0.0,0.0,0.0,0.0,0.0,0.0,0.0,0.0,0.0,0.0,0.0,0.0,0.0,0.0,0.0,0.0,0.0,0.0,0.0,0.0,0.0,0.0,0.0,0.0,0.0,0.0,0.0,0.0,-3.3772,-3.218,0.0,0.0,0.0,0.0,0.0,0.0,0.0,0.0,0.0,0.0,0.0,0.0,0.0,0.0,0.0,0.0,0.0,0.0,0.0,0.0,0.0,0.0,0.0,0.0,0.0,0.0,0.0,0.0,0.0,0.0,0.0,0.0,0.0,0.0,0.0,0.0,0.0,0.0,0.0,0.0,0.0,0.0,0.0,0.0,0.0,0.0,0.0,0.0,0.0,0.0,0.0,0.0,0.0,0.0,0.0,0.0,0.0,0.0,0.0,0.0,0.0,0.0,0.0,0.0,0.0,0.0,0.0,0.0,0.0,0.0,0.0,0.0,0.0,0.0,0.0,0.0,0.0,0.0,0.0,0.0,0.0,0.0,0.0,0.0,0.0,0.0,0.0,0.0,0.0,0.0,0.0,0.0,0.0,0.0,0.0,0.0,0.0,0.0,0.0,0.0,0.0,0.0,0.0,0.0,0.0,0.0,0.0,0.0,-3.885,-3.9085,-3.8953,-3.8694,-3.8465,-3.8029,-3.573,-3.4438,-3.3795,-3.2676,0.0,0.0,0.0,0.0,0.0,0.0,0.0,0.0,0.0,0.0,0.0,0.0,0.0,0.0,0.0,0.0,0.0,0.0,0.0,0.0,0.0,0.0,0.0,0.0,0.0,0.0,0.0,0.0,0.0,0.0,0.0,0.0,0.0,0.0,0.0,0.0,0.0,0.0,-3.9822,-4.0584,-4.0994,-4.1104,-4.1091,0.0,0.0,0.0,0.0,0.0,0.0,0.0,0.0,0.0,0.0,0.0,0.0,0.0,0.0,0.0,0.0,0.0,0.0,0.0,0.0,0.0,0.0,0.0,0.0,0.0,0.0,0.0,0.0,0.0,0.0,0.0,0.0,0.0,0.0,0.0,0.0,0.0,0.0,0.0,0.0,0.0,0.0,0.0,-2.7666,-2.8405,0.0,0.0,0.0,0.0,0.0,0.0,0.0,0.0,0.0,0.0,0.0,0.0,0.0,-3.735,-3.8007,-3.8661,-3.8958,-3.8961,-3.9529,-3.9714,-3.9612,-4.0031,-3.9982,-3.9547,-3.8355,0.0,-3.6149,-3.5004,0.0,0.0,0.0,0.0,0.0,0.0,0.0,0.0,0.0,0.0,0.0,0.0,0.0,0.0,0.0,0.0,0.0,0.0,0.0,0.0,0.0,0.0,0.0,0.0,0.0,0.0,0.0,0.0,0.0,0.0,0.0,0.0,0.0,0.0,0.0,0.0,-3.7921,-3.9204,-4.0543,-4.0929,-4.1072,-4.1031,-4.0994,-4.096,-4.0882,-3.9907,0.0,0.0,0.0,0.0,0.0,0.0,0.0,0.0,0.0,0.0,0.0,0.0,0.0,0.0,0.0,0.0,0.0,0.0,0.0,0.0,0.0,0.0,0.0,0.0,0.0,0.0,0.0,0.0,0.0,0.0,0.0,0.0,0.0,0.0,0.0,0.0,0.0,0.0,0.0,-2.839,-2.9591,-3.0309,-3.0603,-3.0944,0.0,0.0,0.0,0.0,0.0,0.0,0.0,0.0,0.0,-3.7441,-3.8199,-3.8647,-3.8837,-3.9543,-3.9739,-3.9546,-4.0193,-4.0388,-4.0246,-4.0283,-4.0138,-3.9884,-3.9204,-3.8504,-3.7789,-3.6185,-3.5412,-3.507,0.0,0.0,0.0,0.0,-3.2766,-3.23,0.0,0.0,0.0,0.0,0.0,0.0,0.0,0.0,0.0,0.0,0.0,0.0,0.0,0.0,0.0,-2.7474,0.0,0.0,0.0,0.0,0.0,0.0,0.0,0.0,0.0,0.0,0.0,0.0,-3.818,-3.8956,-4.0423,-4.0427,-4.0364,-4.0303,-4.0247,-4.0325,-4.0451,-3.9681,-3.8684,0.0,0.0,0.0,0.0,0.0,0.0,0.0,0.0,0.0,0.0,0.0,0.0,0.0,0.0,0.0,0.0,0.0,0.0,0.0,0.0,0.0,0.0,0.0,0.0,0.0,0.0,0.0,0.0,0.0,0.0,0.0,0.0,0.0,0.0,0.0,0.0,0.0,0.0,-3.0356,-3.1382,-3.2299,-3.2307,-3.2419,0.0,0.0,0.0,0.0,0.0,0.0,-3.6339,-3.7173,-3.7931,-3.8594,-3.9365,-3.9645,-3.9536,-4.0114,-4.0346,-4.0164,-4.0595,-4.068,-4.0551,-4.0238,-3.9986,-3.9798,-3.9362,-3.904,-3.8596,-3.7155,-3.6405,-3.6086,-3.5613,-3.5205,-3.4924,-3.4623,-3.4194,-3.371,0.0,0.0,0.0,0.0,0.0,0.0,0.0,0.0,0.0,0.0,0.0,0.0,0.0,0.0,-2.6236,-2.7062,-2.7866,-2.8388,0.0,0.0,0.0,0.0,0.0,0.0,0.0,0.0,0.0,-3.7267,-3.7264,-3.7722,-3.8622,-3.8565,-3.8493,-3.8438,-3.8373,-3.8752,-3.9468,-3.9287,-3.8197,-3.6564,0.0,0.0,0.0,0.0,0.0,0.0,0.0,0.0,0.0,0.0,0.0,0.0,0.0,0.0,0.0,0.0,0.0,0.0,0.0,0.0,0.0,0.0,0.0,0.0,0.0,0.0,0.0,0.0,0.0,0.0,0.0,0.0,0.0,0.0,0.0,0.0,0.0,0.0,0.0,-3.4746,-3.473,0.0,0.0,0.0,0.0,-3.4746,-3.5486,-3.6317,-3.7208,-3.8005,-3.8682,-3.9234,-3.9989,-4.0263,-4.006,-4.0597,-4.0866,-4.0866,-4.0614,-4.037,-4.0121,-4.0121,-3.9884,-3.9501,-3.9148,-3.886,-3.8567,-3.8149,-3.7847,-3.7546,-3.7071,-3.6569,-3.6104,-3.593,-3.5419,-3.4832,0.0,0.0,0.0,0.0,0.0,0.0,0.0,0.0,0.0,0.0,0.0,0.0,0.0,-2.5076,-2.5728,-2.6572,-2.739,-2.7866,-2.7913,0.0,0.0,0.0,0.0,0.0,0.0,0.0,-3.5761,-3.72,-3.7191,-3.7659,-3.85,-3.8422,-3.8341,-3.8228,-3.8073,-3.7805,-3.7494,-3.7967,-3.741,-3.6159,-3.6019,-3.5318,0.0,0.0,0.0,0.0,0.0,0.0,0.0,0.0,0.0,0.0,0.0,0.0,0.0,0.0,0.0,0.0,0.0,0.0,0.0,0.0,0.0,0.0,0.0,0.0,0.0,0.0,0.0,0.0,0.0,0.0,0.0,0.0,0.0,0.0,0.0,0.0,0.0,-3.5758,-3.574,0.0,-3.6227,-3.6221,-3.6201,-3.6221,-3.6904,-3.7484,-3.7742,-3.8971,-3.9508,-3.9111,-3.9826,-3.9852,-3.9143,-3.9312,-3.9376,-3.9225,-3.945,-3.9476,-3.9394,-3.9631,-3.959,-3.9325,-3.904,-3.8711,-3.8432,-3.8091,-3.7786,-3.7492,-3.7105,-3.6739,-3.6352,-3.61,-3.5589,-3.5082,0.0,0.0,0.0,0.0,0.0,0.0,0.0,0.0,0.0,0.0,0.0,-2.1998,-2.3419,-2.4034,-2.4706,-2.5572,-2.6381,-2.6977,-2.7305,0.0,0.0,0.0,0.0,0.0,0.0,-3.4014,-3.4768,-3.5923,-3.5919,-3.6197,-3.674,-3.6681,-3.657,-3.6439,-3.6227,-3.5733,-3.5038,-3.5458,-3.5567,-3.5437,-3.5263,-3.4734,-3.3998,0.0,0.0,0.0,0.0,0.0,0.0,0.0,0.0,0.0,0.0,0.0,0.0,0.0,0.0,0.0,0.0,0.0,0.0,0.0,0.0,0.0,0.0,0.0,0.0,0.0,0.0,0.0,0.0,0.0,0.0,0.0,0.0,0.0,0.0,-3.4894,-3.5882,-3.6576,-3.6555,-3.662,-3.7055,-3.7009,-3.693,-3.693,-3.7364,-3.7703,-3.7941,-3.8919,-3.9251,-3.8877,-3.9346,-3.923,-3.8522,-3.8459,-3.834,-3.8189,-3.8427,-3.8518,-3.8437,-3.8888,-3.896,-3.8871,-3.8707,-3.8544,-3.8262,-3.7918,-3.7551,-3.727,-3.706,-3.6754,-3.6304,-3.6037,-3.5589,-3.5067,0.0,0.0,0.0,0.0,0.0,0.0,0.0,0.0,0.0,0.0,-2.1559,-2.1894,-2.2771,-2.2869,-2.3218,-2.409,-2.4878,-2.5731,-2.6668,-2.7471,0.0,0.0,0.0,0.0,-3.2098,-3.2916,-3.3363,-3.3395,-3.3399,-3.3375,-3.3295,-3.3223,-3.3141,-3.2987,-3.2766,-3.2542,-3.226,-3.1939,-3.2743,-3.4265,-3.4025,-3.3787,-3.3588,0.0,0.0,0.0,0.0,0.0,0.0,0.0,0.0,0.0,0.0,0.0,0.0,0.0,0.0,0.0,0.0,0.0,0.0,0.0,0.0,0.0,0.0,0.0,0.0,0.0,0.0,0.0,0.0,0.0,0.0,0.0,0.0,0.0,-3.5508,-3.6022,-3.6666,-3.7285,-3.7223,-3.7108,-3.7108,-3.693,-3.6788,-3.6788,-3.6742,-3.7032,-3.7728,-3.7798,-3.8061,-3.8543,-3.8543,-3.8425,-3.8213,-3.8103,-3.7946,-3.7851,-3.7694,-3.75,-3.727,-3.79,-3.8093,-3.7949,-3.8202,-3.8214,-3.8026,-3.7546,-3.7222,-3.6984,-3.6999,-3.6554,-3.5973,-3.5767,-3.5379,-3.4802,0.0,0.0,0.0,0.0,0.0,0.0,0.0,0.0,0.0,0.0,-2.0789,-2.1134,-2.2012,-2.2103,-2.245,-2.3329,-2.3608,-2.4088,-2.4922,0.0,0.0,0.0,0.0,0.0,-3.2004,-3.2261,-3.2714,-3.3398,-3.3406,-3.3363,-3.3303,-3.323,-3.3093,-3.2921,-3.2675,-3.2386,-3.2066,-3.1681,-3.1586,-3.1719,-3.1728,-3.188,-3.2092,0.0,0.0,0.0,0.0,0.0,0.0,0.0,0.0,0.0,0.0,0.0,0.0,0.0,0.0,0.0,0.0,0.0,0.0,0.0,0.0,0.0,0.0,0.0,0.0,0.0,0.0,0.0,0.0,0.0,0.0,0.0,-3.4147,-3.5522,-3.5372,-3.6381,-3.7124,-3.7108,-3.7048,-3.697,-3.6829,-3.6766,-3.6725,-3.6725,-3.7106,-3.7403,-3.7586,-3.8,-3.8006,-3.7518,-3.7501,-3.7154,-3.6339,-3.6293,-3.6202,-3.6034,-3.6446,-3.6504,-3.6373,-3.6951,-3.7091,-3.6776,-3.688,-3.6948,-3.6988,-3.6774,-3.6515,-3.6313,-3.6553,-3.6367,-3.5973,-3.5668,-3.5148,-3.4481,0.0,0.0,0.0,0.0,0.0,0.0,0.0,0.0,0.0,0.0,-2.0262,-2.0701,-2.1233,-2.1301,-2.1643,-2.2474,-2.2557,-2.3066,-2.4255,0.0,0.0,0.0,0.0,-2.9312,-3.0306,-3.0384,-3.0677,-3.122,-3.1211,-3.1196,-3.1161,-3.1087,-3.0945,-3.0698,-3.0448,-3.0146,-2.9826,-2.9682,-2.9391,-2.9005,-2.9218,-2.9849,-3.063,-3.0349,-3.0386,-3.0526,-3.0415,-3.0094,-2.958,-2.8818,0.0,0.0,0.0,0.0,0.0,0.0,0.0,0.0,0.0,0.0,0.0,0.0,0.0,0.0,0.0,0.0,0.0,0.0,0.0,0.0,0.0,0.0,0.0,0.0,-3.4032,-3.4906,-3.4688,-3.6148,-3.7164,-3.7027,-3.6908,-3.6806,-3.6643,-3.6561,-3.652,-3.6478,-3.6774,-3.693,-3.6861,-3.7212,-3.7113,-3.6463,-3.6463,-3.6152,-3.5458,-3.5458,-3.5367,-3.5198,-3.5538,-3.5593,-3.5464,-3.6041,-3.6114,-3.5833,-3.6018,-3.6101,-3.6061,-3.5833,-3.5618,0.0,0.0,0.0,0.0,0.0,-3.3944,-3.3336,0.0,0.0,0.0,0.0,0.0,0.0,0.0,0.0,0.0,0.0,0.0,-1.9858,-2.0019,-1.9682,-1.9905,-2.1001,-2.1084,-2.1971,0.0,0.0,0.0,-2.678,-2.7511,-2.7958,-2.7983,-2.8098,-2.8179,-2.8189,-2.8196,-2.8201,-2.8196,-2.8129,-2.7965,-2.7692,-2.7428,-2.7109,-2.68,-2.6986,-2.6808,-2.6437,-2.6764,-2.7841,-2.9265,-2.8971,-2.8752,-2.8603,-2.8779,-2.8653,-2.8339,-2.8311,0.0,0.0,0.0,0.0,0.0,0.0,0.0,0.0,0.0,0.0,0.0,0.0,0.0,0.0,0.0,0.0,0.0,0.0,0.0,0.0,0.0,0.0,0.0,0.0,-3.388,-3.416,-3.3809,-3.5447,-3.672,-3.6808,-3.6713,-3.6602,-3.6461,-3.636,-3.6199,-3.6045,-3.5899,-3.5761,-3.5693,-3.5676,0.0,0.0,0.0,-3.5251,-3.504,-3.4994,-3.4981,-3.4925,-3.4767,-3.4704,-3.4676,-3.5068,-3.5159,-3.5037,-3.5401,-3.5411,-3.5212,-3.4914,-3.4627,-3.437,-3.5046,-3.4698,-3.3804,-3.3051,-3.242,-3.1982,0.0,0.0,0.0,0.0,0.0,0.0,0.0,0.0,0.0,-1.9187,-1.7078,-1.5773,-1.6483,-1.4101,-1.3639,-1.6532,-1.6691,-1.8535,0.0,0.0,-2.5321,-2.6666,-2.6832,-2.7209,-2.7894,-2.8006,-2.8066,-2.8124,-2.8161,-2.82,-2.8193,-2.8136,-2.7997,-2.7766,-2.7442,-2.7073,-2.6705,-2.6294,-2.5782,-2.5248,-2.552,-2.6556,-2.7835,-2.747,-2.7547,-2.777,-2.7428,-2.7091,-2.6849,-2.6929,-2.654,-2.5988,-2.5994,-2.5481,0.0,0.0,0.0,0.0,0.0,0.0,0.0,0.0,0.0,0.0,0.0,0.0,0.0,0.0,0.0,0.0,0.0,0.0,0.0,-3.316,-3.3641,-3.3876,-3.36,-3.4331,-3.5105,-3.5653,-3.6121,-3.636,-3.6251,-3.6165,-3.5762,-3.5036,-3.4856,-3.4498,-3.388,-3.37,-3.3657,-3.357,-3.357,-3.3527,-3.3351,-3.3262,-3.3408,-3.3912,-3.3754,0.0,-3.4366,-3.4347,-3.421,-3.397,-3.3958,-3.4111,-3.4345,-3.4154,-3.3774,-3.33,-3.3729,-3.3604,-3.3129,-3.2737,-3.2356,-3.1982,0.0,0.0,0.0,0.0,0.0,0.0,0.0,0.0,0.0,0.0,-1.5375,-1.4399,-1.3189,-1.152,-1.1194,-1.295,-1.3242,0.0,0.0,-2.106,-2.2802,-2.588,-2.5976,-2.6139,-2.6532,-2.6651,-2.6713,-2.6752,-2.6846,-2.6893,-2.6894,-2.6851,-2.6728,-2.6497,-2.618,-2.5818,-2.5445,-2.5275,-2.483,-2.4305,-2.4877,-2.5353,-2.5738,-2.5809,-2.5903,-2.5926,-2.5787,-2.5588,-2.5425,-2.5586,-2.5348,-2.4918,-2.4829,-2.4555,-2.4163,0.0,0.0,0.0,0.0,0.0,0.0,0.0,0.0,0.0,0.0,0.0,0.0,0.0,0.0,-3.2976,-3.2966,0.0,-3.3304,-3.3024,-3.314,-3.3156,-3.288,-3.3308,-3.3938,-3.4639,-3.4973,-3.5074,-3.4924,-3.4763,-3.4525,-3.4015,-3.3878,-3.3607,-3.3211,-3.3151,-3.3064,-3.3004,-3.3004,-3.2917,-3.268,-3.2635,-3.2743,-3.2984,-3.2845,-3.3126,-3.3648,-3.3517,-3.351,-3.3607,-3.345,-3.3445,-3.349,-3.3119,-3.2654,-3.2266,-3.2273,-3.2152,-3.1848,-3.1526,-3.1151,-3.0786,0.0,0.0,0.0,0.0,0.0,0.0,0.0,0.0,0.0,0.0,-1.3112,-1.2199,-0.9749,-0.8921,-0.887,0.0,0.0,0.0,0.0,-1.6952,-1.8787,-2.2454,-2.2533,-2.2451,-2.2374,-2.3379,-2.3934,-2.3932,-2.5046,-2.559,-2.5598,-2.5593,-2.5459,-2.5232,-2.4965,-2.4606,-2.4229,-2.4271,-2.405,-2.3642,-2.4348,-2.4353,-2.3916,-2.4389,-2.441,-2.4155,-2.4237,-2.4163,-2.4069,-2.4269,-2.4205,-2.3949,-2.3719,-2.3592,-2.3475,-2.3351,-2.3256,0.0,0.0,0.0,0.0,0.0,0.0,0.0,0.0,-3.1523,-3.2306,-3.2376,-3.298,-3.3491,-3.3411,-3.3334,-3.3214,-3.2916,-3.2722,-3.2472,-3.2214,-3.2449,-3.2921,-3.3537,-3.3728,-3.3778,-3.3573,-3.3431,-3.3254,-3.3043,-3.2907,-3.278,-3.2586,-3.2586,-3.2543,-3.2457,-3.2397,-3.2309,-3.2072,-3.2044,-3.2081,-3.2125,-3.1971,-3.2189,-3.2757,-3.2627,-3.2764,-3.3244,-3.3177,-3.2973,-3.2773,-3.215,-3.1739,-3.1495,-3.1117,-3.0895,-3.0702,-3.0387,-2.996,-2.9602,0.0,0.0,0.0,0.0,0.0,0.0,0.0,0.0,0.0,0.0,0.0,0.0,0.0,0.0,0.0,0.0,0.0,0.0,-1.221,-1.1856,-1.2032,-1.3014,-1.2659,-1.2365,-1.2234,-1.6434,-1.8696,-1.8743,-2.3299,-2.5546,-2.5603,-2.5605,-2.5515,-2.5376,-2.5107,-2.4719,-2.4263,-2.3792,-2.3573,-2.3505,-2.3686,-2.3635,-2.3491,-2.3679,-2.3724,-2.361,-2.3245,-2.296,-2.2847,-2.3033,-2.2999,-2.2962,-2.3375,-2.3489,-2.3341,-2.3059,-2.3196,-2.3493,-2.3615,-2.5051,-2.6853,-2.8457,-2.9779,-3.0976,0.0,-3.2592,-3.2885,-3.3136,-3.3172,-3.3196,-3.3292,-3.3122,-3.2916,-3.2838,-3.2574,-3.2354,-3.2144,-3.2015,-3.1881,-3.1794,-3.2872,-3.3573,-3.3456,-3.3339,-3.2959,-3.2033,-3.1967,-3.1598,-3.0833,-3.08,-3.0758,-3.0758,-3.0691,-3.0648,-3.0648,-3.0391,-3.0587,-3.1222,-3.0978,-3.1241,-3.195,-3.1662,-3.1831,-3.2361,-3.2462,-3.2508,-3.2398,-3.1766,-3.1552,-3.1422,-3.0866,-3.0507,-3.0326,-3.0158,-2.9927,-2.954,0.0,0.0,0.0,0.0,0.0,0.0,0.0,0.0,0.0,0.0,0.0,0.0,0.0,0.0,0.0,0.0,0.0,0.0,-0.8645,-0.8321,-0.9185,-1.1805,-1.1529,-1.1215,-1.0934,-1.2781,-1.3685,-1.3668,-1.581,-1.8377,-2.1236,-2.132,-2.3059,-2.6151,-2.5909,-2.5848,-2.5834,-2.5215,-2.4736,-2.4368,-2.4265,-2.3959,-2.3569,-2.351,-2.3377,-2.3113,-2.2663,-2.2175,0.0,0.0,-2.1374,-2.1101,-2.1719,-2.1862,-2.1924,-2.2359,-2.2814,-2.3343,-2.4097,-2.5528,-2.7131,-2.839,-2.9666,-3.0923,-3.2057,-3.2539,-3.277,-3.3028,-3.3042,-3.3042,-3.3122,-3.2979,-3.2852,-3.2722,-3.2456,-3.2232,-3.2108,-3.1837,-3.1576,-3.1517,-3.1907,-3.2161,-3.2006,-3.1958,-3.1716,-3.1191,-3.1074,-3.0883,-3.0543,-3.0526,-3.0526,-3.0526,-3.0443,-3.0375,-3.0274,-3.0119,-3.0136,-3.0401,-3.0206,-3.0424,-3.1068,-3.08,-3.0921,-3.1279,-3.1263,-3.1351,-3.1555,-3.1095,-3.1036,-3.1234,-3.0747,-3.0462,-3.0158,-2.9927,-2.9602,-2.9289,0.0,0.0,0.0,0.0,0.0,0.0,0.0,0.0,0.0,0.0,0.0,0.0,0.0,0.0,0.0,0.0,0.0,0.0,0.0,-0.4651,-0.5611,-0.8401,-0.8126,-0.7676,-0.7328,-0.8365,-0.8803,-0.8657,-1.0077,-1.2616,-1.6177,-1.6439,-1.9512,-2.4824,-2.4725,-2.5592,-2.7067,-2.6415,-2.5857,-2.5379,-2.4979,-2.4475,-2.3936,-2.3613,-2.3187,-2.2785,-2.2172,-2.1591,0.0,0.0,-2.0223,-1.9949,-2.0374,-2.0602,-2.082,-2.1597,-2.2364,-2.3227,-2.4496,-2.5798,-2.7022,-2.7952,-2.9161,-3.04,-3.1479,-3.1917,-3.2274,-3.2702,-3.282,-3.2884,-3.2916,-3.2884,-3.277,-3.2621,-3.2422,-3.2232,-3.2108,-3.18,-3.1555,-3.1517,-3.1346,-3.1173,-3.1015,-3.0952,-3.0831,-3.0651,-3.0568,-3.0526,-3.0526,-3.0526,-3.0526,-3.0526,-3.0443,-3.0333,-3.0189,-3.006,-2.9946,-2.983,-2.9697,-2.982,-3.0145,-3.0133,-3.0172,-3.0289,-3.0253,-3.0411,-3.0613,-3.0253,-3.0256,-3.0426,-3.006,-2.9748,-2.9416,-2.9111,-2.8997,-2.9099,0.0,0.0,0.0,0.0,0.0,0.0,0.0,0.0,0.0,0.0,0.0,0.0,0.0,0.0,0.0,0.0,0.0,0.0,0.0,-0.0311,0.0214,0.0661,0.138,0.1988,0.2481,-0.1861,-0.3976,-0.3708,-0.8617,-1.1088,-1.1331,-1.1917,-1.5015,-2.0113,-2.0298,-2.2988,-2.7352,-2.6749,-2.6481,-2.6367,-2.5456,-2.4915,-2.4601,-2.3879,-2.3231,-2.2577,-2.1676,0.0,0.0,0.0,-2.0055,-2.0085,-2.0113,-2.0358,-2.0641,-2.0783,-2.1913,-2.336,-2.4571,-2.5821,-2.6891,-2.7321,-2.8275,-2.9414,-3.0506,-3.0872,-3.1236,-3.2297,-3.2489,-3.2574,-3.2773,-3.269,-3.2606,-3.2606,-3.2473,-3.2319,-3.2108,-3.1946,-3.1726,-3.1517,-3.1368,-3.1235,-3.1015,-3.0952,-3.0773,-3.0526,-3.0526,-3.0526,-3.0526,-3.0526,-3.0526,-3.0526,-3.0443,-3.0333,-3.0189,-3.006,-2.9902,-2.9697,-2.9563,-2.9428,-2.9353,-2.9689,-2.9676,-2.9473,-2.9824,-2.9848,-2.9609,-2.9307,-2.899,-2.8739,-2.8383,-2.8095,-2.7832,-2.7478,-2.8091,-2.9035,0.0,0.0,0.0,0.0,0.0,0.0,0.0,0.0,0.0,0.0,0.0,0.0,0.0,0.0,0.0,0.0,0.0,0.0,0.0,-0.0678,-0.0216,0.0335,0.1008,0.1641,0.2195,0.1047,0.0656,0.1073,-0.059,-0.3142,-0.6413,-0.681,-1.025,-1.6077,-1.6399,-1.9471,-2.4401,-2.4088,-2.5363,-2.7494,-2.649,-2.5735,-2.5144,-2.4256,-2.3681,-2.3142,0.0,0.0,0.0,0.0,-1.9486,-1.9339,-1.9872,-2.0189,-2.0542,-2.1342,-2.2419,-2.3475,-2.4153,-2.5125,-2.6075,-2.6986,-2.7581,-2.8258,-2.938,-2.9781,-3.0075,-3.0672,-3.1245,-3.1714,-3.1959,-3.2335,-3.2639,-3.2722,-3.2558,-3.2371,-3.2319,-3.2018,-3.1763,-3.1688,-3.1538,-3.1346,-3.1151,-3.1015,-3.0895,-3.079,-3.079,-3.079,-3.079,-3.079,-3.0733,-3.0651,-3.0526,-3.017,-2.9484,-2.9375,-2.9205,-2.8989,-2.9143,-2.9137,-2.8983,-2.8965,-2.8881,-2.8602,-2.8632,-2.8776,-2.8936,-2.8571,-2.8565,-2.8681,-2.8326,-2.8039,-2.7776,-2.7423,-2.7418,-2.7578,0.0,0.0,0.0,0.0,0.0,0.0,0.0,0.0,0.0,0.0,0.0,0.0,0.0,0.0,0.0,0.0,0.0,0.0,0.0,0.0,-0.0822,-0.028,0.0224,0.0797,0.1469,0.194,0.2402,0.288,0.2943,0.1319,-0.1822,-0.2293,-0.5799,-1.173,-1.2301,-1.5679,-2.106,-2.2289,-2.4138,-2.6262,-2.665,-2.6335,-2.5561,-2.4664,-2.4147,0.0,0.0,0.0,0.0,-1.9839,-1.9368,-1.928,-1.987,-2.0214,-2.063,-2.1649,-2.2397,-2.3026,-2.3607,-2.4404,-2.5255,-2.6045,-2.6578,-2.7178,-2.8241,-2.8642,-2.8956,-2.9589,-3.0225,-3.0845,-3.142,-3.1912,-3.2338,-3.2737,-3.2659,-3.2525,-3.2388,-3.2179,-3.1982,-3.1856,-3.1688,-3.1538,-3.1368,-3.1252,-3.1112,-3.0912,-3.0912,-3.0912,-3.0912,-3.0912,-3.0871,-3.0773,-3.0401,-2.9856,-2.9214,-2.8821,-2.8589,-2.8517,-2.8672,-2.8762,-2.8794,-2.8589,-2.8381,-2.8103,-2.7955,-2.7946,-2.8077,-2.7748,-2.7729,-2.7818,-2.747,-2.7201,-2.6944,-2.6583,-2.6276,-2.6094,0.0,0.0,0.0,0.0,0.0,0.0,0.0,0.0,0.0,0.0,0.0,0.0,0.0,0.0,0.0,0.0,0.0,0.0,0.0,0.0,0.0,-0.0785,-0.0449,0.0,0.0648,0.106,0.1517,0.1934,0.2065,0.2097,0.2087,0.1412,-0.1837,-0.7136,-0.7996,-1.1644,-1.7395,-2.1111,-2.2773,-2.3176,-2.6003,-2.6622,-2.5859,-2.5137,0.0,0.0,0.0,0.0,-2.2033,-2.0227,-1.9782,-2.0004,-2.012,-2.0395,-2.0789,-2.1568,-2.189,-2.2184,-2.2892,-2.3758,-2.4486,-2.4609,-2.5291,-2.6178,-2.7095,-2.7475,-2.7941,-2.9042,-2.9471,-2.9967,-3.1082,-3.1405,-3.1771,-3.2627,-3.2787,-3.2725,-3.2457,-3.2458,-3.2371,-3.2036,-3.1942,-3.1903,-3.1737,-3.1644,-3.1414,-3.1043,-3.0969,-3.0912,-3.0912,-3.0912,-3.0912,-3.0912,-3.0055,-2.952,-2.9367,-2.8385,-2.8046,-2.8302,-2.818,-2.8322,-2.8748,-2.8493,-2.825,-2.8005,-2.774,-2.7423,-2.7181,-2.6937,-2.6621,-2.6286,-2.6002,-2.5743,-2.5439,-2.5131,-2.4835,-2.4709,0.0,0.0,0.0,0.0,0.0,0.0,0.0,0.0,0.0,0.0,0.0,0.0,0.0,0.0,0.0,0.0,0.0,0.0,0.0,0.0,0.0,0.0,0.0,0.0,0.0,0.0,0.0,0.0,0.0,0.1001,0.1143,0.0739,-0.0656,-0.2763,-0.3753,-0.735,-1.2907,-1.6743,-2.0274,-2.3519,0.0,-2.6982,-2.6282,0.0,0.0,0.0,0.0,0.0,-2.348,-2.1657,-2.0936,-2.083,-2.1055,-2.1197,-2.134,-2.1645,-2.2021,-2.241,-2.2588,-2.3171,-2.3721,-2.386,-2.4449,-2.5163,-2.5574,-2.6248,-2.6927,-2.7569,-2.8313,-2.9089,-2.972,-3.0818,-3.1778,-3.2133,-3.2621,-3.2902,-3.2787,-3.317,-3.3353,-3.3107,-3.3506,-3.3743,-3.3536,-3.3031,-3.2607,-3.2419,-3.173,-3.1363,-3.1363,-3.1252,-3.1173,-3.1112,-3.0247,-2.9399,-2.8655,-2.7545,-2.6913,-2.6837,-2.7676,-2.8054,-2.8015,-2.8261,-2.825,-2.8005,-2.774,-2.7423,-2.7181,-2.6937,-2.6621,-2.6286,-2.6002,-2.5743,-2.5439,-2.5131,-2.4708,-2.4403,0.0,0.0,0.0,0.0,0.0,0.0,0.0,0.0,0.0,0.0,0.0,0.0,0.0,0.0,0.0,0.0,0.0,0.0,0.0,0.0,0.0,0.0,0.0,0.0,0.0,0.0,0.0,0.0,0.0,0.0,0.0,-0.0537,-0.1074,-0.1813,-0.2817,-0.5348,-0.9145,-1.3383,0.0,0.0,0.0,0.0,0.0,0.0,0.0,0.0,0.0,0.0,-2.464,-2.3473,-2.2391,-2.1565,-2.179,-2.1895,-2.1957,-2.1911,-2.2122,-2.2316,-2.2209,-2.2622,-2.3078,-2.3111,-2.3665,-2.4354,-2.4857,-2.5462,-2.6118,-2.6822,-2.7589,-2.8351,-2.9066,-3.0339,-3.1434,-3.1959,-3.2649,-3.3198,-3.3458,-3.3743,-3.3984,-3.4199,-3.4463,-3.4581,-3.4451,-3.3731,-3.3184,-3.3147,-3.2139,-3.1538,-3.1538,-3.1445,-3.1329,-3.1252,-3.0082,-2.8795,-2.7446,-2.67,-2.6328,-2.6391,-2.6952,-2.7233,-2.7266,-2.735,-2.73,-2.7124,-2.6692,-2.6446,-2.6312,-2.5937,-2.5787,-2.5767,-2.5432,-2.5273,-2.5257,-2.4962,-2.4549,-2.4203,0.0,0.0,0.0,0.0,0.0,0.0,0.0,0.0,0.0,0.0,0.0,0.0,0.0,0.0,0.0,0.0,0.0,0.0,0.0,0.0,0.0,0.0,0.0,0.0,0.0,0.0,0.0,0.0,0.0,0.0,0.0,0.0,0.0,0.0,0.0,0.0,0.0,0.0,0.0,0.0,0.0,0.0,0.0,0.0,0.0,0.0,0.0,-2.5829,-2.5486,-2.4816,-2.3594,-2.2372,-2.2511,-2.2559,-2.2525,-2.2364,-2.2237,-2.2124,-2.1928,-2.2167,-2.2505,-2.2426,-2.2932,-2.365,-2.4357,-2.4945,-2.558,-2.6503,-2.7144,-2.784,-2.8835,-2.9969,-3.1013,-3.1859,-3.2773,-3.3593,-3.424,-3.4315,-3.4559,-3.5206,-3.5226,-3.5137,-3.5012,-3.4181,-3.3599,-3.3457,-3.2381,-3.1691,-3.1654,-3.1576,-3.1359,-3.1023,-2.9671,-2.8084,-2.622,-2.6007,-2.6043,-2.6349,-2.619,-2.6267,-2.6564,-2.6272,-2.6092,-2.5971,-2.5444,-2.5191,-2.5158,-2.4702,-2.4747,-2.501,-2.459,-2.4532,-2.4718,-2.4436,-2.4165,-2.3819,0.0,0.0,0.0,0.0,0.0,0.0,0.0,0.0,0.0,0.0,-0.413,0.0,0.0,0.0,0.0,0.0,0.0,0.0,0.0,0.0,0.0,0.0,0.0,0.0,0.0,0.0,0.0,0.0,-0.3116,0.0,0.0,0.0,0.0,0.0,0.0,0.0,0.0,0.0,0.0,0.0,0.0,0.0,0.0,0.0,0.0,0.0,-2.6521,-2.6316,-2.5617,-2.3592,-2.3216,-2.3601,-2.3815,-2.3424,-2.2893,-2.2799,-2.2642,-2.2453,-2.2209,-2.2082,-2.1993,-2.1875,-2.2309,-2.2834,-2.3143,-2.4314,-2.5462,-2.6107,-2.6978,-2.7842,-2.8425,-2.9845,-3.1039,-3.1319,-3.2602,-3.3782,-3.4449,-3.5038,-3.5645,-3.6288,-3.6845,-3.6899,-3.6132,-3.5279,-3.45,-3.3793,-3.2861,-3.2249,-3.2037,-3.1819,-3.1048,-2.9434,-2.9039,-2.7978,-2.622,-2.6007,-2.5798,-2.5609,-2.6046,-2.6129,-2.5909,-2.628,-2.6289,-2.5971,-2.5538,0.0,-2.5158,-2.4702,-2.449,-2.4425,-2.3937,-2.3694,-2.354,-2.3232,-2.2839,-2.2509,0.0,0.0,0.0,0.0,0.0,0.0,0.0,0.0,0.0,0.0,-0.9514,-0.6081,0.0,0.0,0.0,0.0,0.0,0.0,0.0,0.0,0.0,0.0,0.0,0.0,0.0,-0.464,-0.4599,-0.45,0.0,-0.4521,-0.4524,-0.4588,-0.4833,-0.5193,-0.5804,0.0,0.0,0.0,0.0,0.0,0.0,0.0,0.0,0.0,0.0,0.0,0.0,-2.4974,-2.4493,-2.2187,-2.146,-2.1667,-2.259,-2.2361,-2.1995,-2.3259,-2.3206,-2.2712,-2.2463,-2.2198,-2.1969,-2.1899,-2.2046,-2.2363,-2.2884,-2.4051,-2.5258,-2.5988,-2.707,-2.795,-2.8327,-2.9863,-3.1093,-3.1224,-3.2602,-3.4053,-3.5235,-3.5623,-3.6218,-3.735,-3.7338,-3.7055,-3.6575,-3.5397,-3.4456,-3.4049,-3.3184,-3.2541,-3.2267,-3.1618,-3.0625,-2.9244,-2.8588,-2.7664,-2.6362,-2.6079,-2.5828,-2.5567,-2.5692,-2.5608,-2.5217,-2.5377,-2.5302,-2.4938,-2.4582,-2.4341,-2.4143,-2.3706,-2.3587,-2.3639,-2.3247,-2.3084,-2.303,-2.2871,-2.2482,-2.2021,0.0,0.0,0.0,0.0,0.0,0.0,0.0,-1.8924,-1.7864,-1.8124,-1.509,-1.1157,-0.6619,-0.5681,-0.5393,0.0,0.0,0.0,0.0,0.0,0.0,0.0,0.0,0.0,0.0,0.0,0.0,-0.5775,-0.5775,0.0,0.0,0.0,0.0,0.0,-0.6871,-0.7565,-0.8658,0.0,0.0,0.0,0.0,-2.3546,0.0,0.0,0.0,0.0,0.0,-2.3649,-2.3401,-2.063,-1.9276,-1.8981,-2.0296,-2.0786,-2.126,-2.3176,-2.3483,-2.3163,-2.2953,-2.2545,-2.2169,-2.2084,-2.2044,-2.2153,-2.2811,-2.3952,-2.5067,-2.5872,-2.7109,-2.8109,-2.838,-2.9898,-3.1172,-3.1302,-3.2664,-3.4238,-3.5637,-3.5903,-3.6466,-3.7903,-3.7374,-3.6805,-3.6627,-3.5231,-3.4235,-3.4042,-3.3098,-3.2426,-3.2176,-3.129,-3.0283,-2.9231,-2.8304,-2.7417,-2.6536,-2.6206,-2.5937,-2.5701,-2.5416,-2.5139,-2.4822,-2.462,-2.4317,-2.4009,-2.3726,-2.3451,-2.3275,-2.2828,-2.2715,-2.2895,-2.2609,-2.2464,-2.2392,-2.2379,-2.2048,-2.1498,0.0,0.0,0.0,0.0,0.0,0.0,0.0,-2.0536,-2.0196,-1.8261,-1.9003,-1.7555,-1.1907,-0.8651,-0.6941,0.0,0.0,0.0,0.0,0.0,0.0,0.0,0.0,0.0,0.0,0.0,0.0,-0.6776,-0.6776,0.0,0.0,0.0,0.0,0.0,0.0,-0.8104,-0.9117,-1.2152,0.0,0.0,0.0,0.0,0.0,0.0,0.0,0.0,0.0,-2.3878,-2.3221,-1.8864,-1.7219,-1.7076,-1.7362,-1.9434,-2.1805,-2.1914,-2.2992,-2.4121,-2.3936,-2.3192,-2.246,-2.2377,-2.2293,-2.231,-2.2518,-2.3807,-2.5086,-2.5417,-2.6916,-2.8255,-2.8536,-3.0002,-3.1232,-3.1359,-3.2742,-3.4092,-3.4906,-3.5626,-3.6383,-3.7215,-3.7221,-3.6862,-3.6072,-3.5187,-3.4298,-3.3442,-3.2402,-3.1657,-3.1333,-3.1164,-3.028,-2.8558,-2.8152,-2.7521,-2.6589,-2.631,-2.6043,-2.5701,-2.5492,-2.524,-2.4966,-2.4726,-2.4426,-2.4078,-2.3867,-2.3581,0.0,-2.2844,-2.2523,-2.2269,-2.1985,-2.158,-2.1156,-2.103,-2.0729,-2.0284,0.0,0.0,0.0,0.0,0.0,0.0,0.0,-2.0586,-2.09,-2.0986,-2.0907,-1.998,-1.7715,-1.4232,-1.1057,0.0,0.0,0.0,0.0,0.0,0.0,0.0,0.0,0.0,0.0,0.0,-0.7937,-0.783,-0.7723,0.0,0.0,0.0,0.0,0.0,0.0,-0.8771,-0.9736,-1.352,0.0,0.0,0.0,0.0,0.0,0.0,0.0,0.0,0.0,0.0,-1.9463,-1.6086,-1.4852,-1.4707,-1.4582,-1.7552,-2.1191,-2.2244,-2.3667,-2.4777,-2.4216,-2.3653,-2.3117,-2.2644,-2.2515,-2.2515,-2.2605,-2.3967,-2.5265,-2.5526,-2.7006,-2.8335,-2.8612,-3.0054,-3.1258,-3.1434,-3.282,-3.4181,-3.5027,-3.5432,-3.5901,-3.6681,-3.6285,-3.5787,-3.5389,-3.4582,-3.3694,-3.2712,-3.1755,-3.0885,-3.0171,-2.9888,-2.9368,-2.8483,-2.7822,-2.7214,-2.6657,-2.6382,-2.6134,-2.5864,-2.5567,-2.5262,-2.5068,-2.4751,-2.4426,-2.4078,-2.3867,-2.3625,0.0,-2.2889,-2.2526,-2.2278,-2.1949,-2.152,-2.1082,-2.0858,-2.056,-2.0131,0.0,0.0,0.0,0.0,0.0,0.0,-1.9976,-2.0295,-2.0949,-2.2581,-2.2389,-2.1817,-2.1122,-1.9028,-1.6136,-1.2313,0.0,0.0,0.0,0.0,0.0,0.0,0.0,0.0,0.0,0.0,-0.8883,-0.8685,-0.8671,-0.8609,0.0,0.0,-0.8565,-0.871,0.0,0.0,0.0,0.0,0.0,0.0,0.0,0.0,0.0,0.0,0.0,0.0,0.0,0.0,0.0,0.0,0.0,-1.3476,-1.3354,-1.6182,-1.993,-2.1736,-2.3853,-2.5492,-2.4885,-2.4233,-2.3612,-2.3096,-2.2804,-2.2737,-2.3084,-2.4313,-2.5516,-2.6003,-2.729,-2.8406,-2.8644,-3.0079,-3.1283,-3.1458,-3.2845,-3.4142,-3.4821,-3.5161,-3.5531,-3.6085,-3.5569,-3.5146,-3.5092,-3.4055,-3.2858,-3.1647,-3.0939,-3.0152,-2.914,-2.88,-2.8513,-2.8247,-2.7538,-2.7006,-2.6742,-2.6504,-2.6277,-2.599,-2.5642,-2.5378,-2.5146,-2.4791,-2.4399,-2.3912,-2.3679,-2.3263,0.0,-2.2323,-2.2073,-2.1787,-2.1407,-2.1035,-2.0657,-2.0356,-2.0015,-1.9609,0.0,0.0,0.0,0.0,0.0,0.0,0.0,-1.9805,-2.043,-2.2099,-2.3676,-2.3703,-2.1184,-2.228,-2.201,-1.8954,0.0,0.0,0.0,0.0,0.0,0.0,0.0,0.0,0.0,0.0,-0.9666,-0.9413,-0.9573,-0.9556,-0.928,-0.9633,-0.9676,-0.9515,0.0,0.0,0.0,0.0,0.0,0.0,0.0,0.0,0.0,0.0,0.0,0.0,0.0,0.0,0.0,0.0,0.0,0.0,0.0,-1.5681,0.0,0.0,-2.3217,-2.6347,-2.6207,-2.5011,-2.3788,-2.3788,-2.329,-2.3033,-2.3955,-2.4901,-2.5862,-2.6791,-2.7745,-2.8458,-2.8644,-3.0079,-3.1283,-3.1458,-3.2845,-3.3921,-3.3998,-3.4774,-3.5283,-3.5328,-3.5283,-3.5283,-3.5283,-3.3666,-3.1902,-3.0141,-2.9886,-2.9367,-2.8354,-2.8182,-2.7957,-2.7635,-2.7355,-2.7103,-2.6893,-2.6691,-2.6399,-2.601,-2.5775,-2.5567,-2.5294,-2.4942,-2.4342,-2.3491,-2.3157,-2.2415,0.0,-2.1155,-2.0824,-2.05,-2.0156,-1.9792,-1.9494,-1.9061,-1.8706,-1.8421,0.0,0.0,0.0,0.0,0.0,0.0,0.0,-1.9295,-1.993,-2.1417,-2.3054,-2.3802,-2.3115,-2.3095,-2.2796,-2.1881,0.0,0.0,0.0,0.0,0.0,0.0,0.0,0.0,0.0,0.0,-1.0706,-1.0348,-1.0564,-1.049,-1.0208,-1.0194,-1.0194,-1.0271,-1.0433,-1.0758,0.0,0.0,0.0,0.0,0.0,0.0,-2.6202,0.0,0.0,0.0,0.0,0.0,0.0,0.0,0.0,0.0,0.0,0.0,0.0,-1.9847,-2.2558,-2.5089,-2.5949,-2.5789,-2.5264,-2.4815,-2.4559,-2.4547,-2.4944,-2.5746,-2.6552,-2.6977,-2.7797,-2.8647,-2.9446,-3.052,-3.1499,-3.2269,-3.3315,-3.4074,-3.4197,-3.4439,-3.4624,-3.4624,-3.455,-3.4252,-3.3647,-3.2539,-3.1329,-3.0093,-2.941,-2.884,-2.8398,-2.7674,-2.7374,-2.76,-2.7434,-2.7215,-2.6992,-2.6708,-2.6468,-2.6189,-2.5409,-2.4891,-2.4654,-2.3787,-2.3139,-2.2747,-2.2454,-2.1994,-2.148,-2.1126,-2.0795,-2.0486,-2.0128,-1.9778,-1.9467,-1.9048,-1.8681,-1.8346,0.0,0.0,0.0,0.0,0.0,0.0,0.0,-1.8898,-1.9498,-2.0958,-2.2573,-2.3635,-2.3719,-2.3911,-2.4071,-2.4097,0.0,0.0,0.0,0.0,0.0,0.0,0.0,0.0,0.0,-1.1882,-1.1731,-1.1349,-1.1414,-1.1291,-1.106,-1.1019,-1.1012,-1.1002,-1.1118,-1.1868,0.0,0.0,0.0,0.0,0.0,0.0,-2.6301,0.0,0.0,0.0,0.0,0.0,0.0,0.0,0.0,0.0,0.0,0.0,0.0,0.0,-2.2244,-2.4453,-2.6092,-2.6316,-2.5958,-2.5623,-2.5362,-2.5307,-2.577,-2.6364,-2.6952,-2.7476,-2.8047,-2.8745,-2.9799,-3.0734,-3.1666,-3.2668,-3.358,-3.4173,-3.4316,-3.434,-3.4316,-3.4293,-3.3961,-3.3369,-3.2477,-3.1616,-3.0686,-2.971,-2.8791,-2.8209,-2.8008,-2.7056,-2.6606,-2.6812,-2.6655,-2.6446,-2.6168,-2.5944,-2.5715,-2.5463,-2.4707,-2.4216,-2.3951,-2.3163,-2.2561,-2.2071,-2.1789,-2.1348,0.0,-2.0435,-2.0091,-1.9779,-1.9391,-1.9053,-1.8765,-1.8359,-1.7958,-1.7634,0.0,0.0,0.0,0.0,0.0,0.0,0.0,0.0,0.0,0.0,-2.2218,-2.3167,-2.3256,-2.4636,-2.553,0.0,0.0,0.0,0.0,0.0,0.0,0.0,0.0,0.0,0.0,-1.3155,-1.2761,-1.2265,-1.2175,-1.1992,-1.183,-1.2035,-1.2056,-1.1953,-1.2068,-1.3515,0.0,0.0,0.0,0.0,0.0,0.0,0.0,0.0,0.0,0.0,0.0,0.0,0.0,0.0,0.0,0.0,0.0,0.0,0.0,0.0,0.0,0.0,0.0,-2.6605,-2.6134,-2.6251,-2.5831,-2.5614,-2.6574,-2.6861,0.0,-2.8255,-2.8549,-2.8913,-2.9988,-3.0906,-3.1808,-3.2834,-3.369,-3.4245,-3.4404,-3.4404,-3.4367,-3.4242,-3.3571,-3.2701,-3.1714,-3.0868,-2.9982,-2.8998,-2.8095,-2.75,-2.7254,-2.6332,-2.5704,-2.5438,-2.5197,-2.4975,-2.4802,-2.4688,-2.4444,-2.4114,-2.3836,-2.3553,-2.3211,-2.2987,-2.2359,-2.1479,-2.1178,-2.0537,-1.969,-1.9288,-1.8927,-1.8634,-1.8161,-1.7855,-1.7638,-1.7183,-1.6791,-1.651,0.0,0.0,0.0,0.0,0.0,0.0,0.0,0.0,0.0,0.0,-2.1815,-2.2771,-2.2812,-2.4112,-2.5045,0.0,0.0,0.0,0.0,0.0,0.0,0.0,0.0,0.0,0.0,-1.5734,-1.4834,-1.298,-1.3067,-1.2901,-1.244,-1.2458,-1.3424,-1.511,-1.5096,-1.755,0.0,0.0,0.0,0.0,0.0,0.0,0.0,0.0,0.0,0.0,-1.8698,-1.6715,0.0,0.0,0.0,0.0,0.0,0.0,0.0,0.0,-2.2213,-2.4379,-2.6528,0.0,-2.7037,-2.7157,-2.7078,-2.7098,0.0,-2.7703,-2.8027,-2.9089,-2.9368,-2.9934,-3.1597,-3.2173,-3.2711,-3.3722,-3.4091,-3.4316,-3.4473,-3.4473,-3.4248,-3.3608,-3.328,-3.2501,-3.1002,-3.0576,-2.9765,-2.8191,-2.7785,-2.7263,-2.6488,-2.5571,-2.4992,-2.4814,-2.3962,-2.3944,-2.4802,-2.4688,-2.4475,-2.4161,-2.3389,-2.29,-2.2587,-2.1775,-2.1173,-2.0727,-2.045,-2.0076,-1.969,-1.9288,-1.8889,-1.8517,-1.8121,-1.7774,-1.7446,-1.7219,-1.6893,-1.6473,0.0,0.0,0.0,0.0,0.0,0.0,0.0,0.0,0.0,0.0,0.0,0.0,0.0,0.0,0.0,0.0,0.0,0.0,0.0,0.0,0.0,0.0,0.0,0.0,-1.8409,-1.8485,-1.7896,-1.6528,-1.6598,-1.6467,-1.6134,-1.6066,-1.6934,-1.8591,-1.9723,0.0,0.0,0.0,0.0,0.0,-2.6926,0.0,0.0,0.0,0.0,0.0,-1.9067,-1.7354,0.0,-1.6201,-1.6127,-1.6326,0.0,0.0,0.0,0.0,-2.3694,-2.5706,-2.7235,-2.7717,-2.7831,-2.8021,-2.8328,-2.8697,-2.8971,-2.9077,-2.9272,-3.0004,-3.0243,-3.0749,-3.2227,-3.2654,-3.3105,-3.4091,-3.434,-3.4473,-3.458,-3.4583,-3.428,-3.3409,-3.2895,-3.2079,-3.0767,-2.982,-2.892,-2.7948,-2.7043,-2.6267,-2.5724,-2.4807,-2.4234,-2.4112,-2.3428,-2.3353,-2.3874,-2.3722,-2.3519,-2.3281,-2.2637,-2.2177,-2.1876,-2.1279,-2.0794,-2.0494,-2.0289,-2.001,-1.969,-1.9288,-1.8851,-1.8478,-1.8095,-1.776,-1.7444,-1.7122,-1.6683,-1.6237,0.0,0.0,0.0,0.0,0.0,0.0,0.0,0.0,0.0,0.0,0.0,0.0,0.0,0.0,0.0,0.0,0.0,0.0,0.0,0.0,0.0,0.0,0.0,-2.3036,-2.1185,-2.1148,-2.0948,-2.0527,-2.0422,-2.0348,-2.0295,-2.0304,-2.0942,-2.2179,-2.4744,-2.5791,0.0,0.0,-2.7523,-2.7145,-2.7129,0.0,0.0,0.0,0.0,0.0,0.0,0.0,0.0,-1.7863,-1.7863,-1.8261,-2.012,0.0,0.0,0.0,0.0,0.0,-2.8113,-2.8489,-2.8674,-2.8821,-2.9388,-2.9954,-3.0256,-3.0287,-3.0414,-3.0901,-3.1073,-3.1483,-3.2527,-3.2907,-3.3351,-3.4181,-3.4495,-3.4645,-3.4687,-3.4593,-3.4156,-3.3224,-3.2337,-3.1416,-3.0439,-2.8918,-2.7888,-2.7647,-2.6133,-2.5145,-2.4954,-2.4042,-2.3476,-2.3338,-2.3012,-2.2726,-2.2478,-2.2485,-2.2405,-2.2192,-2.1915,-2.1601,-2.1294,-2.1167,-2.0892,-2.0494,0.0,0.0,-1.969,-1.9288,-1.8851,-1.8478,-1.8043,-1.7747,-1.747,-1.6859,-1.6405,-1.5988,0.0,0.0,0.0,0.0,0.0,0.0,0.0,0.0,0.0,0.0,0.0,0.0,0.0,0.0,0.0,0.0,0.0,0.0,0.0,0.0,0.0,0.0,-2.5513,-2.496,-2.3193,-2.3222,-2.2402,-2.0675,-2.0713,-2.0574,-2.0314,-2.0975,-2.2805,-2.5647,-2.8257,-2.928,-2.9066,-2.9313,-2.8833,-2.7947,-2.7913,0.0,0.0,0.0,0.0,0.0,0.0,0.0,0.0,-1.8021,-1.805,-1.8437,-2.0174,0.0,0.0,0.0,0.0,0.0,-2.8259,-2.9064,-2.9667,-2.9636,-2.9772,-2.9954,-3.0256,-3.0287,-3.0604,-3.1613,-3.1931,-3.2337,-3.3405,-3.3762,-3.4024,-3.4321,-3.4539,-3.4687,-3.4687,-3.4103,-3.3349,-3.2405,-3.146,-3.0314,-2.882,-2.8253,-2.7409,-2.5983,-2.5571,-2.501,-2.4215,-2.3293,-2.2715,-2.2568,-2.1697,-2.1185,-2.1022,-2.2056,-2.246,-2.2192,-2.1915,-2.1601,-2.1294,-2.1167,-2.0892,-2.0494,0.0,-2.008,-1.969,-1.9288,-1.8851,-1.8478,-1.8043,-1.7638,-1.7212,-1.6693,-1.6219,-1.5736,0.0,0.0,0.0,0.0,0.0,0.0,0.0,0.0,0.0,0.0,0.0,0.0,0.0,0.0,0.0,0.0,0.0,0.0,0.0,0.0,0.0,-2.5068,-2.553,-2.5547,-2.5024,-2.5195,-2.491,-2.4052,-2.426,-2.4312,-2.4217,-2.5533,-2.7138,-2.8997,-3.019,-3.0602,-3.0367,-2.9967,-2.9418,-2.875,0.0,0.0,0.0,0.0,0.0,0.0,0.0,0.0,0.0,0.0,-2.1339,-2.1758,-2.3586,0.0,0.0,0.0,0.0,0.0,-2.8876,-2.953,-3.0099,-3.0888,-3.1165,-3.13,-3.1512,-3.1526,-3.1728,-3.2445,-3.2703,-3.2987,-3.3625,-3.3895,-3.4148,-3.4473,-3.4623,-3.4536,-3.4103,-3.3727,-3.2992,-3.1616,-3.0617,-2.9586,-2.8409,-2.7325,-2.6355,-2.5558,-2.4633,-2.3895,-2.3433,-2.2478,-2.1926,-2.1862,-2.1322,-2.0937,-2.0802,-2.1294,-2.137,-2.1059,-2.0799,-2.052,-2.0277,-2.0102,-2.0035,-2.0014,0.0,-1.971,-1.969,-1.9288,-1.8851,-1.8439,-1.7975,-1.7516,-1.7005,-1.6213,-1.5656,-1.5232,0.0,0.0,0.0,0.0,0.0,0.0,0.0,0.0,0.0,0.0,0.0,0.0,0.0,0.0,0.0,0.0,0.0,0.0,0.0,0.0,-2.4441,-2.4614,-2.5013,-2.5492,-2.6132,-2.6469,-2.6708,-2.6893,-2.7233,-2.7656,-2.8132,-2.9481,-3.0598,-3.1475,-3.1475,-3.139,-3.1167,-3.0576,-3.0092,-2.9609,0.0,0.0,0.0,0.0,0.0,0.0,0.0,0.0,0.0,0.0,0.0,0.0,0.0,0.0,0.0,-2.7438,-2.7496,-2.7888,-2.949,-2.9924,-3.0339,-3.1882,-3.2301,-3.2422,-3.2557,-3.2606,-3.2705,-3.2993,-3.3183,-3.3382,-3.3633,-3.3868,-3.4148,-3.4495,-3.4454,-3.4177,-3.3556,-3.3142,-3.2352,-3.0771,-2.9775,-2.882,-2.7811,-2.6451,-2.5449,-2.5005,-2.375,-2.2905,-2.263,-2.1698,-2.1169,-2.113,-2.0777,-2.051,-2.0361,-2.0153,-2.0079,-2.0127,-1.9848,-1.9611,-1.9394,-1.9188,-1.9204,-1.9358,-1.9242,-1.9296,-1.943,-1.9177,-1.8836,-1.8386,-1.7882,-1.7338,-1.6697,-1.5764,-1.5197,-1.4823,0.0,0.0,0.0,0.0,0.0,0.0,0.0,0.0,0.0,0.0,0.0,0.0,0.0,0.0,0.0,0.0,0.0,0.0,0.0,0.0,-2.3952,-2.4162,-2.4477,-2.5036,-2.5897,-2.626,-2.6572,-2.6893,-2.7233,-2.8275,-2.9916,-3.0053,-3.0896,-3.2318,-3.2318,-3.2231,-3.2092,-3.1969,-3.141,-3.0541,-2.9644,0.0,0.0,0.0,0.0,0.0,0.0,0.0,0.0,0.0,0.0,0.0,0.0,0.0,-2.7407,-2.7544,-2.763,-2.8052,-2.9726,-3.0166,-3.0536,-3.2002,-3.2388,-3.2422,-3.2507,-3.2557,-3.2672,-3.2884,-3.3122,-3.3352,-3.3577,-3.3921,-3.4245,-3.4386,-3.3899,-3.3475,-3.3419,-3.2107,-3.081,-2.9814,-2.8933,-2.7755,-2.6133,-2.58,-2.504,-2.3469,-2.3194,-2.27,-2.1824,-2.0949,-2.0443,-2.0391,-1.9525,-1.8967,-1.8762,-1.8566,-1.9048,-2.0193,-1.9916,-1.9654,-1.9394,-1.9188,-1.8933,-1.87,-1.9041,-1.9037,-1.8787,-1.9002,-1.8784,-1.8266,-1.7868,-1.7102,-1.6188,-1.5691,-1.5142,-1.4662,0.0,0.0,0.0,0.0,0.0,0.0,0.0,0.0,0.0,0.0,0.0,0.0,0.0,0.0,0.0,0.0,0.0,0.0,0.0,0.0,-2.3482,-2.3712,-2.3893,-2.4219,-2.4772,-2.5625,-2.6225,-2.6521,-2.7103,-2.8328,-3.0106,-3.0106,-3.0931,-3.2406,-3.2406,-3.2319,-3.2179,-3.2179,-3.1951,-3.1445,-3.0127,-2.9385,0.0,0.0,0.0,0.0,0.0,0.0,0.0,0.0,-2.6213,-2.6369,-2.7134,-2.7478,-2.76,-2.7689,-2.7836,-2.8315,-2.9994,-3.0451,-3.0764,-3.2168,-3.2438,-3.2318,-3.2318,-3.2353,-3.2438,-3.2719,-3.2948,-3.3244,-3.3587,-3.3842,-3.3907,-3.3576,-3.3351,-3.2857,-3.1871,-3.0768,-2.9738,-2.8896,-2.7587,-2.6505,-2.5872,-2.4814,-2.3872,-2.3264,-2.2212,-2.1443,-2.1048,-2.016,-1.9623,-1.9555,-1.9128,-1.8825,-1.866,-1.8506,-1.86,-1.8967,-1.864,-1.8376,-1.8153,-1.7906,-1.7887,-1.8037,-1.7975,-1.8246,-1.8683,-1.8548,-1.8403,-1.8226,-1.7421,-1.6637,-1.5881,-1.5525,-1.5074,-1.4569,0.0,0.0,0.0,0.0,0.0,0.0,0.0,0.0,0.0,0.0,0.0,0.0,0.0,0.0,0.0,0.0,0.0,0.0,0.0,-2.4079,-2.3693,-2.3845,-2.3823,-2.3896,-2.4017,-2.4984,-2.5695,-2.6137,-2.6956,-2.8126,-2.9706,-2.9983,-3.0806,-3.2036,-3.2087,-3.2053,-3.195,-3.1653,-3.1514,-3.1341,-3.0016,-2.9478,0.0,0.0,0.0,0.0,0.0,0.0,0.0,0.0,-2.7478,-2.7509,-2.7569,-2.7689,-2.7836,-2.7933,-2.8269,-2.8917,-3.0422,-3.1038,-3.1498,-3.2624,-3.2407,-3.1832,-3.1626,-3.1854,-3.2197,-3.2437,-3.2588,-3.2787,-3.3166,-3.3148,-3.2981,-3.2551,-3.2395,-3.1834,-3.0439,-2.9603,-2.8708,-2.7643,-2.6505,-2.5575,-2.5036,-2.3905,-2.2982,-2.2483,-2.1359,-2.0554,-2.0268,-1.9588,-1.9198,-1.9115,-1.8999,-1.8878,-1.8752,-1.8619,-1.8423,-1.8218,-1.7927,-1.7658,-1.7384,-1.7117,-1.7129,-1.7354,-1.7246,-1.7532,-1.8071,-1.7905,-1.7817,-1.7661,-1.6734,-1.6145,-1.5748,-1.539,-1.4937,-1.4477,0.0,0.0,0.0,0.0,0.0,0.0,0.0,0.0,0.0,0.0,0.0,0.0,0.0,0.0,0.0,0.0,0.0,0.0,-2.6015,-2.5264,-2.4744,-2.4619,-2.4413,-2.4177,-2.3902,-2.4345,-2.5002,-2.5815,-2.6724,-2.7736,-2.8819,-2.9748,-3.0568,-3.1291,-3.1441,-3.1491,-3.1437,-3.0497,-3.0082,-3.0029,-2.9303,-2.8986,-2.8946,0.0,0.0,0.0,0.0,0.0,0.0,0.0,-2.7701,-2.773,-2.7789,-2.7893,-2.8025,-2.8246,-2.8972,-2.9934,-3.102,-3.1948,-3.276,-3.3437,-3.2288,-3.0874,-3.0331,-3.1069,-3.1914,-3.1986,-3.1915,-3.1941,-3.2151,-3.1754,-3.1403,-3.1384,-3.0937,-3.0278,-2.9405,-2.8706,-2.7662,-2.6003,-2.578,-2.5092,-2.337,-2.3184,-2.2516,-2.0919,-2.0738,-2.0341,-1.9538,-1.9372,-1.9277,-1.92,-1.9069,-1.8949,-1.8878,-1.8694,-1.8502,-1.829,-1.8095,-1.7789,-1.7384,-1.7117,-1.6841,-1.6628,-1.7001,-1.7015,-1.674,-1.7071,-1.695,-1.652,-1.5924,-1.5738,-1.5736,-1.5232,-1.4789,-1.4326,0.0,0.0,0.0,0.0,0.0,0.0,0.0,0.0,0.0,0.0,0.0,0.0,0.0,0.0,0.0,0.0,0.0,0.0,-2.6981,-2.6095,-2.5505,-2.5366,-2.4941,-2.4595,-2.4325,-2.4645,-2.5267,-2.6229,-2.6774,-2.769,-2.8881,-2.9202,-2.9792,-3.0596,-3.069,-3.0721,-3.0703,-3.0485,-3.0409,-3.038,-2.9597,-2.9333,-2.9357,0.0,0.0,0.0,0.0,0.0,0.0,0.0,0.0,0.0,-2.8146,-2.8219,-2.8327,-2.8594,-2.9314,-3.0301,-3.1429,-3.2437,-3.3297,-3.3885,-3.3281,-3.2217,-3.0979,-3.0542,-3.0581,-3.1185,-3.1073,-3.0939,-3.1217,-3.1238,-3.1049,-3.0626,-3.0037,-2.9336,-2.8507,-2.7288,-2.6284,-2.5782,-2.4685,-2.3758,-2.3258,-2.2182,-2.1309,-2.0845,-2.0218,-1.9748,-1.9501,-1.9372,-1.9002,-1.838,-1.8268,-1.8171,-1.8055,-1.7861,-1.7942,-1.829,-1.8095,-1.7811,-1.7462,-1.7199,-1.6901,-1.6612,-1.6533,-1.6574,-1.6695,-1.6593,-1.6363,-1.5962,-1.5389,-1.5171,-1.5155,-1.4612,-1.4339,-1.4176,0.0,0.0,0.0,0.0,0.0,0.0,0.0,0.0,0.0,0.0,0.0,0.0,0.0,0.0,0.0,0.0,0.0,0.0,0.0,0.0,-2.6898,-2.6667,-2.6134,-2.5535,-2.4861,-2.5111,-2.5579,-2.6247,-2.6707,-2.7469,-2.8421,-2.8935,-2.9461,-2.9982,-3.0083,-3.0123,-3.0105,-2.9868,-2.9826,-2.9827,-2.9403,-2.9308,-2.9312,0.0,0.0,0.0,0.0,0.0,0.0,0.0,0.0,0.0,-2.8543,-2.8569,-2.8669,-2.885,-2.9871,-3.108,-3.1882,-3.3101,-3.4236,-3.4552,-3.3785,-3.2332,-2.9945,-2.9425,-2.9491,-2.9632,-2.9755,-2.9959,-3.0294,-2.9962,-2.9562,-2.9216,-2.8625,-2.7922,-2.7132,-2.6247,-2.5466,-2.4833,-2.3849,-2.2994,-2.234,-2.141,-2.0703,-2.0354,-1.9838,-1.9402,-1.9031,-1.8919,-1.8463,-1.7589,-1.7478,-1.7372,-1.7263,-1.7096,-1.717,-1.746,-1.7573,-1.7441,-1.7138,-1.7116,-1.6926,-1.6607,-1.6234,-1.6082,-1.6079,-1.574,-1.5502,-1.5303,-1.4764,-1.4565,-1.4618,-1.4216,-1.4005,-1.379,0.0,0.0,0.0,0.0,0.0,0.0,0.0,0.0,0.0,0.0,0.0,0.0,0.0,0.0,0.0,0.0,0.0,0.0,0.0,0.0,-2.8595,-2.8244,-2.7691,-2.6837,-2.5648,-2.5836,-2.602,-2.6147,-2.669,-2.7224,-2.7777,-2.8827,-2.9336,-2.943,-2.9566,-2.962,-2.9592,-2.8978,-2.8743,-2.8767,-2.8957,-2.9052,-2.9064,-2.9275,0.0,0.0,0.0,0.0,0.0,0.0,0.0,0.0,-2.8962,-2.9003,-2.9052,-2.9126,-3.0532,-3.2088,-3.2362,-3.3868,-3.5325,-3.5321,-3.3918,-3.1561,-2.8017,-2.7994,-2.8521,-2.7654,-2.8162,-2.8877,-2.9211,-2.824,-2.7404,-2.7497,-2.7001,-2.6316,-2.5503,-2.5449,-2.4926,-2.3361,-2.3119,-2.2517,-2.1036,-2.0826,-2.0457,-1.967,-1.954,-1.9141,-1.8331,-1.8167,-1.7693,-1.6826,-1.667,-1.6552,-1.6484,-1.6362,-1.6267,-1.6203,-1.6666,-1.6758,-1.6526,-1.6934,-1.6935,-1.6617,-1.6052,-1.5566,-1.5147,-1.4704,-1.4539,-1.459,-1.4105,-1.3962,-1.4014,-1.3944,-1.3663,-1.3271,0.0,0.0,0.0,0.0,0.0,0.0,0.0,0.0,0.0,0.0,0.0,0.0,0.0,0.0,0.0,0.0,0.0,0.0,0.0,0.0,-2.9704,-2.9382,-2.8587,-2.7861,-2.7211,-2.7156,-2.7155,-2.7181,-2.7209,-2.7517,-2.8091,-2.8452,-2.8729,-2.8891,-2.8966,-2.9016,-2.9071,-2.9025,-2.9048,-2.9101,-2.9249,-2.9414,-2.9551,-2.9662,-2.9731,0.0,0.0,0.0,0.0,0.0,0.0,0.0,-2.9378,-2.9338,-2.9338,-2.9514,-3.0829,-3.2313,-3.268,-3.4135,-3.5553,-3.5599,-3.3689,-3.1113,-2.8419,-2.7768,-2.751,-2.6746,-2.6783,-2.7063,-2.7477,-2.6957,-2.6545,-2.6702,-2.6195,-2.5504,-2.4745,-2.4148,-2.3436,-2.2476,-2.1801,-2.1278,-2.0938,-2.0321,-1.9873,-1.9692,-1.9031,-1.8546,-1.8308,-1.7644,-1.6859,-1.5986,-1.589,-1.5778,-1.5666,-1.5565,-1.5764,-1.6202,-1.6149,-1.6014,-1.5849,-1.6818,-1.6935,-1.6367,-1.5983,-1.5566,-1.5147,-1.4704,-1.4341,-1.4025,-1.3512,-1.3386,-1.3421,-1.2862,-1.286,-1.3038,0.0,0.0,0.0,0.0,0.0,0.0,0.0,0.0,0.0,0.0,0.0,0.0,0.0,0.0,0.0,0.0,0.0,0.0,0.0,0.0,0.0,-2.9993,-2.944,-2.8836,-2.824,-2.8252,-2.8145,-2.7882,-2.803,-2.8236,-2.8438,-2.8601,-2.8749,-2.8897,-2.8962,-2.9007,-2.9052,-2.9225,-2.933,-2.9394,-2.9532,-2.9942,-3.0492,-3.0582,-3.0916,-3.1345,-3.1398,0.0,0.0,0.0,0.0,0.0,0.0,0.0,-3.024,-2.995,-3.0826,-3.1993,-3.2256,-3.3664,-3.5056,-3.4956,-3.3571,-3.1533,-2.8851,-2.7911,-2.7246,-2.6065,-2.6191,-2.6503,-2.6488,-2.6027,-2.5605,-2.5387,-2.4799,-2.408,-2.3353,-2.2936,-2.2439,-2.1676,-2.1204,-2.0806,-2.0407,-1.9988,-1.9563,-1.9151,-1.8696,-1.8074,-1.7206,-1.6719,-1.6048,-1.5159,-1.5068,-1.4981,-1.4864,-1.4787,-1.487,-1.5141,-1.5331,-1.5431,-1.5496,-1.619,-1.6278,-1.5767,-1.579,-1.5522,-1.5058,-1.4672,-1.4227,-1.3695,-1.3267,-1.2973,-1.2714,-1.2385,-1.2272,-1.2261,0.0,0.0,0.0,0.0,0.0,0.0,0.0,0.0,0.0,0.0,0.0,0.0,0.0,0.0,0.0,0.0,0.0,0.0,0.0,0.0,0.0,0.0,-3.0173,-2.974,-2.9113,-2.9227,-2.9079,-2.8614,-2.8966,-2.9074,-2.8911,-2.9012,-2.9119,-2.9191,-2.9251,-2.9291,-2.9312,-2.9492,-2.9663,-2.987,-3.003,-3.0668,-3.1569,-3.1711,-3.2249,-3.2941,-3.3005,-3.3035,-3.3035,-3.2965,0.0,0.0,0.0,0.0,-3.1192,-3.0285,-3.0739,-3.1539,-3.1661,-3.2967,-3.422,-3.3983,-3.3311,-3.2012,-2.9471,-2.8341,-2.738,-2.5772,-2.5876,-2.6136,-2.5804,-2.5177,-2.4538,-2.4001,-2.3345,-2.265,-2.1916,-2.1865,-2.1639,-2.0902,-2.0802,-2.0552,-1.9875,-1.983,-1.9468,-1.8582,-1.8383,-1.7611,-1.6004,-1.5774,-1.5318,-1.453,-1.4462,-1.4387,-1.4324,-1.4203,-1.4078,-1.4016,-1.4455,-1.4743,-1.4934,-1.523,-1.5264,-1.5088,-1.5352,-1.5213,-1.4811,-1.4474,-1.4068,-1.3547,-1.3198,-1.2697,-1.2184,-1.208,-1.1768,-1.1429,0.0,0.0,0.0,0.0,0.0,0.0,0.0,0.0,0.0,0.0,0.0,0.0,0.0,0.0,0.0,0.0,0.0,0.0,-3.0697,0.0,0.0,-3.0643,-3.0605,-3.0495,-3.0283,-3.0183,-3.0059,-2.9858,-2.9746,-2.9715,-2.9717,-2.9454,-2.9412,-2.9531,-2.9531,-2.9588,-2.9645,-2.9719,-3.0204,-3.0918,-3.1102,-3.1752,-3.2612,-3.2755,-3.2916,-3.3074,-3.3145,-3.3169,-3.3169,-3.3161,-3.3119,0.0,0.0,0.0,-3.1379,-3.045,-3.0828,-3.1597,-3.1672,-3.2519,-3.3359,-3.3256,-3.2503,-3.1551,-3.0685,-2.9139,-2.7548,-2.6318,-2.5431,-2.4902,-2.5008,-2.3997,-2.3122,-2.3144,-2.2584,-2.1897,-2.1157,-2.1105,-2.0877,-2.0125,-2.0042,-1.9986,-1.9903,-1.9884,-1.9533,-1.8651,-1.7896,-1.7018,-1.603,-1.5274,-1.4783,-1.4585,-1.4515,-1.4459,-1.4398,-1.4317,-1.4177,-1.4009,-1.3787,-1.3582,-1.342,-1.3856,-1.4221,-1.4483,-1.4263,-1.4139,-1.4112,-1.3845,-1.3655,-1.3547,-1.3104,-1.265,-1.2138,-1.1608,-1.1404,-1.1338,0.0,0.0,0.0,0.0,0.0,0.0,0.0,0.0,0.0,0.0,0.0,0.0,0.0,0.0,0.0,-3.0344,-3.0422,-3.053,-3.0642,-3.0633,-3.0633,-3.0648,-3.0648,-3.0611,-3.0564,-3.0414,-3.0317,-3.0213,-3.0045,-2.9969,-3.001,-2.9857,-2.9789,-2.9771,-2.9771,-2.9771,-2.9844,-3.04,-3.0883,-3.1328,-3.1991,-3.2807,-3.366,-3.3746,-3.4129,-3.4625,-3.469,-3.4705,-3.4717,-3.4705,-3.4678,-3.4451,-3.3509,0.0,0.0,0.0,-3.0906,-3.0951,-3.1583,-3.2102,-3.2479,-3.2482,-3.2096,-3.1477,-3.0555,-2.873,-2.7082,-2.6534,-2.4793,-2.3432,-2.3645,-2.3247,-2.2648,-2.1832,-2.1532,-2.1129,-2.0388,-2.0327,-2.0276,-1.9987,-1.996,-1.996,-1.996,-1.9514,-1.8879,-1.7987,-1.7127,-1.625,-1.5376,-1.4961,-1.4743,-1.4654,-1.4549,-1.4469,-1.4405,-1.4324,-1.4181,-1.3941,-1.3653,-1.3379,-1.3157,-1.3252,-1.3471,-1.3797,-1.3867,-1.3753,-1.3529,-1.3206,-1.3078,-1.3019,-1.2622,-1.2269,-1.1982,-1.1431,-1.1068,-1.0775,0.0,0.0,0.0,0.0,0.0,0.0,0.0,0.0,0.0,0.0,0.0,0.0,0.0,0.0,0.0,0.0,-3.034,-3.0419,-3.0549,-3.0557,-3.0554,-3.0552,-3.0554,-3.0528,-3.0521,-3.0419,-3.0328,-3.0279,-3.018,-3.0142,-3.0132,-3.0132,-3.0068,-2.9988,-2.9956,-3.007,-3.0333,-3.102,-3.163,-3.2168,-3.3158,-3.4122,-3.4979,-3.5261,-3.5814,-3.646,-3.6515,-3.6551,-3.6528,-3.6303,-3.6183,-3.593,-3.4775,-3.3761,0.0,0.0,0.0,-3.0362,-3.1196,-3.1475,-3.1555,-3.1657,-3.1578,-3.1183,-2.997,-2.8127,-2.6598,-2.6325,-2.4212,-2.2407,-2.2443,-2.241,-2.2035,-2.093,-2.0672,-2.0425,-1.9907,-1.9873,-1.993,-1.9985,-1.9996,-1.992,-1.9701,-1.9113,-1.8278,-1.7188,-1.6489,-1.5744,-1.4869,-1.4813,-1.4764,-1.4703,-1.4592,-1.4497,-1.4398,-1.4293,-1.4127,-1.3888,-1.3655,-1.3412,-1.3192,-1.2979,-1.2951,-1.3059,-1.3305,-1.3257,-1.2915,-1.2593,-1.2446,-1.2392,-1.218,-1.1915,-1.1667,-1.1313,-1.084,-1.0312,0.0,0.0,0.0,0.0,0.0,0.0,0.0,0.0,0.0,0.0,0.0,0.0,-2.9924,-3.0079,-3.0185,-3.0199,-3.0273,-3.0348,-3.041,-3.0406,-3.0417,-3.0402,-3.0417,0.0,-3.0328,-3.0316,-3.0279,-3.0207,-3.0207,-3.0194,-3.0185,-3.0185,-3.0185,-3.0171,-3.0117,-3.0556,-3.1329,-3.1374,-3.2403,-3.4031,-3.4979,-3.592,-3.6868,-3.768,-3.8103,-3.8268,-3.8266,-3.8299,-3.8244,-3.7414,-3.7099,-3.6727,-3.4969,-3.377,-3.2805,0.0,0.0,0.0,-3.0328,-3.0472,-3.0606,-3.073,-3.0718,-3.0348,-2.9139,-2.7682,-2.6368,-2.5535,-2.379,-2.2271,-2.1826,-2.1195,-2.0754,-2.0881,-2.0306,-1.9869,-1.9881,-1.9952,-1.9996,-1.9991,-2.0001,-1.9687,-1.8935,-1.8821,-1.8089,-1.6383,-1.6222,-1.5817,-1.4934,-1.4832,-1.4766,-1.4707,-1.4627,-1.453,-1.4398,-1.4198,-1.403,-1.3888,-1.3684,-1.3461,-1.3176,-1.2998,-1.2716,-1.2349,-1.2167,-1.2156,-1.2231,-1.1955,-1.1829,-1.1844,-1.2031,-1.1702,-1.1159,-1.1194,-1.0802,-1.0244,0.0,0.0,0.0,0.0,0.0,0.0,0.0,0.0,0.0,0.0,0.0,0.0,0.0,-3.1143,-3.0902,-3.0898,-3.0457,-3.0207,-3.0286,-3.0279,-3.0279,-3.0266,-3.0279,-3.0247,-3.0253,-3.0188,-3.0147,-3.0138,-3.0142,-3.0147,-3.0132,-3.0142,-3.0142,-3.0142,-3.0171,-3.0643,-3.1494,-3.2114,-3.307,-3.4307,-3.5785,-3.6624,-3.7061,-3.7926,-3.8326,-3.8397,-3.8408,-3.841,-3.839,-3.8079,-3.7545,-3.6914,-3.6172,-3.4878,-3.333,-3.1667,-3.0585,-2.9956,-3.008,-3.0244,-3.0402,-3.0546,-3.0547,-3.0236,-2.9062,-2.7695,-2.6418,-2.5593,-2.3436,-2.1714,-2.1817,-2.1263,-2.0662,-2.0268,-2.0044,-1.9938,-1.9952,-1.9977,-1.982,-1.9345,-1.9269,-1.8906,-1.8106,-1.7515,-1.6937,-1.6314,-1.5746,-1.5277,-1.4914,-1.4841,-1.4794,-1.4764,-1.4656,-1.4508,-1.4338,-1.4177,-1.403,-1.3888,-1.37,-1.3461,-1.3176,-1.2998,-1.2703,-1.2343,-1.2117,-1.1866,-1.1589,-1.134,-1.1228,-1.1245,-1.1406,-1.1308,-1.1021,-1.0999,-1.0659,-1.0079,0.0,0.0,0.0,0.0,0.0,0.0,0.0,0.0,0.0,0.0,0.0,0.0,0.0,0.0,-3.1697,-3.1727,-3.1245,-3.0837,-3.0581,-3.0547,-3.0414,-3.0147,-3.0113,-3.0113,-3.0113,-3.0064,-3.0015,-3.0015,-3.0019,-3.0038,-3.0072,-3.0068,-3.0079,-3.0109,-3.018,-3.0852,-3.1971,-3.2622,-3.3577,-3.4828,-3.6619,-3.7386,-3.7558,-3.8692,-3.919,-3.9246,-3.9244,-3.9241,-3.9198,-3.8874,-3.816,-3.7317,-3.6863,-3.5187,-3.307,-3.1393,-3.0321,-2.9681,-2.9817,-3.0013,-3.0206,-3.0366,-3.0423,-3.0057,-2.8645,-2.7505,-2.6405,-2.5265,-2.3094,-2.148,-2.1826,-2.1175,-2.042,-1.995,-1.9938,-2.0004,-2.0017,-2.002,-1.9755,-1.8999,-1.8856,-1.8398,-1.7289,-1.6678,-1.6216,-1.5929,-1.5334,-1.4971,-1.4894,-1.485,-1.4813,-1.4773,-1.4614,-1.4439,-1.4263,-1.4136,-1.4002,-1.3841,-1.3653,-1.3428,-1.3158,-1.2979,-1.27,-1.2343,-1.2117,-1.1755,-1.1307,-1.0991,-1.0773,-1.0671,-1.0948,-1.0897,-1.0662,-1.0835,-1.0495,-0.9834,0.0,0.0,0.0,0.0,0.0,0.0,0.0,0.0,0.0,-3.3299,0.0,0.0,0.0,0.0,0.0,-3.2623,-3.2602,-3.2241,-3.1369,-3.1276,-3.0864,-3.0102,-2.9978,-2.9926,-2.9926,-2.9907,-2.9888,-2.9888,-2.9888,-2.994,-2.9988,-3.0007,-3.0019,-3.0094,-3.018,-3.1172,-3.2799,-3.2865,-3.3961,-3.5758,-3.7501,-3.8226,-3.8476,-4.0161,-4.0834,-4.0897,-4.0897,-4.0898,-4.0762,-3.9848,-3.8922,-3.8001,-3.6877,-3.4537,-3.1995,-3.1009,-3.0085,-2.9433,0.0,0.0,0.0,-3.0121,-3.0246,-2.9772,-2.7851,-2.7099,-2.6285,-2.4457,-2.2697,-2.1604,-2.184,-2.0792,-1.9908,-1.9982,-1.9993,-2.0036,-2.0098,-2.0098,-1.9782,-1.8953,-1.8858,-1.8206,-1.6524,-1.6352,-1.6012,-1.5155,-1.5042,-1.4976,-1.4892,-1.4904,-1.4832,-1.4712,-1.4504,-1.4344,-1.4188,-1.4064,-1.3894,-1.3698,-1.3559,-1.3362,-1.3104,-1.2959,-1.2678,-1.2287,-1.2096,-1.1776,-1.1376,-1.0968,-1.0521,-1.0148,-1.076,-1.0582,-1.0058,-1.0657,-1.0331,-0.954,0.0,0.0,0.0,0.0,0.0,0.0,0.0,0.0,0.0,0.0,0.0,0.0,-3.5838,-3.4826,-3.3903,-3.3299,-3.2713,-3.2278,-3.2051,-3.2014,-3.1882,-3.16,-3.1016,-3.0677,-3.0622,0.0,0.0,0.0,0.0,0.0,0.0,0.0,0.0,-2.9953,-3.0123,-3.1164,-3.2809,-3.2917,-3.3993,-3.5758,-3.7501,-3.8226,-3.8476,-4.0161,-4.0812,-4.0823,-4.0823,-4.08,-4.0706,-4.0339,-3.9196,-3.7602,-3.5741,-3.3672,-3.184,-3.1463,-3.029,-2.9115,-2.9212,0.0,0.0,0.0,0.0,0.0,-2.7931,-2.7305,-2.6447,-2.4129,-2.2698,-2.1726,-2.1254,-2.0477,-1.9922,-1.999,-2.0049,-2.0079,-2.0108,-2.0144,-1.9643,-1.821,-1.803,-1.7351,-1.5625,-1.5452,-1.5348,0.0,-1.5015,-1.4976,-1.4894,-1.4804,-1.4707,-1.464,-1.4481,-1.4338,-1.4211,-1.4068,-1.3894,-1.3698,-1.3559,-1.3362,-1.3104,-1.2959,-1.2713,-1.2363,-1.2117,-1.1776,-1.1376,-1.0968,-1.0496,-1.0084,-1.0654,-1.0466,-0.9959,-1.0389,-1.0137,-0.95,0.0,0.0,0.0,0.0,0.0,0.0,0.0,0.0,0.0,0.0,0.0,0.0,-3.719,-3.6387,-3.5635,-3.5126,-3.4655,-3.407,-3.3353,-3.3277,-3.2917,-3.2161,-3.1652,-3.1349,-3.1308,0.0,0.0,0.0,0.0,0.0,0.0,0.0,0.0,0.0,-3.0083,-3.114,-3.2766,-3.291,-3.3949,-3.5714,-3.7469,-3.8182,-3.84,-4.0082,-4.0726,-4.0713,-4.0713,-4.0673,-4.0492,-4.0027,-3.8582,-3.6616,-3.4572,-3.2858,-3.1486,-3.0987,-2.9875,-2.8791,-2.885,-2.8906,-2.903,-2.9305,0.0,0.0,-2.7589,-2.6954,-2.6,-2.3818,-2.2649,-2.1801,-2.105,-2.0358,-1.9911,-1.9998,-2.0069,-2.0098,-2.0144,-2.0171,-1.9707,-1.8405,-1.7917,-1.7154,-1.5786,-1.5299,-1.508,-1.503,-1.5015,-1.4968,-1.4895,-1.4766,-1.4666,-1.46,-1.4446,-1.4282,-1.4154,-1.4026,-1.3853,-1.3667,-1.3528,-1.3329,-1.3103,-1.2904,-1.2659,-1.2343,-1.2054,-1.1696,-1.1285,-1.0873,-1.0422,-1.0058,-1.0534,-1.0339,-0.9837,-1.0213,-0.9952,-0.9239,0.0,0.0,0.0,0.0,0.0,0.0,0.0,0.0,0.0,0.0,-3.7384,-3.7573,-3.7713,-3.7725,-3.7653,-3.7558,-3.7464,-3.6685,-3.5058,-3.4808,-3.4011,-3.2446,-3.2154,-3.1994,-3.1994,-3.1834,0.0,0.0,0.0,0.0,0.0,0.0,0.0,0.0,0.0,-3.118,-3.2821,-3.2976,-3.3961,-3.5624,-3.7392,-3.8099,-3.8273,-3.997,-4.0598,-4.0573,-4.0592,-4.0434,-4.0068,-3.8988,-3.7356,-3.5421,-3.3543,-3.2158,-3.1068,-3.0041,-2.9132,-2.8414,-2.8414,-2.8412,-2.8485,-2.8745,-2.8341,0.0,-2.6972,-2.6242,-2.5213,-2.3398,-2.2511,-2.1782,-2.091,-2.0264,-1.9884,-1.9971,-2.0029,-2.0098,-2.018,-2.0208,-1.9898,-1.9092,-1.829,-1.75,-1.6615,-1.5828,-1.5367,-1.5376,-1.5205,-1.5047,-1.4896,-1.4756,-1.4656,-1.4589,-1.4399,-1.4245,-1.4096,-1.3955,-1.3811,-1.3605,-1.3462,-1.3294,-1.3084,-1.2813,-1.2565,-1.2246,-1.1955,-1.1564,-1.1155,-1.0753,-1.0361,-1.0032,-1.0433,-1.021,-0.9636,-1.0111,-0.9734,-0.8935,0.0,0.0,0.0,0.0,0.0,0.0,0.0,0.0,0.0,-3.888,-3.9595,-4.0328,-4.0985,-4.0503,-3.9846,-3.9114,-3.8421,-3.7572,-3.6545,-3.5805,-3.523,-3.4822,-3.3449,-3.2673,-3.2625,-3.1906,0.0,0.0,0.0,0.0,0.0,0.0,0.0,0.0,0.0,-3.1889,-3.3584,-3.3738,-3.4404,-3.5494,-3.7357,-3.8059,-3.8213,-3.9947,-4.0539,-4.0441,-4.0427,-3.9902,-3.8898,-3.7005,-3.5918,-3.5064,-3.3132,-3.1765,-3.0712,-2.9753,-2.8752,-2.7933,-2.7933,-2.7943,-2.7992,-2.8139,-2.7677,0.0,-2.6395,-2.5719,-2.4592,-2.2373,-2.1838,-2.1371,-2.0018,-1.9716,-1.9707,-1.9811,-1.9892,-1.9979,-2.0098,-2.0162,-1.989,-1.9027,-1.8778,-1.8313,-1.745,-1.7213,-1.7093,-1.7034,-1.6318,-1.5565,-1.4869,-1.4687,-1.4592,-1.4511,-1.4381,-1.4242,-1.4109,-1.3959,-1.3811,-1.3605,-1.3462,-1.3277,-1.3013,-1.2813,-1.2491,-1.2128,-1.1897,-1.1541,-1.1085,-1.0681,-1.0236,-0.9888,-1.0402,-1.0167,-0.9548,-0.9923,-0.9616,-0.8895,0.0,0.0,0.0,0.0,0.0,0.0,0.0,0.0,0.0,-3.9908,-4.0726,-4.1461,-4.1908,-4.1563,-4.1116,-4.0697,-3.9874,-3.8999,-3.8055,-3.721,-3.6519,-3.6025,-3.5069,-3.4344,-3.3905,-3.3395,-3.2782,0.0,0.0,0.0,0.0,0.0,0.0,0.0,-3.1563,-3.2429,-3.3748,-3.387,-3.441,-3.5369,-3.6776,-3.7324,-3.744,-3.8712,-3.9144,-3.9059,-3.9009,-3.8271,-3.7116,-3.5914,-3.4754,-3.3532,-3.2001,-3.0761,-2.9692,-2.8641,-2.7922,-2.7413,-2.7321,-2.7272,-2.7272,-2.7396,-2.6621,0.0,0.0,-2.4777,-2.3522,-2.1648,-2.133,-2.0953,-1.952,-1.9361,-1.949,-1.9636,-1.9707,-1.9804,-1.9934,-2.003,-1.9954,-1.9551,-1.9103,-1.8684,-1.8239,-1.7803,-1.7519,-1.7454,-1.6611,-1.5883,-1.5372,-1.4868,-1.4549,-1.4453,-1.4331,-1.419,-1.404,-1.3883,-1.3717,-1.3543,-1.3379,-1.3174,-1.2942,-1.2716,-1.2427,-1.2086,-1.1783,-1.1407,-1.0968,-1.0521,-1.0046,-0.9613,-0.9944,-0.9755,-0.9325,-0.9459,-0.9168,-0.861,-3.2126,0.0,0.0,0.0,0.0,0.0,0.0,0.0,0.0,-4.0896,-4.1726,-4.2371,-4.2576,-4.2539,-4.2426,-4.223,-4.1484,-4.0589,-3.9593,-3.8619,-3.7748,-3.6952,-3.647,-3.5889,-3.5219,-3.4911,-3.416,0.0,0.0,0.0,0.0,0.0,0.0,-3.2079,-3.2287,-3.2957,-3.3904,-3.3976,-3.4463,-3.5234,-3.6004,-3.6415,-3.6664,-3.7472,-3.7728,-3.7621,-3.7357,-3.6451,-3.5343,-3.4884,-3.3513,-3.1773,-3.0621,-2.9591,-2.8623,-2.7497,-2.7051,-2.6873,-2.6708,-2.6573,-2.6505,-2.6472,-2.5469,-2.4522,0.0,0.0,0.0,-2.1223,-2.0972,-2.0586,-1.9327,-1.9155,-1.9225,-1.938,-1.9462,-1.9577,-1.9694,-1.9835,-1.992,-2.0021,-1.9421,-1.8992,-1.8982,-1.8364,-1.7859,-1.7616,-1.6935,-1.6421,-1.6127,-1.5288,-1.4743,-1.4624,-1.4335,-1.415,-1.3998,-1.3789,-1.362,-1.3496,-1.3278,-1.307,-1.2871,-1.26,-1.2323,-1.2024,-1.1652,-1.1262,-1.0825,-1.0373,-0.9855,-0.9375,-0.9464,-0.9309,-0.9077,-0.8994,-0.8682,-0.8283,-3.2214,-3.3172,0.0,0.0,0.0,0.0,0.0,0.0,0.0,-4.2404,-4.3442,-4.4304,-4.4995,-4.5069,-4.471,-4.3831,-4.3014,-4.2106,-4.1139,-3.9582,-3.8608,-3.8462,-3.6941,-3.6047,-3.5884,-3.5102,-3.4648,-3.4524,0.0,0.0,0.0,0.0,0.0,-3.2717,-3.2974,-3.3639,-3.4597,-3.4718,-3.4869,-3.5038,-3.5205,-3.577,-3.6585,-3.7424,-3.7622,-3.7395,-3.6373,-3.53,-3.421,-3.3099,-3.1865,-3.0586,-2.9395,-2.8676,-2.8078,-2.7062,-2.6488,-2.621,-2.621,-2.5997,-2.5721,-2.5223,-2.4397,-2.3654,-2.3399,0.0,-2.2038,-2.1396,0.0,-2.0296,-1.9653,0.0,0.0,-1.9031,-1.9148,-1.9292,-1.9423,-1.9467,-1.9559,-1.979,-1.9738,-1.9688,-1.9691,-1.9599,-1.9194,-1.8354,-1.8186,-1.7783,-1.6929,-1.6054,-1.5508,-1.5387,-1.4611,-1.415,-1.3998,-1.3789,-1.362,-1.3496,-1.3244,-1.3015,-1.2794,-1.2522,-1.22,-1.1811,-1.1601,-1.1215,-1.0681,-1.0273,-0.979,-0.9333,-0.9388,-0.9256,-0.8984,-0.8785,-0.8526,-0.8103,-3.2914,-3.3578,0.0,0.0,0.0,0.0,0.0,0.0,0.0,-4.4097,-4.4668,-4.5208,-4.6072,-4.6033,-4.5602,-4.4721,-4.386,-4.295,-4.1944,-4.0772,-3.9863,-3.9228,-3.8474,-3.7608,-3.6585,-3.6146,-3.548,-3.4509,-3.4135,0.0,0.0,0.0,0.0,-3.3449,-3.3647,-3.4045,-3.4583,-3.4689,-3.4791,-3.4889,-3.4927,-3.487,-3.4925,-3.5741,-3.5647,-3.4917,-3.3858,-3.3064,-3.2415,-3.1719,-3.0661,-2.9538,-2.8694,-2.7891,-2.7029,-2.6,-2.5438,-2.502,-2.4544,-2.4216,-2.3951,-2.3754,-2.3112,-2.2535,-2.2492,-2.2,-2.1431,-2.0888,0.0,0.0,0.0,0.0,0.0,0.0,-1.8753,-1.8913,-1.9099,-1.9113,-1.9237,-1.9593,-1.9632,-1.9625,-1.9636,-1.9582,-1.9411,-1.9008,-1.855,-1.8084,-1.7624,-1.6748,-1.6214,-1.6066,-1.5243,-1.4686,-1.452,-1.3894,-1.3494,-1.3329,-1.3087,-1.2871,-1.2665,-1.2372,-1.2081,-1.1783,-1.1429,-1.1015,-1.0548,-1.0085,-0.9528,-0.8987,-0.8699,-0.8631,-0.8662,-0.8236,-0.7996,-0.7821,-3.4018,-3.4429,-3.5129,-3.6528,0.0,0.0,0.0,0.0,-4.3786,-4.5119,-4.5626,-4.6127,-4.6735,-4.6691,-4.6289,-4.546,-4.4546,-4.3652,-4.2656,-4.1815,-4.1001,-4.0211,-3.9724,-3.886,-3.76,-3.7063,-3.6077,-3.4645,0.0,0.0,0.0,0.0,0.0,0.0,-3.3998,-3.4197,-3.4427,-3.4539,-3.4536,-3.4431,-3.4432,-3.3941,-3.3261,-3.3904,-3.3614,-3.2783,-3.1968,-3.1341,-3.0808,-3.0448,-2.9414,0.0,-2.7631,-2.6707,-2.5597,-2.4775,-2.4259,-2.3823,-2.3191,-2.2864,-2.2577,-2.2426,-2.1987,-2.1584,-2.1534,-2.1193,-2.0847,-2.0568,-1.9874,0.0,0.0,0.0,-1.8005,-1.8194,0.0,-1.8529,-1.8698,-1.8753,-1.8912,-1.9328,-1.9372,-1.9357,-1.9365,-1.9335,-1.9323,-1.9314,-1.8779,-1.8389,-1.8245,-1.7439,-1.6913,-1.6772,-1.5926,-1.5375,-1.5176,-1.4263,-1.3701,-1.3494,-1.3079,-1.2759,-1.2549,-1.2231,-1.194,-1.1696,-1.127,-1.0825,-1.0386,-0.9854,-0.9289,-0.8679,-0.8135,-0.8079,-0.8279,-0.7736,-0.7532,-0.7496,-3.5444,-3.5947,-3.6328,-3.666,-3.8212,0.0,0.0,-4.3793,-4.4949,-4.5004,-4.6352,-4.7331,-4.7385,-4.735,-4.7,-4.6155,-4.522,-4.4306,-4.3429,-4.2484,-4.1868,-4.1651,-4.0148,-3.921,-3.9031,-3.7503,-3.6299,-3.5472,0.0,0.0,0.0,0.0,0.0,0.0,-3.3895,-3.4074,-3.4221,-3.4495,-3.4151,-3.3458,-3.3523,-3.2975,-3.2142,-3.2178,-3.2054,-3.1823,-3.1513,-3.0702,0.0,-2.9294,-2.7924,0.0,0.0,0.0,-2.3902,-2.3479,-2.3127,-2.2818,-2.2666,-2.2421,-2.2049,-2.1406,-2.1133,-2.0883,-2.0373,-2.0224,-2.0345,-2.0714,-1.9735,-1.8914,-1.9135,-1.8277,-1.7595,-1.7772,-1.7997,0.0,0.0,-1.8368,-1.8565,-1.8981,-1.9031,-1.9031,-1.9014,-1.9064,-1.9117,-1.9104,-1.9082,-1.8995,-1.8877,-1.8106,-1.7609,-1.7471,-1.6606,-1.6063,-1.5885,-1.5001,-1.4447,-1.4264,-1.327,-1.2697,-1.2479,-1.2159,-1.182,-1.1489,-1.1155,-1.0691,-1.0185,-0.9699,-0.9155,-0.8533,-0.7945,-0.7797,-0.786,-0.7479,-0.728,-0.714,-3.5601,-3.6732,-3.7727,-3.8097,-3.8832,-4.0031,-4.2029,-4.38,-4.5102,-4.5725,-4.6722,-4.759,-4.8125,-4.7592,-4.6893,-4.6048,-4.5059,-4.4145,-4.3269,-4.2814,-4.2304,-4.1667,-4.0509,-3.9589,-3.8938,-3.7864,-3.6595,-3.5154,-3.4887,0.0,0.0,0.0,0.0,0.0,-3.23,-3.2562,-3.3284,-3.3469,-3.3452,-3.3181,-3.2137,-3.1478,-3.1113,-3.1152,-3.1049,-3.0757,-2.9923,-2.8916,0.0,-2.7515,-2.6429,-2.5167,-2.4673,-2.405,-2.3335,-2.2591,-2.2079,0.0,0.0,0.0,-2.0466,-2.0219,-2.01,-2.0025,-1.9858,-1.9833,-1.996,-2.0235,-1.9242,-1.8438,-1.8797,-1.7894,-1.7183,-1.7415,-1.7641,-1.7822,0.0,-1.8035,-1.8082,-1.8191,-1.8471,-1.8679,-1.8662,-1.8699,-1.8717,-1.877,-1.8771,-1.8752,-1.8714,-1.8447,-1.8231,-1.8116,-1.7251,-1.6737,-1.6564,-1.5617,-1.5031,-1.4813,-1.3848,-1.3302,-1.3057,-1.2253,-1.1718,-1.1466,-1.0991,-1.0545,-1.0084,-0.9581,-0.9019,-0.841,-0.7792,-0.7562,-0.7523,-0.7057,-0.6979,-0.693,-3.6324,-3.7404,-3.8351,-3.8792,-3.959,-4.0725,-4.2388,-4.3793,-4.4966,-4.5864,-4.6415,-4.7095,-4.7849,-4.715,-4.6231,-4.5425,-4.4766,-4.3997,-4.3104,-4.2918,-4.2569,-4.1929,-4.0773,-3.9815,-3.918,-3.8073,-3.6683,-3.4995,-3.4995,-3.425,0.0,0.0,0.0,0.0,-3.1438,-3.1583,-3.2305,-3.2469,-3.2395,-3.2113,-3.0791,-3.0209,-3.0068,-2.9749,-2.9533,-2.9301,0.0,-2.7461,-2.6454,-2.6083,-2.519,-2.4126,-2.3697,-2.3063,-2.2355,-2.1634,-2.1148,-2.0691,-1.9828,-1.9471,0.0,-1.8901,-1.8771,0.0,-1.8735,-1.8791,-1.8882,-1.9071,-1.8316,-1.7776,-1.8392,-1.7732,-1.7289,-1.7756,-1.7823,-1.7771,0.0,-1.7618,-1.7658,-1.7589,-1.8014,-1.8287,-1.8293,-1.8316,-1.8356,-1.8413,-1.845,-1.8467,-1.8463,-1.8465,-1.8406,-1.8284,-1.7734,-1.7353,-1.7228,-1.6252,-1.5674,-1.5479,-1.4487,-1.3785,-1.3299,-1.25,-1.1837,-1.133,-1.0825,-1.0386,-0.9919,-0.9343,-0.8773,-0.8156,-0.7559,-0.7306,-0.7201,-0.6768,-0.6559,-0.6343,-3.76,-3.8,-3.8355,-3.8874,-4.0525,-4.2068,-4.3051,-4.3871,-4.4673,-4.5439,-4.5585,-4.5895,-4.6661,-4.6022,-4.5238,-4.4454,-4.4269,-4.383,-4.2882,-4.275,-4.2595,-4.2396,-4.0814,-3.9857,-3.9722,-3.8114,-3.6535,-3.4995,-3.4995,-3.4146,0.0,0.0,0.0,0.0,-3.1202,-3.1089,-3.1329,-3.1476,-3.1127,-3.0431,-2.9617,-2.924,-2.9064,-2.8058,-2.762,-2.7492,-2.7229,-2.6407,-2.5394,-2.5027,-2.4154,-2.316,-2.2762,-2.1923,-2.099,-2.0581,-2.0261,-1.9847,-1.8906,-1.8574,-1.8357,-1.7562,-1.7282,0.0,0.0,0.0,-1.7233,-1.7438,-1.705,-1.6969,-1.7913,-1.7804,-1.7833,-1.8643,-1.8467,-1.8003,-1.7363,-1.7265,-1.7281,-1.7265,-1.7633,-1.7873,-1.7861,-1.7915,-1.7984,-1.8069,-1.8163,-1.8218,-1.8218,-1.8218,-1.8194,-1.8143,-1.8044,-1.7917,-1.7789,-1.6887,-1.6375,-1.621,-1.5158,-1.4146,-1.3228,-1.2847,-1.2118,-1.1085,-1.0656,-1.0186,-0.9658,-0.9035,-0.8456,-0.784,-0.7244,-0.6999,-0.692,-0.6548,-0.6028,-0.5404,-3.7465,-3.8789,-4.0134,-4.1207,-4.1995,-4.2607,-4.2939,-4.374,-4.4416,-4.4673,-4.522,-4.5676,-4.5895,-4.5069,-4.439,-4.4191,-4.3475,-4.2691,-4.1841,-4.1728,-4.136,-4.067,-3.9572,-3.8866,-3.8709,-3.7697,-3.6368,-3.4761,-3.4761,-3.3688,-3.1606,0.0,0.0,0.0,-2.944,-2.9588,-3.0287,-3.0436,-3.0404,-3.0212,-2.9466,-2.9044,-2.879,0.0,-2.7019,-2.6387,-2.6154,-2.5409,-2.4471,-2.4091,-2.318,-2.2212,-2.1849,-2.1343,-2.0716,-1.9903,-1.9467,-1.9027,-1.8115,-1.7818,-1.7607,-1.7277,-1.7132,-1.7098,0.0,0.0,0.0,0.0,0.0,0.0,-1.7693,-1.7563,-1.757,-1.8389,-1.8596,-1.855,-1.8273,-1.8241,-1.8197,-1.8098,-1.7864,-1.761,-1.7465,-1.7509,-1.7579,-1.7647,-1.8262,-1.8646,-1.8646,0.0,-1.871,-1.8704,-1.8099,-1.771,-1.7572,-1.7202,-1.6865,-1.6618,-1.5659,-1.4698,-1.3755,-1.2891,-1.1961,-1.1062,-1.0572,-1.0097,-0.9658,-0.9035,-0.8456,-0.787,-0.7525,-0.6993,-0.6454,-0.6316,-0.5857,-0.5285,-3.7861,-3.9565,-4.1147,-4.1864,-4.2264,-4.2508,-4.2747,-4.3222,-4.3715,-4.4098,-4.4225,-4.4406,-4.4769,-4.3656,-4.293,-4.293,-4.2111,-4.1348,-4.0823,-4.0766,-4.0453,-3.9872,-3.8933,-3.8408,-3.8267,-3.7396,-3.6176,-3.4576,-3.4576,-3.358,-3.1651,0.0,0.0,0.0,-2.8819,-2.8719,-2.9315,-2.9441,-2.9515,-2.9527,-2.9093,-2.8615,0.0,-2.7133,-2.6195,-2.5283,-2.4686,-2.4077,-2.3476,-2.3078,-2.2437,-2.1708,-2.1355,-2.0799,-2.0112,-1.9477,-1.8875,-1.8248,-1.7379,-1.7008,-1.6819,-1.638,-1.6211,-1.6113,-1.6094,-1.6061,-1.6127,0.0,-1.6082,-1.6195,0.0,-1.744,-1.7777,-1.8624,-1.8858,-1.8781,-1.8408,-1.83,-1.8254,-1.8192,-1.7915,-1.7566,-1.7205,-1.718,-1.7199,-1.7272,-1.8087,-1.8593,0.0,0.0,-1.9069,-1.875,-1.8267,-1.7812,-1.7368,-1.7232,-1.7034,-1.6747,-1.6124,-1.5181,-1.393,-1.3203,-1.2162,-1.0897,-1.0411,-0.9957,-0.9514,-0.8926,-0.8344,-0.7773,-0.7296,-0.6717,-0.6142,-0.5958,-0.5583,-0.5116,-3.867,-4.0321,-4.156,-4.1604,-4.1797,-4.2072,-4.245,-4.253,-4.2821,-4.3562,-4.2951,-4.2717,-4.3418,-4.216,-4.1223,-4.1223,-4.0612,-4.0105,-3.9807,-3.9807,-3.9658,-3.9279,-3.8563,-3.8108,-3.8023,-3.7114,-3.5893,-3.4387,-3.4283,-3.3467,0.0,0.0,0.0,-3.0135,-2.8785,-2.8273,-2.8466,-2.8619,-2.8669,-2.8644,-2.8644,-2.8098,-2.7162,-2.6265,-2.533,-2.4332,-2.3231,-2.2764,-2.2615,-2.2226,-2.1803,-2.1411,-2.1054,-2.0226,-1.9311,-1.8927,-1.8273,-1.746,-1.657,-1.6252,-1.601,-1.5322,-1.5025,-1.4902,-1.4902,-1.4902,-1.4902,-1.4982,-1.5163,-1.5577,0.0,0.0,-1.8256,-1.8982,-1.915,-1.8931,-1.8241,-1.8115,-1.8065,-1.8065,-1.799,0.0,-1.7106,-1.6992,-1.6921,-1.6917,-1.7831,-1.8408,0.0,0.0,-1.9382,-1.8739,-1.848,-1.8018,-1.7314,0.0,-1.6924,-1.6644,-1.6463,-1.5518,-1.3995,-1.3594,-1.2487,-1.0789,-1.0274,-0.9816,-0.9343,-0.8734,-0.815,-0.7588,-0.6846,-0.6346,-0.5989,-0.5631,-0.5236,-0.4898,-4.0105,-4.0856,-4.1261,-4.156,-4.1648,-4.1754,-4.2072,-4.2264,-4.2463,-4.2749,-4.2124,-4.1674,-4.1818,-4.0933,-4.03,-4.0241,-4.0021,-3.9566,-3.8809,-3.8756,-3.8415,-3.757,-3.7351,-3.718,-3.7038,-3.619,-3.5275,-3.4387,-3.3726,-3.263,0.0,0.0,0.0,-2.9114,-2.8422,-2.8209,-2.8353,-2.8466,-2.851,-2.8458,-2.8458,-2.7895,-2.6959,-2.5975,-2.5015,-2.4095,-2.2988,-2.2552,-2.247,-2.2141,-2.1425,-2.061,-2.0297,-1.9482,-1.85,-1.7639,-1.7135,-1.6678,-1.5769,-1.5442,-1.5322,-1.5023,-1.4932,-1.4902,-1.4839,-1.4839,-1.4839,-1.4887,-1.5086,-1.544,-1.625,0.0,0.0,-1.8672,-1.9101,-1.9343,-1.903,-1.8979,-1.8957,-1.8914,-1.8452,-1.7934,-1.7385,-1.7182,-1.6902,-1.6537,-1.7936,-1.8824,0.0,0.0,-2.0056,0.0,-1.8762,0.0,0.0,0.0,-1.6659,-1.6436,-1.6191,-1.5503,-1.4453,-1.352,-1.2506,-1.1384,-1.0379,-0.9686,-0.9274,-0.8662,-0.8034,-0.7378,-0.6644,-0.6305,-0.6187,-0.5567,-0.5062,-0.4622,-3.9679,-4.0225,-4.0441,-4.0589,-4.0725,-4.078,-4.0609,-4.0689,-4.0955,-4.1586,-4.0967,-4.0467,-4.0467,-3.975,-3.9106,-3.8658,-3.8155,-3.7494,-3.6657,-3.6567,-3.6315,-3.5776,-3.572,-3.5605,-3.5466,-3.5062,-3.4411,-3.3627,-3.3228,-3.2466,-3.1411,0.0,-3.0293,-3.0053,-2.9041,-2.8454,-2.8191,0.0,0.0,-2.8246,-2.8246,-2.7451,-2.6154,-2.5605,-2.4602,-2.3345,-2.227,-2.18,-2.1619,-2.1316,-2.055,-1.9673,-1.9335,-1.856,-1.7668,-1.7076,-1.6503,-1.5965,-1.546,-1.5208,-1.5058,-1.4932,-1.4871,-1.4839,-1.4808,-1.4808,-1.4839,-1.4902,-1.4994,-1.5287,-1.6108,-1.6833,0.0,0.0,-1.8229,-1.8505,-1.8395,-1.8593,-1.8717,-1.8707,-1.8423,-1.807,-1.7652,-1.751,-1.7098,-1.6243,-1.7718,-1.8665,0.0,0.0,-2.0336,0.0,0.0,0.0,0.0,0.0,0.0,-1.6289,-1.6067,-1.5411,-1.4423,-1.377,-1.2692,-1.1349,-1.0568,-0.9797,-0.9031,-0.8404,-0.7853,-0.7332,-0.6795,-0.6434,-0.6173,-0.5448,-0.4932,-0.4495,-3.8642,-3.92,-3.948,-3.9474,-3.9656,-3.9643,-3.9291,-3.8965,-3.9171,-4.0412,-3.9727,-3.9124,-3.9124,-3.8309,-3.7491,-3.6816,-3.618,-3.5507,-3.4761,-3.4726,-3.4653,-3.4466,-3.4466,-3.4352,-3.4198,-3.4004,-3.3563,-3.2865,-3.2672,-3.2352,0.0,-3.1078,-3.0699,0.0,0.0,0.0,0.0,0.0,-2.7996,-2.7996,-2.7837,-2.6833,-2.5411,-2.5118,-2.4049,-2.2582,-2.1591,-2.0952,-2.0528,-2.0078,-1.9427,-1.869,-1.8385,-1.7635,-1.6831,-1.6593,-1.6025,-1.5433,-1.5268,-1.5102,-1.4951,-1.4887,-1.4839,-1.4808,-1.4808,-1.4808,-1.4808,-1.4839,-1.4871,-1.5074,-1.5762,-1.5949,0.0,0.0,-1.7121,-1.7351,-1.7278,-1.7657,-1.7954,-1.8007,-1.8118,-1.8029,-1.7729,-1.7658,-1.7274,-1.6278,-1.7593,-1.847,-1.861,0.0,0.0,0.0,0.0,-1.8434,-1.7671,0.0,-1.6388,-1.6139,-1.5913,-1.5314,-1.4414,-1.3983,-1.2964,-1.1527,-1.0781,-0.9793,-0.8645,-0.8052,-0.7602,-0.724,-0.6852,-0.6435,-0.6007,-0.5318,-0.4801,-0.4412,-3.7868,-3.8227,-3.8523,-3.8653,-3.8743,-3.8814,-3.9025,-3.7864,-3.7586,-3.9451,-3.8433,-3.7529,-3.7529,-3.6218,-3.5243,-3.5064,-3.4957,-3.4796,-3.4541,-3.4541,-3.4504,-3.4425,-3.4293,-3.4237,-3.4198,-3.3348,-3.2909,-3.2784,-3.2038,-3.1644,0.0,0.0,0.0,0.0,0.0,0.0,0.0,-2.7701,-2.773,-2.7678,-2.6953,-2.6079,-2.514,-2.4323,-2.3371,-2.2303,-2.1377,-2.0383,-1.9389,-1.8453,-1.8031,-1.7856,-1.759,-1.6866,-1.6031,-1.5786,-1.5521,-1.5268,-1.5074,-1.4966,-1.4887,-1.4839,-1.4808,-1.4808,-1.4808,-1.4746,-1.4714,-1.4714,-1.4714,-1.476,-1.491,-1.531,-1.5636,0.0,0.0,-1.6291,-1.6182,-1.6548,-1.6886,-1.7043,-1.745,-1.7637,-1.7267,-1.7249,-1.713,-1.6832,-1.7856,-1.8646,0.0,0.0,0.0,-2.0246,0.0,-1.8808,-1.813,-1.7349,-1.6605,-1.5928,-1.561,-1.5256,-1.4898,-1.3912,-1.3189,-1.2664,-1.102,-0.9437,-0.7986,-0.7656,-0.7298,-0.6914,-0.6505,-0.6155,-0.575,-0.5198,-0.4718,-0.4276,-3.6966,-3.6903,-3.678,-3.6898,-3.6697,-3.6379,-3.608,-3.5555,-3.5501,-3.6387,-3.6007,-3.5603,-3.5603,-3.5058,-3.4514,-3.4003,-3.3895,-3.3612,-3.3085,-3.3051,-3.3014,-3.2904,-3.281,-3.2717,-3.2641,-3.2214,-3.2,-3.2,-3.1671,-3.15,0.0,0.0,0.0,0.0,0.0,-2.8097,-2.7355,-2.74,-2.7152,-2.67,-2.6393,-2.5484,-2.432,-2.3824,-2.2801,-2.1488,-2.0471,-1.9454,-1.8421,-1.739,-1.7034,-1.6925,-1.6648,-1.6253,-1.5812,-1.5507,-1.5358,-1.5166,-1.4554,-1.4336,-1.4192,-1.3768,-1.3611,-1.3582,-1.3582,-1.3582,-1.3553,-1.3553,-1.3524,-1.3605,-1.3951,-1.4104,-1.4264,-1.4539,0.0,-1.5131,-1.5049,-1.5461,-1.5905,-1.6363,-1.6585,-1.693,-1.7356,-1.7356,-1.7458,-1.7674,-1.7999,-1.8341,0.0,0.0,0.0,-1.994,0.0,-1.8588,-1.7908,-1.7134,-1.6383,-1.5668,-1.5403,-1.5133,-1.4811,-1.4065,-1.3155,-1.1981,-1.057,-0.9414,-0.8548,-0.8192,-0.7727,-0.7175,-0.6781,-0.6301,-0.5674,-0.5111,-0.4587,-0.4104,-3.5383,-3.5217,-3.4996,-3.5067,-3.4857,-3.4511,-3.41,-3.3886,-3.3809,-3.3942,-3.3639,-3.3574,-3.4082,-3.3925,-3.3576,-3.3052,-3.2946,-3.2647,-3.2072,-3.2037,-3.1984,-3.1839,-3.1783,-3.1671,-3.1559,-3.15,-3.1462,-3.1462,-3.1423,-3.1321,0.0,0.0,0.0,0.0,-2.8509,-2.7872,-2.7117,-2.6894,-2.6513,-2.601,-2.5532,-2.4665,-2.3636,-2.3221,-2.2169,-2.0826,-1.9778,-1.8784,-1.7759,-1.6775,-1.6355,-1.6207,-1.6011,-1.5812,-1.5609,-1.5169,-1.4978,-1.4715,-1.3927,-1.3643,-1.3459,-1.2997,-1.283,-1.2803,-1.2803,-1.2733,-1.2706,-1.265,-1.2594,-1.266,-1.3054,-1.3088,-1.3169,-1.3551,0.0,0.0,-1.4001,-1.4435,-1.4891,-1.5401,-1.5745,-1.6224,-1.698,-1.7218,-1.7488,-1.7868,-1.7876,-1.8039,0.0,0.0,0.0,0.0,0.0,0.0,-1.7815,-1.7052,-1.6342,-1.5651,-1.5219,-1.4856,-1.4556,-1.3934,-1.2835,-1.1341,-1.0353,-0.9501,-0.8818,-0.8445,-0.7879,-0.7258,-0.6872,-0.627,-0.5588,-0.4975,-0.4451,-0.3976,-3.295,-3.3158,-3.3347,-3.3406,-3.3549,-3.3649,-3.3772,-3.3259,-3.2818,-3.2818,-3.1681,-3.1463,-3.3047,-3.2596,-3.2143,-3.2126,-3.2126,-3.2037,-3.1894,-3.1894,-3.1821,-3.1617,-3.1617,-3.1559,-3.1517,-3.1351,-3.1295,-3.1295,-3.1252,0.0,-3.0207,0.0,-2.8886,-2.8118,-2.8118,-2.7691,-2.6956,-2.6204,-2.5911,-2.5774,-2.4181,-2.3498,-2.3308,-2.2387,-2.1433,-2.0492,-1.9544,-1.8551,-1.7555,-1.6616,-1.6123,-1.5885,-1.5827,-1.561,-1.5272,-1.4615,-1.417,-1.3783,-1.3178,-1.2899,-1.2817,-1.2803,-1.2803,-1.2803,-1.2803,-1.2636,-1.2482,-1.234,-1.2255,-1.221,-1.221,-1.2477,-1.271,-1.271,0.0,0.0,-1.3119,-1.3519,-1.3853,-1.3926,-1.491,-1.5706,-1.5896,-1.6542,-1.7002,-1.7199,-1.7393,0.0,0.0,0.0,0.0,-1.8898,-1.9011,0.0,-1.8107,-1.7303,-1.6589,-1.597,-1.4998,-1.442,-1.4254,-1.3344,-1.228,-1.1183,-1.0642,-0.9682,-0.8489,-0.8123,-0.7602,-0.695,-0.6485,-0.5996,-0.5448,-0.4836,-0.4312,-0.3836,-3.2873,-3.2577,-3.2328,-3.2504,-3.1799,-3.1235,-3.1334,-3.0834,-3.0429,-3.0429,-3.0036,-2.9987,-3.0504,-3.0508,-3.0456,-3.0456,-3.037,-3.03,-3.0178,-3.0195,-3.016,-3.0052,-2.9945,-2.9909,-2.9873,-2.978,-2.9743,-2.9743,0.0,0.0,0.0,-2.848,-2.8007,-2.7737,-2.6708,-2.6134,-2.5864,-2.5122,-2.4515,-2.4008,-2.3506,-2.2942,-2.2283,-2.1375,-2.0475,-1.9528,-1.8575,-1.7595,-1.6678,-1.6225,-1.5624,-1.4985,-1.4888,-1.4803,-1.4558,-1.3698,-1.3374,-1.3122,-1.237,-1.2124,-1.1949,-1.1536,-1.1364,-1.1288,-1.1288,-1.1211,-1.1121,-1.1017,-1.0939,-1.0991,-1.1328,-1.1366,-1.156,-1.2202,-1.2291,0.0,-1.2637,-1.277,-1.301,-1.3433,-1.4123,-1.4785,-1.5356,-1.6026,-1.6491,-1.6735,-1.6947,0.0,0.0,0.0,0.0,0.0,-1.8606,0.0,-1.7709,-1.6965,-1.6277,-1.5574,-1.4675,-1.3967,-1.3472,-1.2826,-1.2129,-1.1383,-1.0687,-0.9971,-0.9214,-0.854,-0.7876,-0.7196,-0.6561,-0.5867,-0.5188,-0.4666,-0.4184,-0.37,-3.1099,-3.0817,-3.0599,-3.0704,-3.0085,-2.961,-2.9651,-2.9389,-2.9208,-2.9227,-2.9023,-2.8835,-2.8835,-2.875,0.0,-2.9489,-2.9472,-2.942,-2.9368,-2.935,-2.9315,-2.9227,-2.9157,-2.9085,-2.9049,-2.8958,0.0,-2.8938,-2.8541,-2.8333,-2.828,-2.7542,-2.7039,-2.6738,-2.5816,-2.5246,-2.4944,-2.4158,-2.3541,-2.3106,-2.2778,-2.2136,-2.1317,-2.0697,-1.974,-1.8591,-1.792,-1.7042,-1.6117,-1.5652,-1.5056,-1.4392,-1.3774,-1.3563,-1.341,-1.2823,-1.259,-1.2344,-1.1578,-1.1337,-1.1191,-1.0775,-1.0621,-1.0548,-1.0498,-1.0449,-1.0399,-1.0311,-1.0211,-1.0251,-1.0531,-1.0568,-1.0792,-1.1551,-1.1736,-1.1926,-1.2319,-1.2365,-1.2447,-1.28,-1.347,-1.4116,0.0,-1.5447,-1.6013,0.0,0.0,0.0,0.0,0.0,0.0,-1.7988,-1.8135,0.0,-1.7595,-1.6693,-1.5981,-1.5446,-1.4305,-1.3467,-1.292,-1.2437,-1.1884,-1.1292,-1.0649,-0.9991,-0.9319,-0.8602,-0.7904,-0.7196,-0.6471,-0.5744,-0.5058,-0.4539,-0.4056,-0.3615,-2.8168,-2.834,-2.8472,0.0,-2.8553,0.0,-2.8706,-2.8783,-2.8842,-2.8932,-2.839,-2.7998,-2.7998,-2.7384,-2.7555,-2.8989,0.0,0.0,-2.9125,-2.9125,-2.9073,-2.8951,-2.8915,-2.8897,-2.8822,-2.8713,-2.8622,-2.8622,-2.7861,-2.7492,-2.7389,-2.6719,-2.6016,-2.5296,-2.5246,-2.4828,-2.4125,-2.3279,-2.2901,-2.2834,-2.1969,-2.1171,-2.0443,-2.0231,-1.9154,-1.7745,-1.7506,-1.6802,-1.5849,-1.4964,-1.4506,-1.4051,-1.2639,-1.2099,-1.1984,-1.1984,-1.1843,-1.1487,-1.0868,-1.0632,-1.0597,-1.0523,-1.0498,-1.0449,-1.0324,-1.0274,-1.0249,-1.0122,-0.997,-0.988,-0.988,-1.0098,-1.0444,-1.0886,-1.1326,-1.1709,-1.2105,-1.2174,-1.2138,-1.2077,0.0,0.0,-1.3738,-1.4783,-1.5513,0.0,0.0,0.0,0.0,0.0,-1.7352,-1.7434,-1.7544,-1.7639,-1.7639,-1.6395,-1.5644,-1.5378,-1.3884,-1.3,-1.2639,-1.2102,-1.1531,-1.0943,-1.0457,-0.9765,-0.8935,-0.839,-0.7682,-0.6937,-0.6227,-0.5626,-0.5014,-0.4491,-0.4012,-0.3534,0.0,0.0,-2.8301,-2.8412,-2.8023,-2.7751,-2.7861,-2.7427,-2.711,-2.7197,-2.7045,-2.6962,-2.7029,-2.6877,-2.6911,-2.7267,-2.747,-2.752,-2.7453,-2.7453,-2.7403,-2.725,-2.7215,-2.7197,-2.7179,-2.7075,-2.6987,-2.6883,-2.6716,-2.6279,-2.5693,-2.5511,-2.5012,-2.4216,-2.3653,-2.3274,-2.3044,-2.2271,-2.1927,-2.1861,-2.1032,-2.0521,-2.0143,-1.8885,-1.8035,-1.7389,-1.6694,-1.612,-1.5564,-1.477,-1.3992,-1.3241,-1.2279,-1.1529,-1.1034,-1.1034,-1.0996,-1.0881,-1.0623,-1.0548,-1.0523,-1.0498,-1.0424,-1.0324,-1.0186,-1.011,-1.0059,-0.997,-0.9828,-0.971,-0.9617,-0.9905,-1.0256,-1.0576,-1.1052,-1.1503,-1.185,-1.1881,-1.1881,0.0,-1.2772,-1.3369,-1.3422,-1.438,-1.5051,0.0,0.0,0.0,0.0,-1.6001,-1.638,-1.6879,-1.7031,-1.7073,-1.7073,-1.5814,-1.4624,-1.3513,-1.3053,-1.2627,-1.2222,-1.1689,-1.1207,-1.0715,-1.006,-0.9478,-0.8935,-0.816,-0.7454,-0.6865,-0.6136,-0.5496,-0.4985,-0.4495,-0.4012,-0.3534,-2.6983,-2.7082,-2.7158,-2.725,-2.6995,-2.6803,-2.6928,-2.6666,-2.6434,-2.6554,-2.6554,-2.6454,-2.6152,-2.6118,-2.5966,-2.5629,-2.6402,-2.6825,-2.6759,-2.6759,-2.6708,-2.6623,-2.6572,-2.6554,-2.6554,-2.6468,-2.6197,-2.5743,-2.5394,-2.5012,-2.4546,-2.4546,-2.4116,-2.3342,-2.2947,-2.2505,-2.2067,-2.1644,-2.1254,-2.0882,-2.0386,-1.9704,-1.8917,-1.8023,-1.7293,-1.6699,-1.6118,-1.5545,-1.4919,-1.4094,-1.3241,-1.242,-1.1615,-1.1014,-1.0597,-1.0548,-1.0572,-1.0597,-1.0449,-1.0399,-1.0399,-1.0336,-1.0236,-1.0135,-1.0021,-0.9944,-0.988,-0.9788,-0.9684,-0.9564,-0.9432,-0.9709,-1.0066,-1.0398,-1.0832,-1.1225,-1.1605,-1.1645,-1.1608,-1.1522,-1.2217,-1.2666,-1.2748,-1.3452,-1.3972,-1.4103,-1.4364,0.0,-1.4592,-1.4732,-1.5331,-1.6367,-1.6228,-1.6103,-1.6103,-1.4935,-1.3766,-1.2685,-1.252,-1.2222,-1.1811,-1.1319,-1.0867,-1.038,-0.9825,-0.9239,-0.8659,-0.8002,-0.7293,-0.6653,-0.6013,-0.541,-0.4849,-0.432,-0.3836,-0.3442,-2.5538,-2.5709,-2.5848,-2.575,-2.579,-2.5829,-2.5834,-2.5891,-2.5979,-2.6116,-2.6116,-2.5916,-2.5313,-2.5229,-2.4977,-2.434,-2.5545,-2.6303,-2.6253,-2.6236,-2.6219,-2.6184,-2.615,-2.615,-2.615,-2.6013,-2.561,-2.491,-2.4282,-2.3885,-2.372,-2.372,-2.3276,-2.2506,-2.2475,-2.2034,-2.1193,-2.1116,-2.0634,-1.9897,-1.965,-1.8754,-1.754,-1.7345,-1.6727,-1.5896,-1.5605,-1.4991,-1.4167,-1.3215,-1.2436,-1.1688,-1.0884,-1.0548,-1.0424,-1.0299,-1.0349,-1.0386,-1.0299,-1.0274,-1.0224,-1.0097,-1.0021,-0.9944,-0.988,-0.9802,-0.971,-0.9617,-0.9511,-0.9405,-0.9286,-0.9586,-0.9966,-1.0282,-1.0698,-1.1113,-1.1431,0.0,-1.1346,-1.1223,-1.1616,-1.1933,-1.2063,-1.2494,-1.2858,-1.3098,-1.3181,-1.3264,-1.3399,-1.3534,-1.4215,-1.5548,-1.5181,-1.4916,-1.4832,-1.3874,-1.3043,-1.2294,-1.2113,-1.1811,-1.1394,-1.1029,-1.0534,-1.004,-0.9597,-0.9007,-0.8332,-0.7836,-0.716,-0.6435,-0.589,-0.528,-0.4714,-0.41,-0.366,-0.3309,-2.4697,-2.5257,-2.5558,-2.4987,-2.4944,-2.4802,-2.4262,-2.4231,-2.4315,-2.4381,-2.4431,-2.4478,-2.4475,-2.4458,-2.4408,-2.4307,-2.4523,-2.4658,-2.4658,-2.4674,-2.4658,-2.4642,-2.4529,-2.4463,-2.4463,-2.4398,-2.4249,-2.41,-2.3968,-2.3572,-2.2883,-2.2883,-2.2441,-2.1596,-2.155,-2.1098,-2.0374,-2.019,-1.9729,-1.9028,-1.8205,-1.77,-1.7348,-1.6548,-1.6002,-1.5565,-1.486,-1.4327,-1.3785,-1.2454,-1.1774,-1.1348,-1.0609,-1.0299,-1.0224,-1.0085,-1.0046,-1.0097,-1.0122,-1.0097,-1.0034,-0.9944,-0.988,-0.9802,-0.9762,-0.9632,-0.9538,-0.9523,-0.9336,-0.9147,-0.9135,-0.9738,-1.0174,-1.0091,-1.0812,-1.1361,-1.125,0.0,-1.1223,-1.1185,-1.1616,-1.1893,-1.1933,-1.236,-1.2648,-1.2679,-1.2816,-1.29,-1.29,-1.3151,-1.3384,-1.3614,-1.3847,-1.3738,-1.3256,-1.3066,-1.2632,-1.1884,-1.17,-1.1394,-1.1057,-1.0639,-1.0235,-0.9813,-0.9297,-0.8765,-0.8185,-0.7538,-0.6901,-0.6295,-0.575,-0.5145,-0.4574,-0.41,-0.3615,-0.3173,-2.3948,-2.4243,-2.4408,-2.4135,-2.4123,-2.4043,-2.3733,-2.3785,-2.3868,-2.3885,-2.3951,-2.3851,-2.3518,-2.3531,-2.3395,-2.2995,-2.2962,-2.2962,-2.2962,-2.3744,-2.4195,-2.413,-2.4098,-2.4066,-2.4066,-2.3587,-2.3357,-2.3292,-2.2865,-2.244,-2.2001,-2.197,-2.1696,-2.1261,-2.0811,-2.0381,-1.9968,-1.9462,-1.8787,-1.804,-1.7492,-1.7007,-1.6523,-1.5946,-1.558,-1.5271,-1.4429,-1.3757,-1.3094,-1.1966,-1.1241,-1.0755,-1.0314,-1.011,-1.0008,-0.9931,-0.9905,-0.9905,-0.9919,-0.9905,-0.9828,-0.9802,-0.971,-0.9644,-0.9591,-0.9485,-0.9378,-0.9309,-0.9201,-0.9054,-0.8905,-0.9574,-1.0102,-0.9983,-1.0701,0.0,0.0,-1.1012,-1.0947,-1.0909,-1.1074,-1.1199,-1.1199,-1.1395,-1.156,-1.168,-1.176,-1.181,-1.194,-1.2059,-1.2178,-1.2217,-1.2749,-1.2777,-1.2253,-1.2181,-1.1934,-1.1479,-1.1319,-1.1019,-1.0677,-1.0351,-0.9922,-0.9487,-0.9047,-0.8521,-0.7987,-0.7363,-0.6774,-0.6173,-0.5534,-0.4971,-0.4447,-0.3928,-0.3483,-0.3034,-2.3219,-2.34,-2.3464,-2.3252,-2.3288,-2.3256,-2.3078,-2.3177,-2.326,-2.326,-2.3309,-2.316,-2.2569,-2.2566,-2.2365,-2.1817,-2.1768,-2.1768,-2.1768,-2.2889,-2.3519,-2.3487,-2.3487,-2.3487,-2.3455,-2.2846,-2.2534,-2.2455,-2.1851,-2.1464,-2.134,-2.1309,-2.1134,-2.0862,-2.0255,-1.9701,-1.9246,-1.8649,-1.7874,-1.7065,-1.6846,-1.6351,-1.577,-1.5477,-1.5182,-1.4786,-1.3925,-1.308,-1.2238,-1.1415,-1.0742,-1.0199,-1.0097,-0.997,-0.9828,-0.9762,-0.9698,-0.9698,-0.9724,-0.9684,-0.9632,-0.9632,-0.9538,-0.9458,-0.9458,-0.9351,-0.9232,-0.9108,-0.9054,-0.8933,-0.8728,-0.9393,-0.995,-0.9819,0.0,0.0,0.0,-1.0774,-1.0697,-1.0621,-1.0582,-1.0582,-1.0582,-1.0582,-1.0659,-1.0802,-1.085,-1.0888,-1.1061,-1.1099,-1.1147,-1.126,-1.1872,-1.1971,-1.1571,-1.1463,-1.1292,-1.1067,-1.0943,-1.0677,-1.0302,-1.001,-0.9607,-0.9159,-0.8756,-0.8275,-0.7746,-0.7154,-0.6598,-0.605,-0.5361,-0.4797,-0.4324,-0.3799,-0.3353,-0.2948,-2.2475,-2.3009,-2.3302,-2.2588,-2.2475,-2.2248,-2.1568,-2.1517,-2.158,-2.158,-2.1706,-2.1767,-2.1702,-2.1702,-2.1669,-2.162,-2.1664,-2.1694,-2.162,-2.1763,-2.1903,-2.1947,-2.1947,-2.1933,-2.1873,-2.1823,-2.1699,-2.1499,-2.145,-2.134,-2.1199,-2.1215,-2.0782,-2.0001,-1.9877,-1.901,-1.7668,-1.7477,-1.6914,-1.6072,-1.583,-1.5654,-1.5477,-1.5165,-1.4582,-1.3897,-1.308,-1.2184,-1.1295,-1.0611,-1.0174,-0.9931,-0.9919,-0.9828,-0.9684,-0.9564,-0.942,-0.9381,-0.9552,-0.9514,-0.9434,-0.9434,-0.9354,-0.9313,-0.9313,-0.9205,-0.912,-0.9092,-0.8905,-0.8701,-0.8617,-0.9312,-0.983,-0.9576,0.0,0.0,-1.0659,-1.0621,-1.0621,-1.0582,-1.0582,-1.0582,-1.0582,-1.0582,-1.0621,-1.0621,-1.0621,-1.0621,-1.0621,-1.0687,-1.0802,-1.0926,-1.1292,-1.1378,-1.1164,-1.1115,-1.1002,-1.0715,-1.0534,-1.0341,-1.0118,-0.9716,-0.9279,-0.882,-0.8423,-0.7938,-0.7419,-0.6943,-0.6386,-0.5793,-0.5275,-0.4797,-0.4232,-0.3755,-0.3312,-0.2865,-2.1698,-2.194,-2.2054,-2.1778,-2.173,-2.1633,-2.1326,-2.1309,-2.134,-2.134,-2.1433,-2.1464,-2.1464,-2.1542,-2.1589,-2.1589,-2.1603,-2.162,-2.1589,-2.1603,-2.1634,-2.1664,-2.1664,-2.1664,-2.1634,-2.1556,-2.1495,-2.1386,-2.0902,-2.0647,-2.0586,-1.9936,-1.9478,-1.9132,-1.8542,-1.7924,-1.7221,-1.6719,-1.6182,-1.5682,-1.5536,-1.5359,-1.5121,-1.4509,-1.4004,-1.3507,-1.2264,-1.1507,-1.1015,-1.0276,-0.9957,-0.9828,-0.9684,-0.9617,-0.9564,-0.942,-0.9298,-0.919,-0.9271,-0.9313,-0.9328,-0.9274,-0.9232,-0.9162,-0.9108,-0.9054,-0.8944,-0.8822,-0.8712,-0.8617,-0.8505,-0.8925,-0.9256,-0.9129,0.0,-1.0291,-1.0143,-1.0326,-1.0467,-1.0428,-1.039,-1.039,-1.039,-1.039,-1.0428,-1.0467,-1.0457,-1.0457,-1.0457,-1.0467,-1.0467,-1.0544,-1.0631,-1.0746,-1.084,-1.0725,-1.0572,-1.0467,-1.0244,-1.0,-0.9716,-0.9368,-0.8958,-0.8594,-0.8193,-0.7787,-0.737,-0.6816,-0.6264,-0.575,-0.5236,-0.4714,-0.4232,-0.3755,-0.3312,-0.2868,-2.1294,-2.1309,-2.1309,-2.1309,-2.1309,-2.1309,-2.1309,-2.1309,-2.1309,-2.1309,-2.134,-2.1355,-2.1355,-2.145,-2.1528,-2.1528,-2.1511,-2.1542,-2.1511,-2.1497,-2.1528,-2.1589,-2.1589,-2.1589,-2.1542,-2.1205,-2.103,-2.103,-2.0213,-1.9785,-1.9709,-1.9019,-1.8539,-1.8214,-1.7585,-1.7085,-1.6636,-1.6079,-1.5653,-1.5403,-1.5269,-1.5074,-1.4758,-1.3972,-1.3432,-1.2925,-1.1693,-1.0989,-1.0555,-1.0057,-0.9802,-0.9684,-0.9538,-0.9432,-0.9351,-0.9259,-0.9124,-0.9026,-0.9026,-0.9097,-0.9178,-0.9124,-0.9081,-0.9026,-0.8983,-0.8889,-0.8767,-0.8617,-0.8561,-0.8505,-0.8365,-0.8649,-0.888,-0.8787,-0.9312,-0.9742,-0.9728,-0.9957,-1.0194,-1.0302,-1.0283,-1.0283,-1.0283,-1.0244,-1.0273,-1.0312,-1.0273,-1.0273,-1.0273,-1.0244,-1.0205,-1.0205,-1.0205,-1.0283,-1.0418,-1.0341,-1.0235,-1.0127,-0.9932,-0.9686,-0.9408,-0.9007,-0.8643,-0.8308,-0.7912,-0.7538,-0.716,-0.6568,-0.6093,-0.5663,-0.5154,-0.4675,-0.4232,-0.3755,-0.3312,-0.2868,-2.1309,-2.1309,-2.1309,-2.1309,-2.1309,-2.1309,-2.1309,-2.1309,-2.1309,-2.1309,-2.1309,-2.1309,-2.1309,-2.1309,-2.1309,-2.1309,-2.1371,-2.1355,-2.1309,-2.123,-2.1294,-2.1589,-2.1573,-2.1542,-2.1386,-2.0657,-2.0256,-2.0183,-1.9383,-1.8885,-1.8693,-1.8693,-1.8183,-1.7296,-1.7163,-1.6605,-1.577,-1.558,-1.5374,-1.5192,-1.4994,-1.4718,-1.4418,-1.3673,-1.2909,-1.2089,-1.1355,-1.057,-0.988,-0.9828,-0.9658,-0.9497,-0.9497,-0.9309,-0.9092,-0.9092,-0.8999,-0.8905,-0.8905,-0.8905,-0.8905,-0.8905,-0.8905,-0.8905,-0.8905,-0.8739,-0.86,-0.8589,-0.8505,-0.8365,-0.8215,-0.857,-0.8808,-0.8548,-0.8885,-0.9288,-0.9561,-0.9592,-0.9758,-1.0225,-1.0273,-1.0283,-1.0283,-1.0166,-1.0079,-1.0079,-1.0049,-0.998,-0.998,-0.998,-0.998,-0.998,-0.998,-0.9941,-0.9783,-1.001,-1.001,-0.9783,-0.9607,-0.9408,-0.9177,-0.8724,-0.8308,-0.7979,-0.7572,-0.7112,-0.6641,-0.6184,-0.5798,-0.5448,-0.4975,-0.4583,-0.4232,-0.3755,-0.3312,-0.2868,-2.1309,-2.1309,-2.1309,-2.1309,-2.1309,-2.1309,-2.1309,-2.1262,-2.123,-2.123,-2.1183,-2.1167,-2.1167,-2.1167,-2.1167,-2.1167,-2.1183,-2.1183,-2.1167,-2.0654,-2.0381,-2.0473,-2.0473,-2.0473,-2.0426,-1.9734,-1.9396,-1.9367,-1.8502,-1.8067,-1.7966,-1.7296,-1.6756,-1.6458,-1.6258,-1.5949,-1.5507,-1.5418,-1.5178,-1.4902,-1.4808,-1.4342,-1.3646,-1.2853,-1.2076,-1.1246,-1.0505,-0.9977,-0.9617,-0.9591,-0.9473,-0.9339,-0.9244,-0.9147,-0.901,-0.8971,-0.8878,-0.8756,-0.8756,-0.8728,-0.8701,-0.8756,-0.8756,-0.8728,-0.8628,-0.8572,-0.8488,-0.8404,-0.8319,-0.8244,-0.814,-0.8126,-0.8118,-0.8019,-0.8293,-0.8509,-0.8602,-0.8848,-0.9214,-0.9619,-0.9667,-0.9782,-1.0069,-1.0059,-1.0019,-1.0019,-0.9941,-0.9862,-0.9862,-0.9832,-0.9753,-0.9634,-0.9634,-0.9585,-0.9448,-0.9704,-0.9744,-0.9607,-0.9288,-0.9047,-0.8846,-0.8349,-0.7979,-0.7648,-0.7273,-0.6901,-0.652,-0.6147,-0.5761,-0.5328,-0.4932,-0.4543,-0.4104,-0.3755,-0.3312,-0.2868,-2.1309,-2.1309,-2.1309,-2.1309,-2.1294,-2.1262,-2.1262,-2.1215,-2.1167,-2.1167,-2.1135,-2.1119,-2.1119,-2.1119,-2.1119,-2.1119,-2.1054,-2.1006,-2.1006,-2.0321,-1.9892,-1.9892,-1.9321,-1.9176,-1.9553,-1.8824,-1.8457,-1.8457,-1.7602,-1.7145,-1.7089,-1.649,-1.6139,-1.5955,-1.5755,-1.5551,-1.5344,-1.5178,-1.4963,-1.4718,-1.4342,-1.3826,-1.3176,-1.2171,-1.1432,-1.0822,-1.008,-0.9684,-0.9497,-0.9405,-0.9298,-0.9162,-0.9054,-0.8944,-0.8889,-0.885,-0.8756,-0.8673,-0.8673,-0.8617,-0.8617,-0.8645,-0.8645,-0.86,-0.8527,-0.8471,-0.8375,-0.8301,-0.8215,-0.814,-0.7996,-0.787,-0.7744,-0.7734,-0.783,-0.799,-0.8121,-0.8379,-0.867,-0.9097,-0.9307,-0.9516,-0.9753,-0.9847,-0.9902,-0.9872,-0.9793,-0.9753,-0.9674,-0.9634,-0.9554,-0.9426,-0.9426,-0.9337,-0.9168,-0.9346,-0.9386,-0.9288,-0.8967,-0.8692,-0.848,-0.807,-0.7697,-0.7363,-0.7021,-0.6647,-0.627,-0.5927,-0.5545,-0.5159,-0.4806,-0.4456,-0.4064,-0.3667,-0.3268,-0.2868,-2.1309,-2.1309,-2.1309,-2.1294,-2.123,-2.1215,-2.1183,-2.1135,-2.107,-2.107,-2.107,-2.107,-2.107,-2.1038,-2.1038,-2.1038,-2.0925,-2.0861,-2.0861,-2.0067,-1.9563,-1.9563,-1.8169,-1.7773,-1.8622,-1.7877,-1.749,-1.749,-1.6737,-1.6316,-1.6194,-1.6166,-1.6026,-1.577,-1.558,-1.5403,-1.5253,-1.4932,-1.4746,-1.4596,-1.3731,-1.3229,-1.2883,-1.1633,-1.097,-1.0621,-0.9921,-0.9591,-0.9444,-0.9232,-0.9081,-0.8955,-0.8905,-0.8784,-0.869,-0.869,-0.8645,-0.86,-0.86,-0.86,-0.86,-0.86,-0.8544,-0.8499,-0.8499,-0.8404,-0.829,-0.8215,-0.814,-0.8025,-0.7831,-0.7744,-0.7656,-0.7588,-0.7539,-0.7613,-0.7992,-0.8039,-0.82,-0.8651,-0.9024,-0.9289,-0.9365,-0.9628,-0.9744,-0.9723,-0.9683,-0.9643,-0.9524,-0.9475,-0.9426,-0.9279,-0.9279,-0.9168,-0.8975,-0.8935,-0.8935,-0.8935,-0.8643,-0.8365,-0.8175,-0.7836,-0.7503,-0.7125,-0.6816,-0.6392,-0.5933,-0.5626,-0.528,-0.4941,-0.4631,-0.4328,-0.402,-0.3575,-0.3176,-0.2868,-2.1309,-2.1309,-2.1277,-2.123,-2.1215,-2.1183,-2.1135,-2.1006,-2.0942,-2.0942,-2.0843,-2.0793,-2.0793,-2.0677,-2.0644,-2.0644,-2.0595,-2.0595,-2.0595,-1.9404,-1.8672,-1.8672,-1.7219,-1.6499,-1.6694,-1.6639,-1.6589,-1.6589,-1.6296,-1.6151,-1.6123,-1.597,-1.5799,-1.5639,-1.5448,-1.5208,-1.4994,-1.4839,-1.4651,-1.431,-1.3618,-1.2911,-1.2213,-1.1309,-1.0537,-0.9897,-0.9627,-0.9378,-0.9174,-0.9015,-0.8878,-0.8756,-0.8756,-0.8701,-0.8617,-0.8617,-0.8617,-0.86,-0.86,-0.86,-0.86,-0.8527,-0.846,-0.8421,-0.8421,-0.8365,-0.8262,-0.814,-0.8043,-0.7908,-0.7754,-0.7656,-0.7598,-0.7539,-0.746,-0.7439,-0.7532,-0.7463,-0.754,-0.7964,-0.8093,-0.8397,-0.9106,-0.9513,-0.9713,-0.9683,-0.9603,-0.9524,-0.9524,-0.9417,-0.9248,-0.9056,-0.9056,-0.8975,-0.8765,-0.861,-0.857,-0.8602,-0.8488,-0.825,-0.7961,-0.7628,-0.7245,-0.681,-0.6568,-0.619,-0.5766,-0.5458,-0.5154,-0.4806,-0.4495,-0.4188,-0.3884,-0.353,-0.3176,-0.2823,-2.1355,-2.1309,-2.1294,-2.1215,-2.1183,-2.1119,-2.1006,-2.0893,-2.0794,-2.0794,-2.0711,-2.061,-2.061,-2.0527,-2.0494,-2.0475,-2.0426,-2.0392,-2.0308,-1.9008,-1.8206,-1.8206,-1.6814,-1.6067,-1.6067,-1.6067,-1.608,-1.6163,-1.6095,-1.6011,-1.5955,-1.5856,-1.5683,-1.5448,-1.5298,-1.5086,-1.4825,-1.4718,-1.4363,-1.3798,-1.3111,-1.2346,-1.1538,-1.0776,-1.0143,-0.9644,-0.9458,-0.9178,-0.885,-0.8739,-0.8645,-0.8551,-0.8551,-0.8523,-0.8505,-0.8544,-0.8544,-0.8544,-0.86,-0.86,-0.8572,-0.8527,-0.846,-0.8382,-0.8365,-0.829,-0.8158,-0.8043,-0.7889,-0.7773,-0.7656,-0.7569,-0.749,-0.746,-0.7342,-0.7262,-0.7262,-0.7175,-0.7188,-0.7444,-0.7634,-0.8094,-0.9014,-0.929,-0.9463,-0.9585,-0.9524,-0.9475,-0.9355,-0.9217,-0.9096,-0.8943,-0.8895,-0.8773,-0.8561,-0.8455,-0.8291,-0.8118,-0.8085,-0.7919,-0.7663,-0.737,-0.6992,-0.6526,-0.6319,-0.5981,-0.5588,-0.529,-0.498,-0.4666,-0.432,-0.4056,-0.3748,-0.3439,-0.2996,-0.2551,-2.1417,-2.1371,-2.1294,-2.1215,-2.1135,-2.1054,-2.0909,-2.0761,-2.0693,-2.0693,-2.0577,-2.0494,-2.0494,-2.046,-2.0392,-2.0339,-2.027,-2.02,-2.008,-1.8763,-1.797,-1.797,-1.6667,-1.5911,-1.5911,-1.5827,-1.5812,-1.5983,-1.5911,-1.587,-1.5741,-1.5712,-1.5566,-1.5313,-1.5192,-1.4994,-1.4777,-1.4547,-1.4032,-1.3293,-1.2553,-1.1796,-1.1013,-1.0237,-0.9802,-0.9564,-0.9366,-0.8987,-0.86,-0.8488,-0.8432,-0.8365,-0.8382,-0.8382,-0.8393,-0.846,-0.8488,-0.8488,-0.8533,-0.8561,-0.8533,-0.8488,-0.8432,-0.8365,-0.829,-0.8197,-0.8054,-0.7927,-0.7802,-0.7666,-0.7588,-0.746,-0.7351,-0.7351,-0.7193,-0.7095,-0.7095,-0.7026,-0.7017,-0.7086,-0.7436,-0.8033,-0.8876,-0.9013,-0.9149,-0.9448,-0.9435,-0.9355,-0.9177,-0.9065,-0.8943,-0.883,-0.8692,-0.8529,-0.8332,-0.8291,-0.8085,-0.7628,-0.7587,-0.7496,-0.7328,-0.7027,-0.6696,-0.6367,-0.6062,-0.5761,-0.541,-0.5111,-0.4806,-0.453,-0.4192,-0.3928,-0.3656,-0.3258,-0.2726,-0.2192,-2.1448,-2.1386,-2.134,-2.1135,-2.1119,-2.1038,-2.0827,-2.0744,-2.0693,-2.0693,-2.0525,-2.0407,-2.0407,-2.0254,-2.0135,-2.015,-2.0096,-2.0025,-1.999,-1.8712,-1.7906,-1.7827,-1.6428,-1.5639,-1.5566,-1.5551,-1.5639,-1.5827,-1.5668,-1.5566,-1.5551,-1.5418,-1.5343,-1.5283,-1.4994,-1.4808,-1.4714,-1.4447,-1.3884,-1.3168,-1.242,-1.1697,-1.0932,-1.0119,-0.971,-0.9485,-0.9298,-0.896,-0.8572,-0.8404,-0.829,-0.8244,-0.829,-0.8262,-0.8244,-0.8393,-0.8421,-0.8421,-0.841,-0.841,-0.841,-0.8347,-0.8319,-0.829,-0.8169,-0.8121,-0.8054,-0.7927,-0.7802,-0.7666,-0.7549,-0.7353,-0.7205,-0.7154,-0.7056,-0.7017,-0.7017,-0.7017,-0.7017,-0.7017,-0.7373,-0.7801,-0.8272,-0.863,-0.8967,-0.9293,-0.9257,-0.9185,-0.9016,-0.8952,-0.879,-0.8455,-0.8455,-0.8291,-0.7961,-0.7836,-0.767,-0.7419,-0.7196,-0.707,-0.7021,-0.6732,-0.6435,-0.6227,-0.589,-0.5545,-0.5236,-0.4932,-0.4626,-0.4316,-0.4056,-0.3796,-0.3534,-0.2998,-0.2464,-0.2018,-2.1631,-2.1509,-2.1371,-2.123,-2.1167,-2.1022,-2.0877,-2.0695,-2.061,-2.061,-2.0441,-2.0339,-2.0339,-2.0185,-2.003,-1.994,-1.9919,-1.9848,-1.9792,-1.8497,-1.7697,-1.7647,-1.6276,-1.5551,-1.5507,-1.5448,-1.5463,-1.5522,-1.5522,-1.5463,-1.5388,-1.5343,-1.5192,-1.4994,-1.4871,-1.4714,-1.4525,-1.4365,-1.3853,-1.3151,-1.239,-1.164,-1.0862,-1.0052,-0.9605,-0.9339,-0.8894,-0.8589,-0.8347,-0.8138,-0.8052,-0.8023,-0.808,-0.8119,-0.8169,-0.8262,-0.8319,-0.8365,-0.8382,-0.841,-0.8393,-0.8308,-0.8262,-0.8215,-0.8121,-0.7967,-0.787,-0.7802,-0.7686,-0.7549,-0.7353,-0.7235,-0.7116,-0.7056,-0.6996,-0.6936,-0.6936,-0.6915,-0.6915,-0.6936,-0.7116,-0.7404,-0.7836,-0.8237,-0.8592,-0.8867,-0.9024,-0.9065,-0.8952,-0.8749,-0.8545,-0.8414,-0.8242,-0.8036,-0.7795,-0.7663,-0.7447,-0.7154,-0.6859,-0.6732,-0.6732,-0.6526,-0.6233,-0.589,-0.5669,-0.5415,-0.5067,-0.4801,-0.4535,-0.4276,-0.3921,-0.3571,-0.3179,-0.2729,-0.2328,-0.1973]},{"header":{"parameterUnit":"m.s-1","parameterCategory":1,"la1":30.6,"la2":28.766,"lo1":-90.7593,"lo2":-88.6598,"dy":0.0162,"dx":0.0183,"nx":116,"ny":114,"refTime":"2023-07-31T12:00:00:Z","depth":0,"parameterNumber":3,"parameterNumberName":"V-component_of_WINDS"},"data":[0.0,0.0,0.0,0.0,0.0,0.0,0.0,0.0,0.0,0.0,0.0,0.0,0.0,0.0,0.0,0.0,0.0,0.0,0.0,0.0,0.0,0.0,0.0,0.0,0.0,0.0,0.0,0.0,0.0,0.0,0.0,0.0,0.0,0.0,0.0,0.0,0.0,0.0,0.0,0.0,0.0,0.0,0.0,0.0,0.0,0.0,0.0,0.0,0.0,0.0,0.0,0.0,0.0,0.0,0.0,0.0,0.0,0.0,0.0,0.0,0.0,0.0,0.0,0.0,0.0,0.0,0.0,0.0,0.0,0.0,0.0,0.0,0.0,0.0,0.0,0.0,0.0,0.0,0.0,0.0,0.0,0.0,0.0,0.0,0.0,0.0,0.0,0.0,0.0,0.0,0.0,0.0,0.0,0.0,0.0,0.0,0.0,0.0,0.0,0.0,0.0,0.0,0.0,0.0,0.0,0.0,0.0,0.0,0.0,0.0,0.0,0.0,0.0,0.0,0.0,0.0,0.0,0.0,0.0,0.0,0.0,0.0,0.0,0.0,0.0,0.0,0.0,0.0,0.0,0.0,0.0,0.0,0.0,0.0,0.0,0.0,0.0,0.0,0.0,0.0,0.0,0.0,0.0,0.0,0.0,0.0,0.0,0.0,0.0,0.0,0.0,0.0,0.0,0.0,0.0,0.0,0.0,0.0,0.0,0.0,0.0,0.0,0.0,0.0,0.0,0.0,0.0,0.0,0.0,0.0,0.0,0.0,0.0,0.0,0.0,0.0,0.0,0.0,0.0,0.0,0.0,0.0,0.0,0.0,0.0,0.0,0.0,0.0,0.0,0.0,0.0,0.0,0.0,0.0,0.0,0.0,0.0,0.0,0.0,0.0,0.0,0.0,0.0,0.0,0.0,0.0,0.0,0.0,0.0,0.0,0.0,0.0,0.0,0.0,0.0,0.0,0.0,0.0,0.0,0.0,0.0,0.0,0.0,0.0,0.0,0.0,0.0,0.0,0.0,0.0,0.0,0.0,0.0,0.0,0.0,0.0,0.0,0.0,0.0,0.0,0.0,0.0,0.0,0.0,0.0,0.0,0.0,0.0,0.0,0.0,0.0,0.0,0.0,0.0,0.0,0.0,0.0,0.0,0.0,0.0,0.0,0.0,0.0,0.0,0.0,0.0,0.0,0.0,0.0,0.0,0.0,0.0,0.0,0.0,0.0,0.0,0.0,0.0,0.0,0.0,0.0,0.0,0.0,0.0,0.0,0.0,0.0,0.0,0.0,0.0,0.0,0.0,0.0,0.0,0.0,0.0,0.0,0.0,0.0,0.0,0.0,0.0,0.0,0.0,0.0,0.0,0.0,0.0,0.0,0.0,0.0,0.0,0.0,0.0,0.0,0.0,0.0,0.0,0.0,0.0,0.0,0.0,0.0,0.0,0.0,0.0,0.0,0.0,0.0,0.0,0.0,0.0,0.0,0.0,0.0,0.0,0.0,0.0,0.0,0.0,0.0,0.0,0.0,0.0,0.0,0.0,0.0,0.0,0.0,0.0,0.0,0.0,0.0,0.0,0.0,0.0,0.0,0.0,0.0,0.0,0.0,0.0,0.0,0.0,0.0,0.0,0.0,0.0,0.0,0.0,0.0,0.0,0.0,0.0,0.0,0.0,0.0,0.0,0.0,0.0,0.0,0.0,0.0,0.0,0.0,0.0,0.0,0.0,0.0,0.0,0.0,0.0,0.0,0.0,0.0,0.0,0.0,0.0,0.0,0.0,0.0,0.0,0.0,0.0,0.0,0.0,0.0,0.0,0.0,0.0,0.0,0.0,0.0,0.0,0.0,0.0,0.0,0.0,0.0,0.0,0.0,0.0,0.0,0.0,0.0,0.0,0.0,0.0,0.0,0.0,0.0,0.0,0.0,0.0,0.0,0.0,0.0,0.0,0.0,0.0,0.0,0.0,0.0,0.0,0.0,0.0,0.0,0.0,0.0,0.0,0.0,0.0,0.0,0.0,0.0,0.0,0.0,0.0,0.0,0.0,0.0,0.0,0.0,0.0,0.0,0.0,0.0,0.0,0.0,0.0,0.0,0.0,0.0,0.0,0.0,0.0,0.0,0.0,0.0,0.0,0.0,0.0,0.0,0.0,0.0,0.0,0.0,0.0,0.0,0.0,0.0,0.0,0.0,0.0,0.0,0.0,0.0,0.0,0.0,0.0,0.0,0.0,0.0,0.0,0.0,0.0,0.0,0.0,0.0,0.0,0.0,0.0,0.0,0.0,0.0,0.0,0.0,0.0,0.0,0.0,0.0,0.0,0.0,0.0,0.0,0.0,0.0,0.0,0.0,0.0,0.0,0.0,0.0,0.0,0.0,0.0,0.0,0.0,0.0,0.0,0.0,0.0,0.0,0.0,0.0,0.0,0.0,0.0,0.0,0.0,0.0,0.0,0.0,0.0,0.0,0.0,0.0,0.0,0.0,0.0,0.0,0.0,0.0,0.0,0.0,0.0,0.0,0.0,0.0,0.0,0.0,0.0,0.0,0.0,0.0,0.0,0.0,0.0,0.0,0.0,0.0,0.0,0.0,0.0,0.0,0.0,0.0,0.0,0.0,0.0,0.0,0.0,0.0,0.0,0.0,0.0,0.0,0.0,0.0,0.0,0.0,0.0,0.0,0.0,0.0,0.0,0.0,0.0,0.0,0.0,0.0,0.0,0.0,0.0,0.0,0.0,0.0,0.0,0.0,0.0,0.0,0.0,0.0,0.0,0.0,0.0,0.0,0.0,0.0,0.0,0.0,0.0,0.0,0.0,0.0,0.0,0.0,0.0,0.0,0.0,0.0,0.0,0.0,0.0,0.0,0.0,0.0,0.0,0.0,0.0,0.0,0.0,0.0,0.0,0.0,0.0,0.0,0.0,0.0,0.0,0.0,0.0,0.0,0.0,0.0,0.0,0.0,0.0,0.0,0.0,0.0,0.0,0.0,0.0,0.0,0.0,0.0,0.0,0.0,0.0,0.0,0.0,0.0,0.0,0.0,0.0,0.0,0.0,0.0,0.0,0.0,0.0,0.0,0.0,0.0,0.0,0.0,0.0,0.0,0.0,0.0,0.0,0.0,0.0,0.0,0.0,0.0,0.0,0.0,0.0,0.0,0.0,0.0,0.0,0.0,0.0,0.0,0.0,0.0,0.0,0.0,0.0,0.0,0.0,0.0,0.0,0.0,0.0,0.0,0.0,0.0,0.0,0.0,0.0,0.0,0.0,0.0,0.0,0.0,0.0,0.0,0.0,0.0,0.0,0.0,0.0,0.0,0.0,0.0,0.0,0.0,0.0,0.0,0.0,0.0,0.0,0.0,0.0,0.0,0.0,0.0,0.0,0.0,0.0,0.0,0.0,0.0,0.0,0.0,0.0,0.0,0.0,0.0,0.0,0.0,0.0,0.0,0.0,0.0,0.0,0.0,0.0,0.0,0.0,0.0,0.0,0.0,0.0,0.0,0.0,0.0,0.0,0.0,0.0,0.0,0.0,0.0,0.0,0.0,0.0,0.0,0.0,0.0,0.0,0.0,0.0,0.0,0.0,0.0,0.0,0.0,0.0,0.0,0.0,0.0,0.0,0.0,0.0,0.0,0.0,0.0,0.0,0.0,0.0,0.0,0.0,0.0,0.0,0.0,0.0,0.0,0.0,0.0,0.0,0.0,0.0,0.0,0.0,0.0,0.0,0.0,0.0,0.0,0.0,0.0,0.0,0.0,0.0,0.0,0.0,0.0,0.0,0.0,0.0,0.0,0.0,0.0,0.0,0.0,0.0,0.0,0.0,0.0,0.0,0.0,0.0,0.0,0.0,0.0,0.0,0.0,0.0,0.0,0.0,0.0,0.0,0.0,0.0,0.0,0.0,0.0,0.0,0.0,0.0,0.0,0.0,0.0,0.0,0.0,0.0,0.0,0.0,0.0,0.0,0.0,0.0,0.0,0.0,0.0,0.0,0.0,0.0,0.0,0.0,0.0,0.0,0.0,0.0,0.0,0.0,0.0,0.0,0.0,0.0,0.0,0.0,0.0,0.0,0.0,0.0,0.0,0.0,0.0,0.0,0.0,0.0,0.0,0.0,0.0,0.0,0.0,0.0,0.0,0.0,0.0,0.0,0.0,0.0,0.0,0.0,0.0,0.0,0.0,0.0,0.0,0.0,0.0,0.0,0.0,0.0,0.0,0.0,0.0,0.0,0.0,0.0,0.0,0.0,0.0,0.0,0.0,0.0,0.0,0.0,0.0,0.0,0.0,0.0,0.0,0.0,0.0,0.0,0.0,0.0,0.0,0.0,0.0,0.0,0.0,0.0,0.0,0.0,0.0,0.0,0.0,0.0,0.0,0.0,0.0,0.0,0.0,0.0,0.0,0.0,0.0,0.0,0.0,0.0,0.0,0.0,0.0,0.0,0.0,0.0,0.0,0.0,0.0,0.0,0.0,0.0,0.0,0.0,0.0,0.0,0.0,0.0,0.0,0.0,0.0,0.0,0.0,0.0,0.0,0.0,0.0,0.0,0.0,0.0,0.0,0.0,0.0,0.0,0.0,0.0,0.0,0.0,0.0,0.0,0.0,0.0,0.0,0.0,0.0,0.0,0.0,0.0,0.0,0.0,0.0,0.0,0.0,0.0,0.0,0.0,0.0,0.0,0.0,0.0,0.0,0.0,0.0,0.0,0.0,0.0,0.0,0.0,0.0,0.0,0.0,0.0,0.0,0.0,0.0,0.0,0.0,0.0,0.0,0.0,0.0,0.0,0.0,0.0,0.0,0.0,0.0,0.0,0.0,0.0,0.0,0.0,0.0,0.0,0.0,0.0,0.0,0.0,0.0,0.0,0.0,0.0,0.0,0.0,0.0,0.0,0.0,0.0,0.0,0.0,0.0,0.0,0.0,0.0,0.0,0.0,0.0,0.0,0.0,0.0,0.0,0.0,0.0,0.0,0.0,0.0,0.0,0.0,0.0,0.0,0.0,0.0,0.0,0.0,0.0,0.0,0.0,0.0,0.0,0.0,0.0,0.0,0.0,0.0,0.0,0.0,0.0,0.0,0.0,0.0,0.0,0.0,0.0,0.0,0.0,0.0,0.0,0.0,0.0,0.0,0.0,0.0,0.0,0.0,0.0,0.0,0.0,0.0,0.0,0.0,0.0,0.0,0.0,0.0,0.0,0.0,0.0,0.0,0.0,0.0,0.0,0.0,0.0,0.0,0.0,0.0,0.0,0.0,0.0,0.0,0.0,0.0,0.0,0.0,0.0,0.0,0.0,0.0,0.0,0.0,0.0,0.0,0.0,0.0,0.0,0.0,0.0,0.0,0.0,0.0,0.0,0.0,0.0,0.0,0.0,0.0,0.0,0.0,0.0,0.0,0.0,0.0,0.0,0.0,0.0,0.0,0.0,0.0,0.0,0.0,0.0,0.0,0.0,0.0,0.0,0.0,0.0,0.0,0.0,0.0,0.0,0.0,0.0,0.0,0.0,0.0,0.0,0.0,0.0,0.0,0.0,0.0,0.0,0.0,0.0,0.0,0.0,0.0,0.0,0.0,0.0,0.0,0.0,0.0,0.0,0.0,0.0,0.0,0.0,0.0,0.0,0.0,0.0,0.0,0.0,0.0,0.0,0.0,0.0,0.0,0.0,0.0,0.0,0.0,0.0,0.0,0.0,0.0,0.0,0.0,0.0,0.0,0.0,0.0,0.0,0.0,0.0,0.0,0.0,0.0,0.0,0.0,0.0,0.0,0.0,0.0,0.0,0.0,0.0,0.0,0.0,0.0,0.0,0.0,0.0,0.0,0.0,0.0,0.0,0.0,0.0,0.0,0.0,0.0,0.0,0.0,0.0,0.0,0.0,0.0,0.0,0.0,0.0,0.0,0.0,0.0,0.0,0.0,0.0,0.0,0.0,0.0,0.0,0.0,0.0,0.0,0.0,0.0,0.0,0.0,0.0,0.0,0.0,0.0,0.0,0.0,0.0,0.0,0.0,0.0,0.0,0.0,0.0,0.0,0.0,0.0,0.0,0.0,0.0,0.0,0.0,0.0,0.0,0.0,0.0,0.0,0.0,0.0,0.0,0.0,0.0,0.0,-1.9975,-1.9846,0.0,0.0,0.0,0.0,0.0,0.0,0.0,0.0,0.0,0.0,0.0,0.0,0.0,0.0,0.0,0.0,0.0,0.0,0.0,0.0,0.0,0.0,0.0,0.0,0.0,0.0,0.0,0.0,0.0,0.0,0.0,0.0,0.0,0.0,0.0,0.0,0.0,0.0,0.0,0.0,0.0,0.0,0.0,0.0,0.0,0.0,0.0,0.0,0.0,0.0,0.0,0.0,0.0,0.0,0.0,0.0,0.0,0.0,0.0,0.0,0.0,0.0,0.0,0.0,0.0,0.0,0.0,0.0,0.0,0.0,0.0,0.0,0.0,0.0,0.0,0.0,0.0,0.0,0.0,0.0,0.0,0.0,0.0,0.0,0.0,0.0,0.0,0.0,0.0,0.0,0.0,0.0,0.0,0.0,0.0,0.0,0.0,0.0,0.0,0.0,0.0,0.0,0.0,0.0,0.0,0.0,0.0,0.0,0.0,0.0,0.0,0.0,0.0,0.0,-2.0696,-2.0699,0.0,0.0,0.0,0.0,0.0,0.0,0.0,0.0,0.0,0.0,0.0,0.0,0.0,0.0,0.0,0.0,0.0,0.0,0.0,0.0,0.0,0.0,0.0,0.0,0.0,0.0,0.0,0.0,0.0,0.0,0.0,0.0,0.0,0.0,0.0,0.0,0.0,0.0,0.0,0.0,0.0,0.0,0.0,0.0,0.0,0.0,0.0,0.0,0.0,0.0,0.0,0.0,0.0,0.0,0.0,0.0,0.0,0.0,0.0,0.0,0.0,0.0,0.0,0.0,0.0,0.0,0.0,0.0,0.0,0.0,0.0,0.0,0.0,0.0,0.0,0.0,0.0,0.0,0.0,0.0,0.0,0.0,0.0,0.0,0.0,0.0,0.0,0.0,0.0,0.0,0.0,0.0,0.0,0.0,0.0,0.0,0.0,0.0,0.0,0.0,0.0,0.0,0.0,0.0,0.0,0.0,0.0,0.0,-1.9689,-2.013,-2.0386,-2.1119,-2.1652,-2.2178,-2.1575,-2.1624,-2.2262,-2.2353,0.0,0.0,0.0,0.0,0.0,0.0,0.0,0.0,0.0,0.0,0.0,0.0,0.0,0.0,0.0,0.0,0.0,0.0,0.0,0.0,0.0,0.0,0.0,0.0,0.0,0.0,0.0,0.0,0.0,0.0,0.0,0.0,0.0,0.0,0.0,0.0,0.0,0.0,-0.1304,-0.1329,-0.1342,-0.1525,-0.1345,0.0,0.0,0.0,0.0,0.0,0.0,0.0,0.0,0.0,0.0,0.0,0.0,0.0,0.0,0.0,0.0,0.0,0.0,0.0,0.0,0.0,0.0,0.0,0.0,0.0,0.0,0.0,0.0,0.0,0.0,0.0,0.0,0.0,0.0,0.0,0.0,0.0,0.0,0.0,0.0,0.0,0.0,0.0,-1.327,-1.3625,0.0,0.0,0.0,0.0,0.0,0.0,0.0,0.0,0.0,0.0,0.0,0.0,0.0,-1.7416,-1.8129,-1.8752,-1.9212,-1.9425,-2.025,-2.0784,-2.1062,-2.1848,-2.2621,-2.3295,-2.316,0.0,-2.3588,-2.3722,0.0,0.0,0.0,0.0,0.0,0.0,0.0,0.0,0.0,0.0,0.0,0.0,0.0,0.0,0.0,0.0,0.0,0.0,0.0,0.0,0.0,0.0,0.0,0.0,0.0,0.0,0.0,0.0,0.0,0.0,0.0,0.0,0.0,0.0,0.0,0.0,-0.2569,-0.2055,-0.1859,-0.1966,-0.2242,-0.2599,-0.2867,-0.3314,-0.3757,-0.4635,0.0,0.0,0.0,0.0,0.0,0.0,0.0,0.0,0.0,0.0,0.0,0.0,0.0,0.0,0.0,0.0,0.0,0.0,0.0,0.0,0.0,0.0,0.0,0.0,0.0,0.0,0.0,0.0,0.0,0.0,0.0,0.0,0.0,0.0,0.0,0.0,0.0,0.0,0.0,-1.3013,-1.372,-1.4214,-1.4597,-1.4926,0.0,0.0,0.0,0.0,0.0,0.0,0.0,0.0,0.0,-1.736,-1.7813,-1.833,-1.8837,-1.9393,-1.9922,-2.0259,-2.0923,-2.1475,-2.1738,-2.2444,-2.3057,-2.3493,-2.3907,-2.4294,-2.4541,-2.4522,-2.4681,-2.5131,0.0,0.0,0.0,0.0,-2.7251,-2.7831,0.0,0.0,0.0,0.0,0.0,0.0,0.0,0.0,0.0,0.0,0.0,0.0,0.0,0.0,0.0,-0.9594,0.0,0.0,0.0,0.0,0.0,0.0,0.0,0.0,0.0,0.0,0.0,0.0,-0.2502,-0.2297,-0.2295,-0.2561,-0.2911,-0.3437,-0.423,-0.4594,-0.4698,-0.5489,-0.6213,0.0,0.0,0.0,0.0,0.0,0.0,0.0,0.0,0.0,0.0,0.0,0.0,0.0,0.0,0.0,0.0,0.0,0.0,0.0,0.0,0.0,0.0,0.0,0.0,0.0,0.0,0.0,0.0,0.0,0.0,0.0,0.0,0.0,0.0,0.0,0.0,0.0,0.0,-1.3595,-1.4219,-1.489,-1.5151,-1.5463,0.0,0.0,0.0,0.0,0.0,0.0,-1.7042,-1.7334,-1.7788,-1.8305,-1.8776,-1.9229,-1.9497,-2.0219,-2.0668,-2.102,-2.1585,-2.2087,-2.2362,-2.2882,-2.3319,-2.3677,-2.4358,-2.4871,-2.5305,-2.5179,-2.5373,-2.5859,-2.6473,-2.7014,-2.7408,-2.7788,-2.8313,-2.8918,0.0,0.0,0.0,0.0,0.0,0.0,0.0,0.0,0.0,0.0,0.0,0.0,0.0,0.0,-0.7772,-0.808,-0.8254,-0.8207,0.0,0.0,0.0,0.0,0.0,0.0,0.0,0.0,0.0,-0.2933,-0.2442,-0.2307,-0.2616,-0.2866,-0.3283,-0.3871,-0.4797,-0.536,-0.5459,-0.6398,-0.7079,-0.7688,0.0,0.0,0.0,0.0,0.0,0.0,0.0,0.0,0.0,0.0,0.0,0.0,0.0,0.0,0.0,0.0,0.0,0.0,0.0,0.0,0.0,0.0,0.0,0.0,0.0,0.0,0.0,0.0,0.0,0.0,0.0,0.0,0.0,0.0,0.0,0.0,0.0,0.0,0.0,-1.5834,-1.6287,0.0,0.0,0.0,0.0,-1.6573,-1.6926,-1.7225,-1.735,-1.7722,-1.8347,-1.9136,-1.9504,-1.9965,-2.0412,-2.1246,-2.1615,-2.1615,-2.2167,-2.2608,-2.3047,-2.3047,-2.3493,-2.4206,-2.47,-2.5115,-2.5527,-2.5975,-2.6378,-2.6905,-2.7557,-2.8187,-2.8718,-2.8966,-2.9589,-3.0279,0.0,0.0,0.0,0.0,0.0,0.0,0.0,0.0,0.0,0.0,0.0,0.0,0.0,-0.5905,-0.6117,-0.6196,-0.6387,-0.6497,-0.638,0.0,0.0,0.0,0.0,0.0,0.0,0.0,-0.2657,-0.252,-0.2356,-0.2386,-0.2692,-0.3193,-0.3861,-0.4694,-0.569,-0.6496,-0.7118,-0.7552,-0.8122,-0.8932,-0.9483,-1.0044,0.0,0.0,0.0,0.0,0.0,0.0,0.0,0.0,0.0,0.0,0.0,0.0,0.0,0.0,0.0,0.0,0.0,0.0,0.0,0.0,0.0,0.0,0.0,0.0,0.0,0.0,0.0,0.0,0.0,0.0,0.0,0.0,0.0,0.0,0.0,0.0,0.0,-1.6202,-1.6571,0.0,-1.7279,-1.7471,-1.7559,-1.7471,-1.79,-1.8181,-1.8408,-1.9007,-1.9376,-1.9606,-1.9965,-2.0305,-2.0485,-2.0793,-2.1047,-2.1409,-2.2093,-2.2562,-2.2744,-2.3461,-2.4024,-2.4454,-2.4871,-2.538,-2.5801,-2.6302,-2.6704,-2.7115,-2.7708,-2.8191,-2.8657,-2.8973,-2.9599,-3.0228,0.0,0.0,0.0,0.0,0.0,0.0,0.0,0.0,0.0,0.0,0.0,-0.4027,-0.4182,-0.44,-0.4523,-0.4452,-0.4592,-0.4696,-0.4631,0.0,0.0,0.0,0.0,0.0,0.0,-0.2155,-0.1974,-0.1961,-0.204,-0.2293,-0.265,-0.3371,-0.4248,-0.5121,-0.6225,-0.727,-0.825,-0.8676,-0.9281,-0.9911,-1.0445,-1.1035,-1.1706,0.0,0.0,0.0,0.0,0.0,0.0,0.0,0.0,0.0,0.0,0.0,0.0,0.0,0.0,0.0,0.0,0.0,0.0,0.0,0.0,0.0,0.0,0.0,0.0,0.0,0.0,0.0,0.0,0.0,0.0,0.0,0.0,0.0,0.0,-1.5263,-1.607,-1.6669,-1.6949,-1.7271,-1.7674,-1.7951,-1.8112,-1.8112,-1.8426,-1.8798,-1.902,-1.951,-1.9892,-2.0023,-2.0264,-2.0531,-2.0698,-2.0773,-2.1034,-2.1387,-2.2074,-2.2463,-2.2641,-2.3598,-2.4227,-2.4407,-2.5136,-2.5633,-2.6052,-2.655,-2.7033,-2.7452,-2.78,-2.8203,-2.8749,-2.9052,-2.9599,-3.0216,0.0,0.0,0.0,0.0,0.0,0.0,0.0,0.0,0.0,0.0,-0.3078,-0.3077,-0.315,-0.3011,-0.2902,-0.2851,-0.2834,-0.2761,-0.2627,-0.2645,0.0,0.0,0.0,0.0,-0.0841,-0.0934,-0.1019,-0.1239,-0.1604,-0.2041,-0.262,-0.3419,-0.429,-0.5225,-0.6369,-0.7513,-0.872,-0.9765,-1.0402,-1.064,-1.1385,-1.2131,-1.2725,0.0,0.0,0.0,0.0,0.0,0.0,0.0,0.0,0.0,0.0,0.0,0.0,0.0,0.0,0.0,0.0,0.0,0.0,0.0,0.0,0.0,0.0,0.0,0.0,0.0,0.0,0.0,0.0,0.0,0.0,0.0,0.0,0.0,-1.5072,-1.585,-1.6517,-1.709,-1.7456,-1.77,-1.77,-1.8112,-1.8442,-1.8442,-1.862,-1.8869,-1.9224,-1.9259,-1.9603,-2.0493,-2.0493,-2.0755,-2.1182,-2.1339,-2.1578,-2.1744,-2.2093,-2.2421,-2.2839,-2.3453,-2.3919,-2.4293,-2.5406,-2.6019,-2.6257,-2.6905,-2.7418,-2.7869,-2.7881,-2.8431,-2.9131,-2.9353,-2.9819,-3.052,0.0,0.0,0.0,0.0,0.0,0.0,0.0,0.0,0.0,0.0,-0.2323,-0.2221,-0.2071,-0.1934,-0.1767,-0.1529,-0.1444,-0.1262,-0.0979,0.0,0.0,0.0,0.0,0.0,0.0698,0.0563,0.0214,-0.0219,-0.0875,-0.153,-0.2256,-0.3346,-0.4357,-0.5509,-0.6722,-0.8,-0.927,-1.0447,-1.1496,-1.2255,-1.2338,-1.2961,-1.3871,0.0,0.0,0.0,0.0,0.0,0.0,0.0,0.0,0.0,0.0,0.0,0.0,0.0,0.0,0.0,0.0,0.0,0.0,0.0,0.0,0.0,0.0,0.0,0.0,0.0,0.0,0.0,0.0,0.0,0.0,0.0,-1.397,-1.4987,-1.5289,-1.6198,-1.7114,-1.77,-1.787,-1.8031,-1.8362,-1.8531,-1.8612,-1.8612,-1.9111,-1.9471,-1.967,-2.0099,-2.0421,-2.0583,-2.0573,-2.0595,-2.0769,-2.0849,-2.1007,-2.1332,-2.1899,-2.2369,-2.2618,-2.3314,-2.3858,-2.4341,-2.4643,-2.5275,-2.6141,-2.6474,-2.6896,-2.7364,-2.8048,-2.8669,-2.9131,-2.9534,-3.0152,-3.0911,0.0,0.0,0.0,0.0,0.0,0.0,0.0,0.0,0.0,0.0,-0.1684,-0.1584,-0.1252,-0.107,-0.085,-0.0539,-0.0295,0.0,0.037,0.0,0.0,0.0,0.0,0.1921,0.1986,0.1659,0.1272,0.0818,-0.0136,-0.0953,-0.1769,-0.2993,-0.4211,-0.5413,-0.668,-0.8007,-0.9261,-1.073,-1.1875,-1.2838,-1.3316,-1.3998,-1.4857,-1.538,-1.6072,-1.6921,-1.7826,-1.8623,-1.9394,-2.0272,0.0,0.0,0.0,0.0,0.0,0.0,0.0,0.0,0.0,0.0,0.0,0.0,0.0,0.0,0.0,0.0,0.0,0.0,0.0,0.0,0.0,0.0,0.0,0.0,-1.4096,-1.5087,-1.5535,-1.6665,-1.7627,-1.7959,-1.8201,-1.8451,-1.8772,-1.8931,-1.9011,-1.9091,-1.9451,-1.974,-1.991,-2.0205,-2.0467,-2.063,-2.063,-2.0663,-2.0886,-2.0886,-2.1041,-2.1359,-2.1778,-2.2133,-2.2376,-2.3071,-2.3677,-2.417,-2.4524,-2.5161,-2.596,-2.6274,-2.6597,0.0,0.0,0.0,0.0,0.0,-2.9899,-3.0547,0.0,0.0,0.0,0.0,0.0,0.0,0.0,0.0,0.0,0.0,0.0,-0.0477,-0.0087,0.0472,0.0826,0.0779,0.1105,0.1344,0.0,0.0,0.0,0.3051,0.3013,0.3062,0.3188,0.2644,0.2156,0.1724,0.0615,-0.0369,-0.1231,-0.2523,-0.3806,-0.5132,-0.6395,-0.7709,-0.9032,-1.063,-1.1866,-1.2894,-1.4231,-1.5116,-1.5643,-1.6141,-1.6684,-1.7357,-1.8511,-1.9236,-1.9935,-2.1431,0.0,0.0,0.0,0.0,0.0,0.0,0.0,0.0,0.0,0.0,0.0,0.0,0.0,0.0,0.0,0.0,0.0,0.0,0.0,0.0,0.0,0.0,0.0,0.0,-1.4207,-1.4942,-1.5766,-1.7098,-1.8009,-1.8052,-1.8505,-1.8851,-1.9082,-1.9231,-1.945,-1.9571,-1.9797,-1.9925,-1.9887,-1.9877,0.0,0.0,0.0,-2.0661,-2.1054,-2.1131,-2.1227,-2.1507,-2.1725,-2.1897,-2.2197,-2.2992,-2.3492,-2.3744,-2.4559,-2.5258,-2.5701,-2.6071,-2.6451,-2.6974,-2.7505,-2.7724,-2.7742,-2.8605,-2.9319,-2.9824,0.0,0.0,0.0,0.0,0.0,0.0,0.0,0.0,0.0,-0.067,0.1757,0.3569,0.3881,0.6501,0.7214,0.4701,0.4786,0.4194,0.0,0.0,0.339,0.3926,0.413,0.4249,0.4293,0.3936,0.3322,0.2584,0.1537,0.0431,-0.0738,-0.2214,-0.3562,-0.4833,-0.6336,-0.7763,-0.913,-1.0624,-1.1954,-1.3213,-1.4586,-1.5565,-1.6396,-1.6999,-1.7719,-1.8555,-1.9295,-1.9864,-2.0417,-2.1709,-2.2667,-2.3502,-2.456,-2.5259,0.0,0.0,0.0,0.0,0.0,0.0,0.0,0.0,0.0,0.0,0.0,0.0,0.0,0.0,0.0,0.0,0.0,0.0,0.0,-1.3905,-1.4715,-1.5528,-1.6117,-1.7024,-1.779,-1.8264,-1.8804,-1.9231,-1.9478,-1.9636,-1.9722,-1.9621,-1.9821,-1.9817,-1.9561,-1.9752,-1.9826,-1.9972,-1.9972,-2.0046,-2.0337,-2.0483,-2.0876,-2.1397,-2.1608,0.0,-2.2639,-2.295,-2.3293,-2.3676,-2.3999,-2.4557,-2.5298,-2.562,-2.6151,-2.6846,-2.768,-2.8197,-2.8545,-2.8964,-2.939,-2.9824,0.0,0.0,0.0,0.0,0.0,0.0,0.0,0.0,0.0,0.0,0.3727,0.5491,0.7348,0.9205,0.9688,0.8171,0.8477,0.0,0.0,0.5545,0.5422,0.4389,0.4522,0.4727,0.4857,0.44,0.3873,0.3285,0.2172,0.1057,-0.0117,-0.1525,-0.2986,-0.4493,-0.5984,-0.7464,-0.8948,-1.0534,-1.191,-1.3196,-1.4874,-1.6074,-1.6955,-1.7655,-1.8306,-1.901,-1.9877,-2.0353,-2.0773,-2.1949,-2.2724,-2.3338,-2.4082,-2.4555,-2.4696,0.0,0.0,0.0,0.0,0.0,0.0,0.0,0.0,0.0,0.0,0.0,0.0,0.0,0.0,-1.2741,-1.282,0.0,-1.371,-1.4274,-1.4929,-1.5549,-1.6125,-1.6971,-1.7667,-1.8224,-1.8595,-1.8945,-1.9259,-1.9468,-1.9533,-1.9639,-1.9757,-1.9796,-1.966,-1.9723,-1.9867,-1.9929,-1.9929,-2.0073,-2.042,-2.0492,-2.0759,-2.1216,-2.1432,-2.1822,-2.2483,-2.2714,-2.3139,-2.3751,-2.397,-2.4411,-2.5008,-2.5528,-2.609,-2.6598,-2.7321,-2.7704,-2.8053,-2.8386,-2.8796,-2.9215,0.0,0.0,0.0,0.0,0.0,0.0,0.0,0.0,0.0,0.0,0.6219,0.8074,1.0828,1.1839,1.2097,0.0,0.0,0.0,0.0,0.9013,0.8463,0.6651,0.6728,0.6864,0.7108,0.5937,0.5197,0.4923,0.3075,0.1677,0.0614,-0.0782,-0.2339,-0.3996,-0.542,-0.694,-0.858,-1.0302,-1.173,-1.3105,-1.5067,-1.6426,-1.7456,-1.8295,-1.8815,-1.93,-2.0248,-2.0729,-2.1016,-2.2141,-2.2671,-2.3026,-2.3513,-2.3695,-2.3784,-2.3659,-2.2953,0.0,0.0,0.0,0.0,0.0,0.0,0.0,0.0,-1.3953,-1.3464,-1.3245,-1.3158,-1.3193,-1.3499,-1.3637,-1.3928,-1.4569,-1.4999,-1.5488,-1.6061,-1.6892,-1.7504,-1.7926,-1.8313,-1.8627,-1.8995,-1.9204,-1.9393,-1.9561,-1.9675,-1.9696,-1.9677,-1.9677,-1.9748,-1.989,-1.995,-2.0091,-2.0432,-2.0512,-2.0635,-2.0962,-2.1161,-2.1609,-2.2199,-2.2424,-2.3048,-2.3822,-2.4215,-2.4622,-2.4921,-2.5688,-2.6164,-2.6427,-2.693,-2.7214,-2.7403,-2.7723,-2.8183,-2.8587,0.0,0.0,0.0,0.0,0.0,0.0,0.0,0.0,0.0,0.0,0.0,0.0,0.0,0.0,0.0,0.0,0.0,0.0,1.2317,1.2659,1.3188,1.3956,1.4121,1.4224,1.4261,1.0981,0.9118,0.884,0.4899,0.246,0.1454,-0.0112,-0.1616,-0.3116,-0.4824,-0.645,-0.8059,-0.9673,-1.137,-1.3231,-1.4873,-1.6472,-1.8025,-1.9175,-1.9643,-1.9811,-2.0386,-2.0764,-2.112,-2.2146,-2.2602,-2.2862,-2.358,-2.3798,-2.3752,-2.2958,-2.24,-2.1716,-2.0348,-1.8877,-1.7605,-1.6763,-1.6253,-1.5783,0.0,-1.4767,-1.4299,-1.381,-1.3825,-1.392,-1.379,-1.4145,-1.4569,-1.4792,-1.5363,-1.5867,-1.6202,-1.6666,-1.713,-1.7533,-1.8409,-1.8995,-1.9122,-1.9442,-1.9511,-1.9534,-1.9493,-1.9459,-1.9173,-1.9153,-1.922,-1.922,-1.9364,-1.9431,-1.9431,-1.9831,-2.0245,-2.0665,-2.0994,-2.1371,-2.1856,-2.2273,-2.281,-2.3511,-2.4685,-2.517,-2.5312,-2.607,-2.6358,-2.6483,-2.7188,-2.759,-2.7789,-2.8,-2.8276,-2.8651,0.0,0.0,0.0,0.0,0.0,0.0,0.0,0.0,0.0,0.0,0.0,0.0,0.0,0.0,0.0,0.0,0.0,0.0,1.5596,1.5816,1.5671,1.5042,1.523,1.5366,1.5471,1.3826,1.2874,1.2635,1.0614,0.8038,0.5,0.3711,0.1108,-0.2691,-0.4452,-0.6205,-0.8022,-0.9742,-1.1469,-1.3162,-1.5089,-1.6621,-1.7922,-1.938,-2.0055,-2.0359,-2.0858,-2.0952,0.0,0.0,-2.1467,-2.1379,-2.2005,-2.2247,-2.2213,-2.1972,-2.1555,-2.0835,-1.934,-1.8293,-1.7535,-1.7143,-1.6699,-1.6184,-1.5896,-1.5346,-1.4848,-1.4361,-1.4281,-1.4281,-1.4145,-1.4425,-1.4713,-1.4999,-1.5568,-1.607,-1.6272,-1.6839,-1.7323,-1.747,-1.8052,-1.8475,-1.8665,-1.8824,-1.8963,-1.9114,-1.9229,-1.9204,-1.9085,-1.9075,-1.9075,-1.9075,-1.9208,-1.9351,-1.9473,-1.9747,-2.0041,-2.0313,-2.0567,-2.1008,-2.1553,-2.1969,-2.2569,-2.3464,-2.4098,-2.4715,-2.5213,-2.5747,-2.6274,-2.6794,-2.7323,-2.7669,-2.8,-2.8276,-2.8587,-2.8908,0.0,0.0,0.0,0.0,0.0,0.0,0.0,0.0,0.0,0.0,0.0,0.0,0.0,0.0,0.0,0.0,0.0,0.0,0.0,1.9371,1.9095,1.7913,1.8039,1.8193,1.8252,1.7151,1.6643,1.672,1.537,1.3122,1.001,0.9019,0.5503,-0.0054,-0.1729,-0.434,-0.757,-0.9484,-1.131,-1.3001,-1.5083,-1.6664,-1.7955,-1.9379,-2.0245,-2.0696,-2.104,-2.0941,0.0,0.0,-2.049,-2.0212,-2.0643,-2.0692,-2.0639,-2.0765,-2.0404,-1.975,-1.8543,-1.798,-1.7632,-1.7297,-1.6836,-1.642,-1.63,-1.5826,-1.5221,-1.4903,-1.4784,-1.4641,-1.4569,-1.4641,-1.4848,-1.5125,-1.5638,-1.607,-1.6272,-1.6908,-1.7401,-1.747,-1.7735,-1.7998,-1.8269,-1.8414,-1.8617,-1.8875,-1.9008,-1.9075,-1.9075,-1.9075,-1.9075,-1.9075,-1.9208,-1.9417,-1.9605,-1.9802,-2.0009,-2.0216,-2.041,-2.0783,-2.1305,-2.1793,-2.2531,-2.3346,-2.3743,-2.4298,-2.5012,-2.5385,-2.5955,-2.6683,-2.7066,-2.7379,-2.7793,-2.8112,-2.862,-2.9099,0.0,0.0,0.0,0.0,0.0,0.0,0.0,0.0,0.0,0.0,0.0,0.0,0.0,0.0,0.0,0.0,0.0,0.0,0.0,2.3728,2.4511,2.5245,2.5275,2.5254,2.5191,2.1815,2.0457,2.1301,1.7571,1.5984,1.641,1.5671,1.1997,0.5958,0.4546,0.015,-0.6378,-0.8434,-1.0632,-1.286,-1.4697,-1.6569,-1.837,-1.9423,-2.0194,-2.0779,-2.057,0.0,0.0,0.0,-1.9968,-1.991,-1.9938,-1.9659,-1.9333,-1.9296,-1.8882,-1.8416,-1.8182,-1.7913,-1.7547,-1.6907,-1.6572,-1.6389,-1.6221,-1.59,-1.5659,-1.5492,-1.5497,-1.5363,-1.4935,-1.507,-1.5204,-1.5204,-1.5576,-1.5938,-1.6272,-1.663,-1.7047,-1.747,-1.7657,-1.7852,-1.8269,-1.8414,-1.8674,-1.9075,-1.9075,-1.9075,-1.9075,-1.9075,-1.9075,-1.9075,-1.9208,-1.9417,-1.9605,-1.9802,-2.0074,-2.041,-2.0604,-2.0797,-2.0937,-2.1969,-2.2669,-2.3027,-2.3937,-2.4496,-2.4845,-2.5141,-2.5536,-2.5876,-2.6237,-2.6545,-2.6877,-2.7239,-2.8091,-2.9162,0.0,0.0,0.0,0.0,0.0,0.0,0.0,0.0,0.0,0.0,0.0,0.0,0.0,0.0,0.0,0.0,0.0,0.0,0.0,2.3916,2.4784,2.5623,2.5664,2.5905,2.6413,2.5252,2.505,2.5876,2.4583,2.2713,2.0341,1.9778,1.6809,1.1896,1.0752,0.6186,-0.0799,-0.2691,-0.6915,-1.253,-1.4533,-1.6238,-1.7688,-1.8951,-1.9695,-2.0029,0.0,0.0,0.0,0.0,-1.8735,-1.8352,-1.8612,-1.85,-1.8254,-1.8228,-1.8154,-1.8013,-1.7629,-1.7511,-1.7505,-1.711,-1.6819,-1.6562,-1.637,-1.6086,-1.5656,-1.5126,-1.5155,-1.5127,-1.4649,-1.4907,-1.5133,-1.4999,-1.5443,-1.5876,-1.5938,-1.6491,-1.6978,-1.7116,-1.7392,-1.7735,-1.8076,-1.8269,-1.8472,-1.8684,-1.8684,-1.8684,-1.8684,-1.8684,-1.8741,-1.8875,-1.9075,-1.9128,-1.9147,-1.9351,-1.9606,-1.9924,-2.0692,-2.1169,-2.1446,-2.1926,-2.2261,-2.265,-2.3082,-2.3616,-2.428,-2.4619,-2.5161,-2.5824,-2.6184,-2.6492,-2.6823,-2.7184,-2.7658,-2.8186,0.0,0.0,0.0,0.0,0.0,0.0,0.0,0.0,0.0,0.0,0.0,0.0,0.0,0.0,0.0,0.0,0.0,0.0,0.0,0.0,2.5104,2.5682,2.5702,2.6082,2.6913,2.6903,2.7454,2.8605,2.8599,2.7468,2.5266,2.4953,2.2224,1.7555,1.6701,1.2416,0.5545,0.1559,-0.3392,-0.8915,-1.3215,-1.5746,-1.7079,-1.8417,-1.9121,0.0,0.0,0.0,0.0,-1.81,-1.7515,-1.7057,-1.7273,-1.7112,-1.6856,-1.699,-1.7108,-1.7117,-1.6917,-1.7008,-1.7115,-1.6914,-1.6769,-1.6655,-1.6552,-1.6287,-1.5886,-1.5321,-1.5235,-1.5128,-1.4651,-1.4796,-1.4993,-1.4919,-1.5229,-1.5513,-1.5797,-1.6219,-1.656,-1.676,-1.7116,-1.7392,-1.7657,-1.7862,-1.8144,-1.8482,-1.8482,-1.8482,-1.8482,-1.8482,-1.8549,-1.8674,-1.8721,-1.8747,-1.8701,-1.8806,-1.9193,-1.9783,-2.0546,-2.1186,-2.1698,-2.1937,-2.2173,-2.2555,-2.2739,-2.3242,-2.3874,-2.4227,-2.4749,-2.538,-2.5728,-2.604,-2.6362,-2.6699,-2.6973,-2.7258,0.0,0.0,0.0,0.0,0.0,0.0,0.0,0.0,0.0,0.0,0.0,0.0,0.0,0.0,0.0,0.0,0.0,0.0,0.0,0.0,0.0,2.5691,2.5699,2.6094,2.6984,2.6971,2.7791,2.9507,2.9537,2.9985,3.0808,3.0807,2.8026,2.298,2.2426,1.8726,1.2408,0.4391,-0.0149,-0.2589,-1.0971,-1.5216,-1.6553,-1.7765,0.0,0.0,0.0,0.0,-1.7291,-1.6823,-1.638,-1.5983,-1.5932,-1.5579,-1.5313,-1.567,-1.5759,-1.5751,-1.6103,-1.6328,-1.6438,-1.6289,-1.6424,-1.6597,-1.6604,-1.6427,-1.6213,-1.5933,-1.5588,-1.5269,-1.4909,-1.4728,-1.4731,-1.4783,-1.4856,-1.5086,-1.5655,-1.5743,-1.5964,-1.65,-1.6806,-1.6963,-1.7232,-1.7361,-1.7773,-1.8377,-1.8424,-1.8482,-1.8482,-1.8482,-1.8482,-1.8482,-1.8238,-1.8178,-1.835,-1.8258,-1.874,-1.9817,-2.0193,-2.0862,-2.1663,-2.2061,-2.2371,-2.2678,-2.2969,-2.3318,-2.3628,-2.3936,-2.4287,-2.462,-2.4892,-2.5188,-2.555,-2.5798,-2.6056,-2.6497,0.0,0.0,0.0,0.0,0.0,0.0,0.0,0.0,0.0,0.0,0.0,0.0,0.0,0.0,0.0,0.0,0.0,0.0,0.0,0.0,0.0,0.0,0.0,0.0,0.0,0.0,0.0,0.0,0.0,3.0589,3.0799,3.0792,3.0051,2.8695,2.8504,2.4813,1.8263,1.0615,0.3895,-0.2316,0.0,-1.465,-1.5948,0.0,0.0,0.0,0.0,0.0,-1.6826,-1.6468,-1.5705,-1.4858,-1.4606,-1.4433,-1.4326,-1.4327,-1.4714,-1.5116,-1.5236,-1.5629,-1.6,-1.5793,-1.6106,-1.6263,-1.598,-1.5928,-1.5782,-1.5125,-1.4896,-1.4582,-1.3859,-1.4044,-1.4148,-1.3972,-1.4269,-1.4649,-1.4856,-1.538,-1.5909,-1.6327,-1.6797,-1.7193,-1.7551,-1.7379,-1.7429,-1.7694,-1.777,-1.7745,-1.7745,-1.7862,-1.7998,-1.8144,-1.7995,-1.7927,-1.7905,-1.7974,-1.8324,-1.8879,-1.9924,-2.0665,-2.111,-2.1882,-2.2371,-2.2678,-2.2969,-2.3318,-2.3628,-2.3936,-2.4287,-2.462,-2.4892,-2.5188,-2.555,-2.5798,-2.615,-2.6515,0.0,0.0,0.0,0.0,0.0,0.0,0.0,0.0,0.0,0.0,0.0,0.0,0.0,0.0,0.0,0.0,0.0,0.0,0.0,0.0,0.0,0.0,0.0,0.0,0.0,0.0,0.0,0.0,0.0,0.0,0.0,3.0757,3.0762,3.0747,3.0652,2.8507,2.446,1.713,0.0,0.0,0.0,0.0,0.0,0.0,0.0,0.0,0.0,0.0,-1.5849,-1.5171,-1.4471,-1.3805,-1.3484,-1.3351,-1.3324,-1.3362,-1.369,-1.408,-1.4285,-1.4832,-1.5347,-1.5297,-1.5663,-1.5967,-1.5836,-1.5679,-1.5462,-1.5021,-1.4592,-1.4135,-1.3553,-1.3587,-1.3668,-1.3484,-1.3859,-1.4263,-1.4548,-1.5112,-1.5667,-1.6038,-1.653,-1.696,-1.7177,-1.7002,-1.7,-1.7072,-1.7269,-1.7392,-1.7392,-1.752,-1.7725,-1.7862,-1.7543,-1.7302,-1.715,-1.7339,-1.7759,-1.8393,-1.9224,-1.9968,-2.0546,-2.1272,-2.1715,-2.1965,-2.2397,-2.2687,-2.2872,-2.3354,-2.3838,-2.4345,-2.4667,-2.5163,-2.5702,-2.5962,-2.6326,-2.6645,0.0,0.0,0.0,0.0,0.0,0.0,0.0,0.0,0.0,0.0,0.0,0.0,0.0,0.0,0.0,0.0,0.0,0.0,0.0,0.0,0.0,0.0,0.0,0.0,0.0,0.0,0.0,0.0,0.0,0.0,0.0,0.0,0.0,0.0,0.0,0.0,0.0,0.0,0.0,0.0,0.0,0.0,0.0,0.0,0.0,0.0,0.0,-1.5828,-1.4567,-1.2644,-1.2413,-1.2852,-1.2607,-1.244,-1.2421,-1.2589,-1.2774,-1.2967,-1.3372,-1.3987,-1.4546,-1.4703,-1.5107,-1.5579,-1.5818,-1.5512,-1.5143,-1.5071,-1.4433,-1.3805,-1.3446,-1.3265,-1.3164,-1.3115,-1.3408,-1.3829,-1.4358,-1.4832,-1.5296,-1.5859,-1.6239,-1.6478,-1.6513,-1.6487,-1.6478,-1.6499,-1.6767,-1.7028,-1.7097,-1.7323,-1.7472,-1.7552,-1.7045,-1.6626,-1.6384,-1.6648,-1.7237,-1.8109,-1.8509,-1.9172,-2.0017,-2.0526,-2.0848,-2.1031,-2.1635,-2.1898,-2.1966,-2.2536,-2.3178,-2.3838,-2.4271,-2.4964,-2.5709,-2.5977,-2.6256,-2.657,0.0,0.0,0.0,0.0,0.0,0.0,0.0,0.0,0.0,0.0,2.1004,0.0,0.0,0.0,0.0,0.0,0.0,0.0,0.0,0.0,0.0,0.0,0.0,0.0,0.0,0.0,0.0,0.0,2.7893,0.0,0.0,0.0,0.0,0.0,0.0,0.0,0.0,0.0,0.0,0.0,0.0,0.0,0.0,0.0,0.0,0.0,-1.57,-1.4965,-1.3264,-0.6932,-0.8221,-1.2483,-1.22,-1.1935,-1.1728,-1.1868,-1.2166,-1.251,-1.2822,-1.3268,-1.3676,-1.3936,-1.4418,-1.4829,-1.4673,-1.4899,-1.4998,-1.4175,-1.382,-1.3354,-1.2507,-1.2515,-1.2541,-1.2258,-1.2678,-1.3307,-1.4006,-1.4424,-1.4947,-1.5779,-1.6212,-1.6428,-1.6466,-1.6264,-1.6088,-1.5938,-1.585,-1.5991,-1.6412,-1.683,-1.6945,-1.6908,-1.685,-1.6728,-1.6384,-1.6648,-1.7076,-1.7601,-1.8238,-1.8897,-1.9524,-2.0165,-2.0632,-2.1031,-2.1524,0.0,-2.1966,-2.2536,-2.2938,-2.3178,-2.3626,-2.4007,-2.4376,-2.4696,-2.5034,-2.5331,0.0,0.0,0.0,0.0,0.0,0.0,0.0,0.0,0.0,0.0,1.545,2.1744,0.0,0.0,0.0,0.0,0.0,0.0,0.0,0.0,0.0,0.0,0.0,0.0,0.0,2.5658,2.6082,2.6535,0.0,2.7383,2.7778,2.7788,2.7766,2.7681,2.7599,0.0,0.0,0.0,0.0,0.0,0.0,0.0,0.0,0.0,0.0,0.0,0.0,-0.9275,-0.7664,-0.0194,0.0468,-0.2373,-0.5632,-0.6412,-0.6882,-1.0661,-1.1888,-1.2076,-1.2452,-1.288,-1.3266,-1.342,-1.3776,-1.4042,-1.4092,-1.4238,-1.4217,-1.3818,-1.3423,-1.3033,-1.2243,-1.2217,-1.2248,-1.1908,-1.2352,-1.2987,-1.3614,-1.4122,-1.4633,-1.5375,-1.5657,-1.5825,-1.5903,-1.5575,-1.5431,-1.5338,-1.521,-1.5434,-1.6,-1.6372,-1.6455,-1.6294,-1.6422,-1.6377,-1.6155,-1.6534,-1.6853,-1.7245,-1.7823,-1.835,-1.8916,-1.9385,-1.9768,-2.0195,-2.0627,-2.0881,-2.108,-2.1628,-2.2188,-2.2728,-2.3045,-2.3593,-2.4269,-2.4419,-2.4751,-2.511,0.0,0.0,0.0,0.0,0.0,0.0,0.0,-0.4066,-0.0975,0.0198,0.7981,1.6007,2.2707,2.4607,2.5371,0.0,0.0,0.0,0.0,0.0,0.0,0.0,0.0,0.0,0.0,0.0,0.0,2.6047,2.6047,0.0,0.0,0.0,0.0,0.0,2.6809,2.6601,2.5875,0.0,0.0,0.0,0.0,-0.8745,0.0,0.0,0.0,0.0,0.0,-0.4223,-0.2511,0.6406,0.9663,0.9156,0.4083,0.0771,-0.2328,-0.798,-1.064,-1.1802,-1.2204,-1.2626,-1.2929,-1.3074,-1.318,-1.3377,-1.3571,-1.3551,-1.3469,-1.3325,-1.3076,-1.2736,-1.212,-1.208,-1.2044,-1.1703,-1.2131,-1.2716,-1.3324,-1.3782,-1.4273,-1.4835,-1.5005,-1.5057,-1.5078,-1.4774,-1.462,-1.4626,-1.4736,-1.5035,-1.5607,-1.5943,-1.6017,-1.5706,-1.5932,-1.5989,-1.5866,-1.6296,-1.6684,-1.7011,-1.7468,-1.7931,-1.8367,-1.8637,-1.8999,-1.9356,-1.9733,-2.0029,-2.0233,-2.0736,-2.1462,-2.2206,-2.2413,-2.3161,-2.4118,-2.4104,-2.438,-2.484,0.0,0.0,0.0,0.0,0.0,0.0,0.0,-0.8245,-0.6223,-0.1477,-0.0207,0.4663,1.6239,2.2537,2.5903,0.0,0.0,0.0,0.0,0.0,0.0,0.0,0.0,0.0,0.0,0.0,0.0,2.4855,2.4855,0.0,0.0,0.0,0.0,0.0,0.0,2.4577,2.3906,1.8447,0.0,0.0,0.0,0.0,0.0,0.0,0.0,0.0,0.0,-0.4049,-0.1675,1.1902,1.6556,1.6563,1.612,0.805,-0.1477,-0.2448,-0.7029,-1.1895,-1.2262,-1.2462,-1.2578,-1.2725,-1.2871,-1.2881,-1.2675,-1.2926,-1.3059,-1.2534,-1.248,-1.2359,-1.1747,-1.1818,-1.1833,-1.1491,-1.1917,-1.2493,-1.3051,-1.3409,-1.3784,-1.4286,-1.4381,-1.4335,-1.4209,-1.3949,-1.3857,-1.3938,-1.4089,-1.451,-1.5198,-1.5453,-1.5429,-1.5184,-1.5605,-1.5809,-1.574,-1.6202,-1.6591,-1.7011,-1.7357,-1.7755,-1.8139,-1.8464,-1.8827,-1.9239,-1.95,-1.9875,0.0,-2.066,-2.1095,-2.1505,-2.1794,-2.225,-2.2787,-2.285,-2.3123,-2.3541,0.0,0.0,0.0,0.0,0.0,0.0,0.0,-0.9874,-0.9142,-0.738,-0.4017,0.0087,0.5038,1.4356,2.1701,0.0,0.0,0.0,0.0,0.0,0.0,0.0,0.0,0.0,0.0,0.0,2.4426,2.4461,2.4495,0.0,0.0,0.0,0.0,0.0,0.0,2.4098,2.3217,1.3878,0.0,0.0,0.0,0.0,0.0,0.0,0.0,0.0,0.0,0.0,1.024,2.0222,2.3653,2.3767,2.3912,1.4663,0.3025,-0.0971,-0.6954,-1.2286,-1.2272,-1.251,-1.2682,-1.2487,-1.248,-1.248,-1.2274,-1.2543,-1.2665,-1.2175,-1.2236,-1.2174,-1.156,-1.1687,-1.1765,-1.1286,-1.1703,-1.2188,-1.249,-1.2634,-1.289,-1.326,-1.3206,-1.3202,-1.3319,-1.3188,-1.3103,-1.33,-1.3316,-1.351,-1.3909,-1.4416,-1.4722,-1.4907,-1.5028,-1.5241,-1.5546,-1.6009,-1.641,-1.6797,-1.7245,-1.7689,-1.7963,-1.8398,-1.8827,-1.9239,-1.95,-1.9823,0.0,-2.061,-2.1006,-2.1326,-2.1664,-2.2091,-2.2509,-2.2663,-2.2934,-2.3363,0.0,0.0,0.0,0.0,0.0,0.0,-1.1016,-1.0962,-1.1022,-1.1567,-0.7983,-0.4637,-0.25,0.5277,1.272,1.8692,0.0,0.0,0.0,0.0,0.0,0.0,0.0,0.0,0.0,0.0,2.4078,2.4191,2.4487,2.4653,0.0,0.0,2.4875,2.4597,0.0,0.0,0.0,0.0,0.0,0.0,0.0,0.0,0.0,0.0,0.0,0.0,0.0,0.0,0.0,0.0,0.0,2.7783,2.7842,1.9718,0.8874,0.2285,-0.5892,-1.2779,-1.268,-1.275,-1.2753,-1.2475,-1.2317,-1.2153,-1.2081,-1.2255,-1.2376,-1.1987,-1.2079,-1.2058,-1.1428,-1.1622,-1.1696,-1.1217,-1.1631,-1.2006,-1.2075,-1.2107,-1.2234,-1.2425,-1.2421,-1.2446,-1.2599,-1.2479,-1.2449,-1.2546,-1.2579,-1.2644,-1.2822,-1.343,-1.3984,-1.4471,-1.4565,-1.4893,-1.5362,-1.5768,-1.6181,-1.6637,-1.7134,-1.7523,-1.7854,-1.8344,-1.8638,-1.8851,-1.9175,-1.9434,0.0,-2.01,-2.0404,-2.0765,-2.1129,-2.1499,-2.1863,-2.2117,-2.2425,-2.2859,0.0,0.0,0.0,0.0,0.0,0.0,0.0,-1.19,-1.2034,-1.2503,-1.3124,-1.0865,-0.4022,-0.3778,-0.1636,0.4376,0.0,0.0,0.0,0.0,0.0,0.0,0.0,0.0,0.0,0.0,2.3774,2.3896,2.4777,2.5223,2.5326,2.6112,2.6054,2.528,0.0,0.0,0.0,0.0,0.0,0.0,0.0,0.0,0.0,0.0,0.0,0.0,0.0,0.0,0.0,0.0,0.0,0.0,0.0,2.271,0.0,0.0,-0.2748,-1.3425,-1.357,-1.3159,-1.2715,-1.2715,-1.2319,-1.1926,-1.2009,-1.2078,-1.2059,-1.1998,-1.2064,-1.1934,-1.1428,-1.1622,-1.1696,-1.1217,-1.1631,-1.1929,-1.1706,-1.1974,-1.2235,-1.2164,-1.2235,-1.2235,-1.2235,-1.2004,-1.1769,-1.157,-1.1848,-1.2089,-1.2328,-1.2621,-1.3111,-1.3778,-1.424,-1.4715,-1.5215,-1.5566,-1.6019,-1.657,-1.6899,-1.7245,-1.7711,-1.8205,-1.826,-1.8025,-1.842,-1.856,0.0,-1.8799,-1.9165,-1.9539,-1.9894,-2.0229,-2.0543,-2.0893,-2.1237,-2.1664,0.0,0.0,0.0,0.0,0.0,0.0,0.0,-1.2711,-1.2881,-1.371,-1.4336,-1.3812,-1.1462,-0.7672,-0.4431,-0.2396,0.0,0.0,0.0,0.0,0.0,0.0,0.0,0.0,0.0,0.0,2.4331,2.4527,2.5348,2.5801,2.5914,2.6213,2.6213,2.5909,2.5823,2.5499,0.0,0.0,0.0,0.0,0.0,0.0,-1.5588,0.0,0.0,0.0,0.0,0.0,0.0,0.0,0.0,0.0,0.0,0.0,0.0,0.8578,0.0197,-0.7851,-1.2377,-1.3568,-1.3433,-1.2987,-1.2717,-1.244,-1.2301,-1.2349,-1.2241,-1.187,-1.1943,-1.1939,-1.1525,-1.1563,-1.1621,-1.1269,-1.1471,-1.1484,-1.1111,-1.119,-1.125,-1.125,-1.1476,-1.1627,-1.1586,-1.1443,-1.1403,-1.1476,-1.1511,-1.1725,-1.2127,-1.2321,-1.2837,-1.3761,-1.413,-1.4547,-1.5039,-1.5498,-1.5904,-1.6285,-1.6422,-1.6711,-1.7024,-1.7203,-1.7357,-1.7454,-1.7861,-1.8211,-1.8427,-1.8773,-1.9139,-1.9526,-1.9867,-2.0215,-2.0514,-2.0878,-2.1208,-2.1575,0.0,0.0,0.0,0.0,0.0,0.0,0.0,-1.3294,-1.3526,-1.4471,-1.5154,-1.5496,-1.533,-1.2183,-0.9971,-0.9858,0.0,0.0,0.0,0.0,0.0,0.0,0.0,0.0,0.0,2.4497,2.4872,2.5049,2.594,2.644,2.6537,2.6935,2.6917,2.6561,2.6513,2.4742,0.0,0.0,0.0,0.0,0.0,0.0,-1.5109,0.0,0.0,0.0,0.0,0.0,0.0,0.0,0.0,0.0,0.0,0.0,0.0,0.0,0.136,-0.5477,-1.2167,-1.3992,-1.3875,-1.3338,-1.2992,-1.2756,-1.2569,-1.2505,-1.2354,-1.1947,-1.1905,-1.1907,-1.1588,-1.1491,-1.1447,-1.1249,-1.1236,-1.1186,-1.0738,-1.0663,-1.0738,-1.0812,-1.0953,-1.1004,-1.1024,-1.0886,-1.0942,-1.1108,-1.1052,-1.1254,-1.1745,-1.1835,-1.2265,-1.315,-1.3508,-1.3914,-1.443,-1.4828,-1.5223,-1.5603,-1.5816,-1.6104,-1.6461,-1.6598,-1.6694,-1.6859,-1.7254,-1.752,0.0,-1.808,-1.8491,-1.8852,-1.9223,-1.9558,-1.9861,-2.0211,-2.0568,-2.0923,0.0,0.0,0.0,0.0,0.0,0.0,0.0,0.0,0.0,0.0,-1.5702,-1.6221,-1.6058,-1.6774,-1.7301,0.0,0.0,0.0,0.0,0.0,0.0,0.0,0.0,0.0,0.0,2.4483,2.491,2.557,2.6561,2.7094,2.7207,2.8012,2.7727,2.6534,2.6481,2.184,0.0,0.0,0.0,0.0,0.0,0.0,0.0,0.0,0.0,0.0,0.0,0.0,0.0,0.0,0.0,0.0,0.0,0.0,0.0,0.0,0.0,0.0,0.0,-1.4445,-1.4042,-1.3738,-1.3233,-1.284,-1.2746,-1.2597,0.0,-1.2212,-1.1971,-1.1755,-1.1586,-1.1478,-1.1342,-1.1066,-1.1028,-1.0962,-1.0519,-1.0519,-1.0507,-1.0714,-1.0504,-1.0468,-1.0534,-1.0478,-1.047,-1.0555,-1.0574,-1.0763,-1.1219,-1.1245,-1.1511,-1.2133,-1.2494,-1.2932,-1.3467,-1.3755,-1.4184,-1.4777,-1.5039,-1.5442,-1.5952,-1.6171,-1.6244,-1.6185,-1.6546,-1.663,-1.6522,-1.6989,-1.7419,-1.776,-1.8161,-1.8489,-1.875,-1.9168,-1.9487,-1.9852,0.0,0.0,0.0,0.0,0.0,0.0,0.0,0.0,0.0,0.0,-1.629,-1.6773,-1.665,-1.7519,-1.803,0.0,0.0,0.0,0.0,0.0,0.0,0.0,0.0,0.0,0.0,1.7398,2.0606,2.6177,2.7091,2.7667,2.7942,2.8147,2.538,2.0235,2.0124,1.2927,0.0,0.0,0.0,0.0,0.0,0.0,0.0,0.0,0.0,0.0,1.3773,2.092,0.0,0.0,0.0,0.0,0.0,0.0,0.0,0.0,0.1213,-0.5797,-1.2796,0.0,-1.43,-1.3987,-1.3797,-1.3584,0.0,-1.2918,-1.2773,-1.2498,-1.224,-1.2094,-1.1971,-1.171,-1.1423,-1.112,-1.0995,-1.0738,-1.0293,-1.0293,-1.0226,-1.0115,-1.0254,-1.0325,-1.0073,-1.0305,-1.0322,-1.0261,-1.0457,-1.0671,-1.0769,-1.0789,-1.0997,-1.144,-1.1687,-1.2332,-1.3467,-1.3755,-1.4131,-1.4661,-1.4686,-1.4871,-1.5307,-1.5247,-1.5383,-1.569,-1.6049,-1.633,-1.6522,-1.6989,-1.7461,-1.7882,-1.8201,-1.8567,-1.8955,-1.9293,-1.9605,-1.9984,0.0,0.0,0.0,0.0,0.0,0.0,0.0,0.0,0.0,0.0,0.0,0.0,0.0,0.0,0.0,0.0,0.0,0.0,0.0,0.0,0.0,0.0,0.0,0.0,0.9892,1.0834,1.3182,1.7191,1.7877,1.8288,1.8479,1.8564,1.6569,1.2777,0.946,0.0,0.0,0.0,0.0,0.0,-1.5156,0.0,0.0,0.0,0.0,0.0,1.256,1.8774,0.0,2.2197,2.2299,2.1764,0.0,0.0,0.0,0.0,-0.3594,-0.9932,-1.3877,-1.4893,-1.472,-1.4355,-1.4356,-1.423,-1.3663,-1.3482,-1.334,-1.2891,-1.2527,-1.2267,-1.2129,-1.1644,-1.1238,-1.0995,-1.0663,-1.0293,-0.9997,-0.9916,-0.9911,-0.9896,-0.9979,-1.0038,-0.9849,-0.9978,-0.9958,-0.9897,-1.0044,-1.0215,-1.0263,-1.0339,-1.0537,-1.0862,-1.1175,-1.1771,-1.2761,-1.3082,-1.3442,-1.3851,-1.4008,-1.4333,-1.4755,-1.4831,-1.5108,-1.5513,-1.578,-1.6132,-1.6522,-1.6989,-1.7502,-1.7922,-1.8254,-1.8634,-1.9037,-1.9353,-1.9707,-2.0051,0.0,0.0,0.0,0.0,0.0,0.0,0.0,0.0,0.0,0.0,0.0,0.0,0.0,0.0,0.0,0.0,0.0,0.0,0.0,0.0,0.0,0.0,0.0,-0.3752,0.3688,0.4207,0.5029,0.6276,0.6734,0.6957,0.6988,0.714,0.6453,0.4815,-0.2219,-0.5482,0.0,0.0,-1.4634,-1.5124,-1.5193,0.0,0.0,0.0,0.0,0.0,0.0,0.0,0.0,1.6441,1.6585,1.5459,0.8334,0.0,0.0,0.0,0.0,0.0,-1.5106,-1.5148,-1.5006,-1.4764,-1.4813,-1.4772,-1.4189,-1.4123,-1.3941,-1.3276,-1.2871,-1.2481,-1.2161,-1.1572,-1.0997,-1.0777,-1.0218,-0.9771,-0.962,-0.9593,-0.9633,-0.9763,-0.9732,-0.9605,-0.9524,-0.9536,-0.9535,-0.9452,-0.9576,-0.9652,-0.9767,-0.9836,-1.0026,-1.0391,-1.0731,-1.1146,-1.1639,-1.2209,-1.2676,-1.3007,-1.343,-1.3894,-1.443,-1.4684,-1.504,-1.5513,0.0,0.0,-1.6522,-1.6989,-1.7502,-1.7922,-1.8361,-1.8701,-1.9065,-1.9479,-1.9812,-2.01,0.0,0.0,0.0,0.0,0.0,0.0,0.0,0.0,0.0,0.0,0.0,0.0,0.0,0.0,0.0,0.0,0.0,0.0,0.0,0.0,0.0,0.0,-1.5103,-1.1309,-0.3881,-0.3315,-0.0098,0.6124,0.6531,0.6834,0.6995,0.6866,0.3459,-0.2809,-0.9661,-1.3036,-1.3553,-1.4615,-1.525,-1.5491,-1.5552,0.0,0.0,0.0,0.0,0.0,0.0,0.0,0.0,1.6297,1.6468,1.5402,0.8305,0.0,0.0,0.0,0.0,0.0,-1.4789,-1.4889,-1.4953,-1.51,-1.5006,-1.4772,-1.4189,-1.4123,-1.3947,-1.35,-1.3145,-1.2819,-1.2324,-1.179,-1.1137,-1.0657,-1.0067,-0.962,-0.962,-0.9458,-0.9327,-0.9292,-0.9393,-0.9268,-0.8811,-0.918,-0.9304,-0.8947,-0.9118,-0.9289,-0.9295,-0.9293,-0.9467,-0.9813,-0.9945,-1.0162,-1.0538,-1.1728,-1.2578,-1.3007,-1.343,-1.3894,-1.443,-1.4684,-1.504,-1.5513,0.0,-1.6044,-1.6522,-1.6989,-1.7502,-1.7922,-1.8361,-1.875,-1.9116,-1.9545,-1.994,-2.0323,0.0,0.0,0.0,0.0,0.0,0.0,0.0,0.0,0.0,0.0,0.0,0.0,0.0,0.0,0.0,0.0,0.0,0.0,0.0,0.0,0.0,-1.7963,-1.7301,-1.5199,-1.1404,-1.0825,-0.8821,-0.5387,-0.4881,-0.4506,-0.4379,-0.4675,-0.6766,-1.0268,-1.3441,-1.5091,-1.5473,-1.5269,-1.5396,-1.5773,0.0,0.0,0.0,0.0,0.0,0.0,0.0,0.0,0.0,0.0,0.5074,0.4033,-0.2948,0.0,0.0,0.0,0.0,0.0,-1.4872,-1.4965,-1.5007,-1.5569,-1.5538,-1.5266,-1.4778,-1.4701,-1.4543,-1.3939,-1.363,-1.3244,-1.2572,-1.2003,-1.126,-1.0293,-0.9846,-0.9578,-0.9458,-0.9353,-0.9227,-0.9066,-0.9142,-0.9045,-0.8618,-0.8813,-0.8946,-0.88,-0.8784,-0.8815,-0.8878,-0.8911,-0.9026,-0.928,-0.9493,-0.9819,-1.0146,-1.0909,-1.1603,-1.2158,-1.2559,-1.301,-1.3421,-1.3751,-1.4291,-1.5013,0.0,-1.5819,-1.6522,-1.6989,-1.7502,-1.7963,-1.8372,-1.8784,-1.9221,-1.9844,-2.0311,-2.0679,0.0,0.0,0.0,0.0,0.0,0.0,0.0,0.0,0.0,0.0,0.0,0.0,0.0,0.0,0.0,0.0,0.0,0.0,0.0,0.0,-1.8839,-1.8548,-1.8007,-1.7357,-1.6488,-1.5826,-1.542,-1.5215,-1.4556,-1.4168,-1.418,-1.4538,-1.4923,-1.5352,-1.5352,-1.548,-1.5795,-1.5579,-1.5665,-1.5993,0.0,0.0,0.0,0.0,0.0,0.0,0.0,0.0,0.0,0.0,0.0,0.0,0.0,0.0,0.0,-1.4207,-1.401,-1.4057,-1.4784,-1.492,-1.4962,-1.5809,-1.5929,-1.5726,-1.5355,-1.5204,-1.4991,-1.4346,-1.4,-1.3572,-1.2826,-1.2077,-1.126,-1.0218,-0.9798,-0.9558,-0.9385,-0.9269,-0.9048,-0.8896,-0.8891,-0.8811,-0.8503,-0.8531,-0.8515,-0.8549,-0.841,-0.8337,-0.8461,-0.8492,-0.8553,-0.8752,-0.9034,-0.9347,-0.9712,-1.0048,-1.062,-1.1387,-1.1867,-1.2254,-1.2595,-1.2942,-1.3572,-1.4456,-1.4899,-1.5556,-1.6376,-1.6967,-1.7488,-1.7989,-1.8436,-1.8921,-1.9464,-2.0177,-2.0632,-2.0974,0.0,0.0,0.0,0.0,0.0,0.0,0.0,0.0,0.0,0.0,0.0,0.0,0.0,0.0,0.0,0.0,0.0,0.0,0.0,0.0,-1.9396,-1.9133,-1.8697,-1.7941,-1.6818,-1.6171,-1.5652,-1.5215,-1.4556,-1.4329,-1.4672,-1.4658,-1.5069,-1.5762,-1.5762,-1.5895,-1.6088,-1.6201,-1.6264,-1.6239,-1.6011,0.0,0.0,0.0,0.0,0.0,0.0,0.0,0.0,0.0,0.0,0.0,0.0,0.0,-1.4267,-1.3959,-1.37,-1.3682,-1.4258,-1.4469,-1.4647,-1.5608,-1.5797,-1.5726,-1.5505,-1.5355,-1.5062,-1.4641,-1.4145,-1.3645,-1.2973,-1.1929,-1.0962,-1.0513,-0.9961,-0.9599,-0.9583,-0.9055,-0.8689,-0.869,-0.8639,-0.8486,-0.8177,-0.8259,-0.8197,-0.7909,-0.793,-0.7983,-0.8051,-0.7937,-0.8001,-0.8238,-0.8288,-0.8445,-0.8799,-0.9206,-1.0022,-1.1309,-1.179,-1.2222,-1.2595,-1.2942,-1.338,-1.3901,-1.4743,-1.5347,-1.5834,-1.6811,-1.7516,-1.8028,-1.8422,-1.9161,-1.999,-2.0357,-2.0745,-2.1135,0.0,0.0,0.0,0.0,0.0,0.0,0.0,0.0,0.0,0.0,0.0,0.0,0.0,0.0,0.0,0.0,0.0,0.0,0.0,0.0,-1.1644,-0.708,-0.629,-0.7753,-1.1485,-1.4795,-1.6228,-1.5778,-1.4715,-1.4356,-1.4684,-1.4684,-1.5086,-1.5805,-1.5805,-1.5938,-1.6132,-1.6132,-1.6192,-1.6282,-1.5767,-1.5542,0.0,0.0,0.0,0.0,0.0,0.0,0.0,0.0,-1.0458,-1.0855,-1.3381,-1.4001,-1.3761,-1.358,-1.3277,-1.3129,-1.359,-1.3717,-1.402,-1.5171,-1.5559,-1.5762,-1.585,-1.578,-1.5559,-1.4911,-1.4497,-1.3855,-1.2893,-1.215,-1.1428,-1.0748,-1.0356,-0.9967,-0.9516,-0.9114,-0.8809,-0.8628,-0.8434,-0.823,-0.8096,-0.7943,-0.7872,-0.7784,-0.754,-0.7436,-0.7557,-0.7538,-0.7631,-0.7752,-0.7972,-0.8234,-0.8553,-0.8926,-0.9528,-1.0298,-1.0762,-1.1206,-1.1565,-1.1908,-1.2525,-1.3286,-1.3855,-1.471,-1.5746,-1.641,-1.7237,-1.8068,-1.8846,-1.9566,-2.0235,-2.0509,-2.0843,-2.1199,0.0,0.0,0.0,0.0,0.0,0.0,0.0,0.0,0.0,0.0,0.0,0.0,0.0,0.0,0.0,0.0,0.0,0.0,0.0,-0.8115,-0.547,-0.0364,0.0468,-0.12,-0.5545,-1.1255,-1.491,-1.6332,-1.4942,-1.4408,-1.4569,-1.4624,-1.4942,-1.5539,-1.5477,-1.5547,-1.567,-1.561,-1.5627,-1.5711,-1.5129,-1.4939,0.0,0.0,0.0,0.0,0.0,0.0,0.0,0.0,-1.4001,-1.3941,-1.3821,-1.358,-1.3277,-1.3025,-1.2808,-1.2649,-1.2757,-1.2698,-1.2966,-1.4016,-1.3011,-1.1902,-1.2061,-1.4266,-1.6053,-1.5471,-1.468,-1.3833,-1.2898,-1.2229,-1.1598,-1.1049,-1.0526,-1.0037,-0.9524,-0.9121,-0.8777,-0.8451,-0.823,-0.8064,-0.7954,-0.7709,-0.7578,-0.7468,-0.7198,-0.7077,-0.7127,-0.7227,-0.7321,-0.7482,-0.7773,-0.8111,-0.8398,-0.8781,-0.9185,-0.9585,-1.004,-1.0505,-1.0916,-1.133,-1.1938,-1.2666,-1.3233,-1.4134,-1.523,-1.5841,-1.6834,-1.8051,-1.8914,-1.9672,-2.0339,-2.061,-2.0941,-2.1262,0.0,0.0,0.0,0.0,0.0,0.0,0.0,0.0,0.0,0.0,0.0,0.0,0.0,0.0,0.0,0.0,0.0,0.0,-0.783,-0.4512,-0.2219,-0.156,-0.1013,-0.0369,0.0469,-0.5509,-1.1263,-1.6765,-1.5274,-1.4439,-1.429,-1.4349,-1.458,-1.4925,-1.4745,-1.4684,-1.466,-1.4547,-1.451,-1.4484,-1.4056,-1.3903,-1.3807,0.0,0.0,0.0,0.0,0.0,0.0,0.0,-1.3511,-1.345,-1.3329,-1.3155,-1.292,-1.2428,-1.2223,-1.2094,-1.1675,-1.1471,-1.152,-1.2005,-0.7826,-0.3518,-0.3456,-1.0245,-1.6437,-1.6298,-1.4882,-1.3476,-1.3072,-1.211,-1.143,-1.1423,-1.0577,-0.9838,-0.9554,-0.8982,-0.8457,-0.8136,-0.8128,-0.7972,-0.765,-0.7589,-0.737,-0.6848,-0.6838,-0.6855,-0.6728,-0.6907,-0.7112,-0.737,-0.7704,-0.7995,-0.8209,-0.8667,-0.9024,-0.9319,-0.9774,-1.0322,-1.0916,-1.133,-1.1737,-1.2136,-1.3104,-1.3717,-1.4172,-1.5103,-1.644,-1.7949,-1.848,-1.9349,-2.0323,-2.0679,-2.1023,-2.134,0.0,0.0,0.0,0.0,0.0,0.0,0.0,0.0,0.0,0.0,0.0,0.0,0.0,0.0,0.0,0.0,0.0,0.0,-0.0765,0.0968,0.4497,1.0572,1.163,1.0187,0.6178,-0.3573,-1.1052,-1.6073,-1.5225,-1.4569,-1.4165,-1.4085,-1.421,-1.443,-1.4229,-1.4162,-1.4154,-1.3973,-1.3858,-1.3685,-1.3332,-1.306,-1.2765,0.0,0.0,0.0,0.0,0.0,0.0,0.0,0.0,0.0,-1.2605,-1.249,-1.2243,-1.1553,-1.1326,-1.1029,-1.0212,-0.9531,-0.9,-0.8606,-0.6168,-0.3457,-0.2166,-0.5937,-1.0829,-1.4874,-1.4655,-1.3533,-1.293,-1.2305,-1.1764,-1.1223,-1.049,-0.9887,-0.9469,-0.8801,-0.835,-0.8253,-0.7961,-0.7719,-0.7613,-0.7261,-0.6975,-0.6823,-0.6667,-0.6656,-0.6715,-0.6907,-0.701,-0.7055,-0.7288,-0.7527,-0.785,-0.8234,-0.8703,-0.9319,-0.9774,-1.0283,-1.0753,-1.1169,-1.1616,-1.2125,-1.2686,-1.3361,-1.4196,-1.5541,-1.6506,-1.7268,-1.7781,-1.8652,-1.9661,-2.002,-2.067,-2.1417,0.0,0.0,0.0,0.0,0.0,0.0,0.0,0.0,0.0,0.0,0.0,0.0,0.0,0.0,0.0,0.0,0.0,0.0,0.0,0.0,0.8416,1.3956,1.5164,1.2111,0.444,-0.1811,-0.8559,-1.6005,-1.5264,-1.4529,-1.3862,-1.3647,-1.3582,-1.3664,-1.3394,-1.3254,-1.3247,-1.291,-1.2661,-1.2508,-1.2104,-1.1767,-1.1546,0.0,0.0,0.0,0.0,0.0,0.0,0.0,0.0,0.0,-1.1677,-1.1615,-1.1365,-1.0787,-1.0432,-1.0024,-0.8917,-0.787,-0.6888,-0.5937,-0.2362,0.1412,0.3213,-0.1671,-0.7421,-1.0639,-1.263,-1.3574,-1.2859,-1.2182,-1.1496,-1.0923,-1.0207,-0.9614,-0.921,-0.8655,-0.8213,-0.7949,-0.7692,-0.7416,-0.7151,-0.6853,-0.6627,-0.6564,-0.6446,-0.6398,-0.646,-0.6607,-0.672,-0.6664,-0.6841,-0.7107,-0.7417,-0.7746,-0.819,-0.8753,-0.9344,-0.9868,-1.0348,-1.101,-1.1579,-1.2066,-1.2627,-1.3316,-1.4101,-1.5134,-1.5983,-1.6627,-1.7134,-1.7987,-1.8965,-1.9656,-2.0378,-2.1133,0.0,0.0,0.0,0.0,0.0,0.0,0.0,0.0,0.0,0.0,0.0,0.0,0.0,0.0,0.0,0.0,0.0,0.0,0.0,0.0,0.9637,1.0842,1.204,0.8013,-0.1962,-0.0451,-0.494,-1.5944,-1.5177,-1.4323,-1.3398,-1.3137,-1.2908,-1.2644,-1.2322,-1.2193,-1.2106,-1.1488,-1.1178,-1.1115,-1.0611,-1.0288,-1.0078,-0.9512,0.0,0.0,0.0,0.0,0.0,0.0,0.0,0.0,-1.0541,-1.0485,-1.0288,-0.9958,-0.9554,-0.905,-0.7769,-0.643,-0.5043,-0.3635,0.2669,0.8975,1.0336,0.2265,-0.5479,-0.5125,-0.9697,-1.3542,-1.2853,-1.1697,-1.0795,-1.0555,-0.9761,-0.9061,-0.8781,-0.8453,-0.7979,-0.7422,-0.7345,-0.7046,-0.6481,-0.6367,-0.6303,-0.6202,-0.6161,-0.6127,-0.6089,-0.6211,-0.6265,-0.6249,-0.6441,-0.6687,-0.6954,-0.7285,-0.7586,-0.7903,-0.8676,-0.9289,-0.9734,-1.0788,-1.1531,-1.2018,-1.2826,-1.3472,-1.3941,-1.4324,-1.5121,-1.6062,-1.6515,-1.7319,-1.8346,-1.937,-2.0067,-2.0632,0.0,0.0,0.0,0.0,0.0,0.0,0.0,0.0,0.0,0.0,0.0,0.0,0.0,0.0,0.0,0.0,0.0,0.0,0.0,0.0,0.6043,0.753,0.9289,0.6432,-0.1724,-0.1304,-0.5033,-1.333,-1.4013,-1.3795,-1.2728,-1.2445,-1.2047,-1.16,-1.141,-1.1284,-1.1087,-1.0708,-1.0358,-1.0091,-0.9716,-0.9204,-0.8613,-0.8226,-0.7897,0.0,0.0,0.0,0.0,0.0,0.0,0.0,-0.9122,-0.925,-0.925,-0.8742,-0.855,-0.8131,-0.65,-0.4949,-0.3267,-0.0699,0.5411,1.0486,0.9302,0.4212,-0.1261,-0.4656,-0.9616,-1.3126,-1.2378,-1.1373,-1.0523,-1.0117,-0.9405,-0.8719,-0.8219,-0.7846,-0.7445,-0.6979,-0.6717,-0.6556,-0.6401,-0.6213,-0.6076,-0.6067,-0.5955,-0.5937,-0.6037,-0.5989,-0.5929,-0.5818,-0.602,-0.6255,-0.6529,-0.6768,-0.7184,-0.7815,-0.8273,-0.8695,-0.915,-1.0458,-1.1531,-1.2389,-1.2943,-1.3472,-1.3941,-1.4324,-1.485,-1.544,-1.5891,-1.6679,-1.757,-1.8199,-1.9337,-2.0664,0.0,0.0,0.0,0.0,0.0,0.0,0.0,0.0,0.0,0.0,0.0,0.0,0.0,0.0,0.0,0.0,0.0,0.0,0.0,0.0,0.0,0.5019,0.6258,0.3924,-0.2595,-0.2224,-0.5153,-1.1692,-1.2043,-1.2058,-1.1779,-1.1483,-1.1108,-1.0661,-1.0541,-1.0415,-1.0288,-0.9849,-0.953,-0.9268,-0.8748,-0.8163,-0.7603,-0.706,-0.6642,-0.6306,-0.6032,0.0,0.0,0.0,0.0,0.0,0.0,0.0,-0.8032,-0.7676,-0.7472,-0.7019,-0.5688,-0.4208,-0.2067,0.1755,0.6526,1.0018,0.9235,0.4796,0.0119,-0.2567,-0.8384,-1.2712,-1.1863,-1.0914,-1.0086,-0.9618,-0.8843,-0.8174,-0.7701,-0.7342,-0.6968,-0.6524,-0.6331,-0.6163,-0.5996,-0.5826,-0.5749,-0.5764,-0.5716,-0.5612,-0.5508,-0.5554,-0.5526,-0.5405,-0.5596,-0.5826,-0.6119,-0.6353,-0.6698,-0.7181,-0.7727,-0.8378,-0.9173,-1.0464,-1.1451,-1.2208,-1.2901,-1.3493,-1.398,-1.4356,-1.4797,-1.5344,-1.5741,-1.6309,-1.7027,-1.777,-1.8718,-1.9814,0.0,0.0,0.0,0.0,0.0,0.0,0.0,0.0,0.0,0.0,0.0,0.0,0.0,0.0,0.0,0.0,0.0,0.0,0.0,0.0,0.0,0.0,0.3105,0.1233,-0.3446,-0.3136,-0.5258,-1.0063,-0.9762,-0.9869,-1.0451,-1.0345,-1.0098,-0.9767,-0.9646,-0.9588,-0.9524,-0.9017,-0.8787,-0.8565,-0.7836,-0.7292,-0.6854,-0.6164,-0.5614,-0.5144,-0.4712,-0.4496,-0.4496,-0.4853,0.0,0.0,0.0,0.0,-0.6844,-0.6783,-0.6534,-0.613,-0.5227,-0.361,-0.112,0.3272,0.6324,0.8204,0.8035,0.3794,-0.0418,-0.1576,-0.7542,-1.2257,-1.1287,-1.0364,-0.9542,-0.9033,-0.8267,-0.7524,-0.7068,-0.6842,-0.6513,-0.6043,-0.5965,-0.5845,-0.5512,-0.5453,-0.5445,-0.5416,-0.5402,-0.5258,-0.4969,-0.5049,-0.5125,-0.5074,-0.5264,-0.5522,-0.5787,-0.6029,-0.6268,-0.6499,-0.7207,-0.813,-0.9197,-1.0322,-1.109,-1.1682,-1.2543,-1.3283,-1.3872,-1.4223,-1.476,-1.5448,-1.5799,-1.6179,-1.6617,-1.7577,-1.8208,-1.8835,0.0,0.0,0.0,0.0,0.0,0.0,0.0,0.0,0.0,0.0,0.0,0.0,0.0,0.0,0.0,0.0,0.0,0.0,-0.2753,0.0,0.0,-0.0267,0.0,-0.0865,-0.2983,-0.3706,-0.5098,-0.7237,-0.7762,-0.8032,-0.8172,-0.9075,-0.9274,-0.8958,-0.8958,-0.8835,-0.8641,-0.8312,-0.8093,-0.8068,-0.7324,-0.6749,-0.6339,-0.5555,-0.4919,-0.4354,-0.3776,-0.3559,-0.3559,-0.3632,-0.3993,0.0,0.0,0.0,-0.6028,-0.6195,-0.6202,-0.5928,-0.5158,-0.2774,0.0073,0.2617,0.4496,0.4927,0.1877,-0.0254,-0.2653,-0.6501,-0.9445,-1.1152,-1.0615,-0.9635,-0.8818,-0.8366,-0.7721,-0.7062,-0.6418,-0.6252,-0.5986,-0.5487,-0.5417,-0.5402,-0.5333,-0.5328,-0.528,-0.5173,-0.5047,-0.492,-0.4748,-0.4816,-0.4875,-0.4915,-0.5176,-0.5442,-0.5708,-0.5857,-0.6091,-0.6421,-0.7101,-0.7724,-0.8304,-0.9215,-1.0097,-1.0963,-1.1498,-1.2345,-1.3333,-1.3665,-1.4452,-1.5448,-1.5826,-1.6191,-1.6554,-1.7048,-1.7815,-1.8684,0.0,0.0,0.0,0.0,0.0,0.0,0.0,0.0,0.0,0.0,0.0,0.0,0.0,0.0,0.0,-0.5282,-0.4818,-0.4223,-0.3491,-0.2815,-0.2344,-0.2143,-0.2143,-0.2611,-0.3482,-0.4342,-0.5209,-0.6284,-0.6868,-0.7195,-0.7274,-0.7722,-0.7982,-0.8047,-0.8047,-0.8047,-0.7927,-0.765,-0.7486,-0.7305,-0.6654,-0.6154,-0.5708,-0.5043,-0.4417,-0.3716,-0.3264,-0.2884,-0.2732,-0.2884,-0.3186,-0.3697,-0.4337,0.0,0.0,0.0,-0.6007,-0.5876,-0.472,-0.2597,-0.0283,0.156,0.3303,0.4214,0.2808,0.0125,-0.2608,-0.4619,-0.7817,-1.0128,-0.9673,-0.8982,-0.8243,-0.7624,-0.7048,-0.651,-0.5991,-0.5781,-0.5528,-0.5169,-0.5116,-0.5116,-0.5116,-0.5047,-0.4927,-0.4862,-0.475,-0.4621,-0.4482,-0.4574,-0.4684,-0.4832,-0.5081,-0.5302,-0.5529,-0.5787,-0.6129,-0.6612,-0.7145,-0.7608,-0.8023,-0.8606,-0.9433,-1.0444,-1.118,-1.1955,-1.2727,-1.3034,-1.3842,-1.4976,-1.5312,-1.5918,-1.6644,-1.7027,-1.7542,-1.8202,0.0,0.0,0.0,0.0,0.0,0.0,0.0,0.0,0.0,0.0,0.0,0.0,0.0,0.0,0.0,0.0,-0.5418,-0.4954,-0.4225,-0.4023,-0.3887,-0.3751,-0.3887,-0.4087,-0.4425,-0.4954,-0.5484,-0.5954,-0.6346,-0.6613,-0.6749,-0.6749,-0.6942,-0.7199,-0.733,-0.7358,-0.7352,-0.7162,-0.694,-0.6764,-0.6295,-0.5787,-0.5384,-0.4799,-0.416,-0.343,-0.3034,-0.2556,-0.2314,-0.2459,-0.2768,-0.3222,-0.3962,-0.467,0.0,0.0,0.0,-0.6039,-0.4662,-0.3031,-0.1309,0.0414,0.2277,0.3898,0.4412,0.0982,-0.2327,-0.2303,-0.6149,-0.9396,-0.884,-0.8323,-0.7695,-0.7003,-0.6468,-0.6002,-0.5614,-0.5371,-0.5154,-0.4937,-0.4893,-0.4874,-0.4866,-0.4721,-0.46,-0.4525,-0.4418,-0.4329,-0.4264,-0.4388,-0.4549,-0.4742,-0.4953,-0.5169,-0.5383,-0.5811,-0.6253,-0.6811,-0.7184,-0.7549,-0.7927,-0.8308,-0.8984,-0.9931,-1.0726,-1.1423,-1.2096,-1.2375,-1.323,-1.4382,-1.4841,-1.5599,-1.6508,-1.7011,-1.7432,-1.7862,0.0,0.0,0.0,0.0,0.0,0.0,0.0,0.0,0.0,0.0,0.0,0.0,-0.7461,-0.6806,-0.6416,-0.635,-0.5885,-0.5488,-0.5362,-0.5156,-0.509,-0.5292,-0.509,0.0,-0.5484,-0.555,-0.5749,-0.6214,-0.6214,-0.628,-0.6416,-0.6416,-0.6416,-0.6482,-0.6815,-0.6914,-0.6945,-0.674,-0.6592,-0.6615,-0.6325,-0.593,-0.5428,-0.5128,-0.4426,-0.3601,-0.318,-0.2762,-0.2423,-0.2534,-0.2838,-0.3294,-0.3984,-0.4746,-0.549,0.0,0.0,0.0,-0.5484,-0.4215,-0.2678,-0.0872,0.1207,0.3123,0.442,0.0846,-0.2481,-0.1898,-0.5821,-0.9111,-0.8215,-0.761,-0.7096,-0.6584,-0.6063,-0.5604,-0.5188,-0.5067,-0.4893,-0.4661,-0.4618,-0.459,-0.4459,-0.4432,-0.4301,-0.4047,-0.4045,-0.4054,-0.4106,-0.4253,-0.4409,-0.4602,-0.4788,-0.5074,-0.5383,-0.599,-0.6468,-0.6811,-0.7086,-0.7462,-0.7917,-0.8241,-0.8739,-0.9348,-0.9678,-1.0428,-1.1455,-1.1799,-1.263,-1.3746,-1.466,-1.5319,-1.5863,-1.6832,-1.7455,-1.7833,0.0,0.0,0.0,0.0,0.0,0.0,0.0,0.0,0.0,0.0,0.0,0.0,0.0,-0.7405,-0.7063,-0.6992,-0.6543,-0.6214,-0.6024,-0.5954,-0.5954,-0.602,-0.5954,-0.6017,-0.6086,-0.621,-0.6408,-0.6544,-0.6613,-0.6683,-0.6749,-0.6613,-0.6613,-0.6613,-0.6482,-0.6513,-0.6551,-0.6242,-0.6129,-0.6204,-0.5908,-0.5474,-0.5044,-0.4909,-0.4367,-0.3697,-0.336,-0.3107,-0.2853,-0.308,-0.3367,-0.3798,-0.4762,-0.5524,-0.6328,-0.7311,-0.7555,-0.733,-0.6531,-0.5401,-0.4002,-0.2203,-0.0133,0.1849,0.3375,0.0121,-0.2952,-0.1902,-0.5626,-0.8718,-0.7726,-0.7115,-0.6564,-0.6052,-0.5559,-0.5203,-0.5067,-0.4888,-0.4621,-0.4333,-0.4316,-0.4235,-0.4055,-0.3923,-0.391,-0.3917,-0.3853,-0.388,-0.4031,-0.4221,-0.4382,-0.4549,-0.4762,-0.5137,-0.5648,-0.6091,-0.6468,-0.6811,-0.7056,-0.7462,-0.7917,-0.8241,-0.869,-0.9259,-0.9552,-1.0135,-1.0855,-1.1143,-1.1936,-1.305,-1.4086,-1.5006,-1.5887,-1.6937,-1.7566,-1.7905,0.0,0.0,0.0,0.0,0.0,0.0,0.0,0.0,0.0,0.0,0.0,0.0,0.0,0.0,-0.761,-0.7398,-0.7142,-0.6907,-0.671,-0.6772,-0.6743,-0.6683,-0.6745,-0.6745,-0.6745,-0.6872,-0.6999,-0.6999,-0.7068,-0.7073,-0.7012,-0.6942,-0.6806,-0.6675,-0.6346,-0.6277,-0.6359,-0.5973,-0.5845,-0.5828,-0.5636,-0.5254,-0.4861,-0.4922,-0.4552,-0.4038,-0.3865,-0.3692,-0.3516,-0.3829,-0.4095,-0.4582,-0.5592,-0.6601,-0.7483,-0.8412,-0.8551,-0.8301,-0.7642,-0.6654,-0.5394,-0.3661,-0.1661,0.0262,0.194,-0.09,-0.3535,-0.2321,-0.5544,-0.8353,-0.7462,-0.6626,-0.5952,-0.5533,-0.5203,-0.4941,-0.4806,-0.4622,-0.438,-0.3995,-0.4008,-0.3911,-0.3675,-0.3545,-0.3558,-0.3677,-0.3646,-0.3733,-0.3956,-0.4118,-0.4318,-0.4587,-0.489,-0.5327,-0.5835,-0.6183,-0.6529,-0.6863,-0.7145,-0.752,-0.7984,-0.8308,-0.8728,-0.9259,-0.9552,-0.9995,-1.0498,-1.0801,-1.1452,-1.2384,-1.3702,-1.4727,-1.566,-1.6927,-1.7641,-1.8018,0.0,0.0,0.0,0.0,0.0,0.0,0.0,0.0,0.0,-1.026,0.0,0.0,0.0,0.0,0.0,-0.7682,-0.7602,-0.7517,-0.7386,-0.7437,-0.7481,-0.7227,-0.7405,-0.7531,-0.7531,-0.7526,-0.7521,-0.7521,-0.7521,-0.7396,-0.7199,-0.7204,-0.7068,-0.6741,-0.6346,-0.6271,-0.6301,-0.5943,-0.5683,-0.5584,-0.5688,-0.5457,-0.5066,-0.5287,-0.5104,-0.475,-0.475,-0.4569,-0.4374,-0.4805,-0.5124,-0.551,-0.6585,-0.7815,-0.8948,-0.9333,-0.9414,-0.921,0.0,0.0,0.0,-0.5311,-0.3513,-0.1756,0.0061,-0.2192,-0.434,-0.322,-0.5764,-0.797,-0.7361,-0.6208,-0.5241,-0.5029,-0.4985,-0.481,-0.4364,-0.4272,-0.416,-0.3727,-0.3708,-0.358,-0.3324,-0.329,-0.3294,-0.329,-0.3438,-0.363,-0.3886,-0.3993,-0.4253,-0.478,-0.5207,-0.5578,-0.5913,-0.6299,-0.6665,-0.7017,-0.7324,-0.7715,-0.8109,-0.8375,-0.8795,-0.9301,-0.9579,-0.9969,-1.0424,-1.0825,-1.1233,-1.1778,-1.3527,-1.4498,-1.5125,-1.6809,-1.7715,-1.8132,0.0,0.0,0.0,0.0,0.0,0.0,0.0,0.0,0.0,0.0,0.0,0.0,-0.9855,-0.9332,-0.8926,-0.8689,-0.8536,-0.8348,-0.8289,-0.8354,-0.8394,-0.8467,-0.8383,-0.8364,-0.8492,0.0,0.0,0.0,0.0,0.0,0.0,0.0,0.0,-0.726,-0.6609,-0.6411,-0.6452,-0.5878,-0.5612,-0.5584,-0.5688,-0.5457,-0.5066,-0.5287,-0.5282,-0.5193,-0.5193,-0.5371,-0.563,-0.6119,-0.6471,-0.6969,-0.8416,-0.9259,-0.9887,-1.0299,-1.0356,-1.0168,-0.9703,0.0,0.0,0.0,0.0,0.0,-0.3615,-0.4631,-0.5682,-0.5129,-0.6295,-0.7269,-0.6701,-0.5823,-0.5106,-0.4753,-0.4583,-0.4451,-0.432,-0.4144,-0.3863,-0.3457,-0.3464,-0.3373,-0.3037,-0.3109,-0.3227,0.0,-0.3467,-0.363,-0.3956,-0.428,-0.4602,-0.4934,-0.5271,-0.5648,-0.5959,-0.6337,-0.6665,-0.7017,-0.7324,-0.7715,-0.8109,-0.8375,-0.8778,-0.9232,-0.9552,-0.9969,-1.0424,-1.0825,-1.1256,-1.1859,-1.3636,-1.4606,-1.519,-1.6953,-1.7827,-1.8153,0.0,0.0,0.0,0.0,0.0,0.0,0.0,0.0,0.0,0.0,0.0,0.0,-1.0314,-0.992,-0.9632,-0.9494,-0.9367,-0.9209,-0.9093,-0.915,-0.9206,-0.9222,-0.9226,-0.9286,-0.9423,0.0,0.0,0.0,0.0,0.0,0.0,0.0,0.0,0.0,-0.6876,-0.6619,-0.6666,-0.6025,-0.5757,-0.5736,-0.5767,-0.5621,-0.5482,-0.5722,-0.5905,-0.5994,-0.5994,-0.626,-0.6776,-0.7058,-0.7762,-0.8622,-0.9669,-1.036,-1.0842,-1.1202,-1.117,-1.1052,-1.0787,-1.0521,-0.9996,-0.896,0.0,0.0,-0.6306,-0.6533,-0.6724,-0.6494,-0.6817,-0.6979,-0.6436,-0.5742,-0.5149,-0.4801,-0.4495,-0.4272,-0.4144,-0.4012,-0.3741,-0.337,-0.3321,-0.3257,-0.3033,-0.3078,-0.3171,-0.3401,-0.3467,-0.3663,-0.4026,-0.4409,-0.473,-0.4992,-0.5365,-0.5734,-0.6044,-0.6429,-0.6794,-0.7077,-0.7421,-0.7773,-0.8148,-0.846,-0.8822,-0.9259,-0.9632,-1.0034,-1.0523,-1.092,-1.1324,-1.1881,-1.3729,-1.4697,-1.5293,-1.7082,-1.7954,-1.833,0.0,0.0,0.0,0.0,0.0,0.0,0.0,0.0,0.0,0.0,-1.0985,-1.0685,-1.0547,-1.0285,-1.0177,-1.0152,-1.0126,-1.0088,-0.9887,-0.9981,-0.9994,-0.9842,-1.0061,-1.0242,-1.0242,-1.042,0.0,0.0,0.0,0.0,0.0,0.0,0.0,0.0,0.0,-0.6984,-0.6976,-0.641,-0.6141,-0.6041,-0.6006,-0.6034,-0.6062,-0.6331,-0.6612,-0.6881,-0.6884,-0.7221,-0.7698,-0.8021,-0.9055,-1.0324,-1.0657,-1.123,-1.177,-1.1985,-1.1992,-1.1988,-1.1988,-1.1841,-1.1509,-1.0676,-0.9897,0.0,-0.844,-0.8023,-0.7648,-0.7434,-0.726,-0.6973,-0.6493,-0.5858,-0.5328,-0.5072,-0.467,-0.4272,-0.3968,-0.3928,-0.3778,-0.3409,-0.3349,-0.3322,-0.3267,-0.322,-0.3231,-0.3374,-0.351,-0.3752,-0.4096,-0.4441,-0.4762,-0.5023,-0.5491,-0.5828,-0.6129,-0.6582,-0.6924,-0.7196,-0.7539,-0.787,-0.8215,-0.8561,-0.8921,-0.9354,-0.9724,-1.0186,-1.0632,-1.1038,-1.1407,-1.1903,-1.3782,-1.4786,-1.5421,-1.7165,-1.8117,-1.8524,0.0,0.0,0.0,0.0,0.0,0.0,0.0,0.0,0.0,-1.198,-1.1635,-1.1564,-1.1752,-1.1519,-1.1332,-1.1401,-1.1199,-1.104,-1.0999,-1.0947,-1.1023,-1.1147,-1.0949,-1.0932,-1.1075,-1.1064,0.0,0.0,0.0,0.0,0.0,0.0,0.0,0.0,0.0,-0.7729,-0.7599,-0.7171,-0.6843,-0.6659,-0.6335,-0.6284,-0.6309,-0.6595,-0.6966,-0.7404,-0.7584,-0.7937,-0.8446,-0.957,-1.0639,-1.1478,-1.1814,-1.2353,-1.2721,-1.2783,-1.2877,-1.3025,-1.3025,-1.2956,-1.2757,-1.2381,-1.1677,0.0,-1.0264,-0.968,-0.9012,-0.8143,-0.7841,-0.7463,-0.6649,-0.6122,-0.5744,-0.5448,-0.5145,-0.4797,-0.4272,-0.4056,-0.3821,-0.3655,-0.3608,-0.3643,-0.3669,-0.3659,-0.375,-0.4011,-0.4144,-0.4243,-0.4334,-0.4666,-0.4953,-0.5246,-0.5592,-0.5936,-0.6245,-0.6621,-0.6924,-0.7196,-0.7539,-0.7899,-0.829,-0.8561,-0.8992,-0.9475,-0.9764,-1.0211,-1.0705,-1.1108,-1.1519,-1.2048,-1.3805,-1.4792,-1.5429,-1.7274,-1.818,-1.8544,0.0,0.0,0.0,0.0,0.0,0.0,0.0,0.0,0.0,-1.2487,-1.2354,-1.2281,-1.2215,-1.2213,-1.2277,-1.2248,-1.2001,-1.1923,-1.1999,-1.1822,-1.1866,-1.2054,-1.2075,-1.2078,-1.209,-1.2237,-1.2094,0.0,0.0,0.0,0.0,0.0,0.0,0.0,-0.8753,-0.8387,-0.8102,-0.7664,-0.7393,-0.7196,-0.6816,-0.6749,-0.677,-0.7088,-0.7432,-0.7769,-0.8114,-0.8748,-0.9685,-1.0723,-1.1544,-1.2204,-1.2606,-1.3057,-1.3453,-1.3584,-1.377,-1.4043,-1.4222,-1.4273,-1.4273,-1.4034,-1.3273,0.0,0.0,-1.1096,-1.0167,-0.9133,-0.8781,-0.8306,-0.7298,-0.6761,-0.638,-0.605,-0.5744,-0.5399,-0.5062,-0.4578,-0.4196,-0.4022,-0.3973,-0.3971,-0.4085,-0.4069,-0.4166,-0.4433,-0.449,-0.4554,-0.47,-0.4867,-0.5081,-0.5404,-0.5718,-0.606,-0.6399,-0.6734,-0.7065,-0.7353,-0.7647,-0.7994,-0.8365,-0.8739,-0.9112,-0.9528,-0.9931,-1.0361,-1.0825,-1.1233,-1.1659,-1.2194,-1.3561,-1.4599,-1.5519,-1.6976,-1.7994,-1.8677,-1.6193,0.0,0.0,0.0,0.0,0.0,0.0,0.0,0.0,-1.2993,-1.2956,-1.2853,-1.2713,-1.2904,-1.3072,-1.3113,-1.2881,-1.2798,-1.296,-1.2734,-1.263,-1.2904,-1.3094,-1.3151,-1.2993,-1.3314,-1.3198,0.0,0.0,0.0,0.0,0.0,0.0,-1.0038,-0.9487,-0.8985,-0.8611,-0.8157,-0.7877,-0.765,-0.7407,-0.7243,-0.7293,-0.7539,-0.7847,-0.8254,-0.871,-0.9682,-1.0721,-1.1587,-1.2198,-1.2757,-1.3235,-1.372,-1.4115,-1.439,-1.4688,-1.505,-1.5342,-1.5575,-1.5613,-1.536,-1.4557,-1.3733,0.0,0.0,0.0,-1.0351,-0.9835,-0.9273,-0.8254,-0.7594,-0.714,-0.6768,-0.6465,-0.6173,-0.5927,-0.5361,-0.4874,-0.453,-0.4439,-0.4472,-0.4601,-0.4579,-0.466,-0.4885,-0.4856,-0.4942,-0.5162,-0.5152,-0.5293,-0.5613,-0.5865,-0.6153,-0.649,-0.6837,-0.7166,-0.7519,-0.7782,-0.8127,-0.8439,-0.8905,-0.9286,-0.9607,-1.0085,-1.0548,-1.0968,-1.137,-1.1796,-1.2329,-1.333,-1.4472,-1.5643,-1.6652,-1.78,-1.8825,-1.5974,-1.5468,0.0,0.0,0.0,0.0,0.0,0.0,0.0,-1.3472,-1.3489,-1.3545,-1.3756,-1.3779,-1.3883,-1.4136,-1.3872,-1.3884,-1.4065,-1.3726,-1.3672,-1.3904,-1.3628,-1.3567,-1.3775,-1.3739,-1.3561,-1.3339,0.0,0.0,0.0,0.0,0.0,-1.1106,-1.0318,-0.9805,-0.9432,-0.8817,-0.8452,-0.825,-0.8047,-0.7848,-0.7776,-0.7869,-0.8341,-0.8891,-0.9746,-1.0456,-1.1198,-1.1965,-1.2632,-1.322,-1.3863,-1.4533,-1.5087,-1.5233,-1.568,-1.614,-1.614,-1.6482,-1.6623,-1.5915,-1.5468,-1.4924,-1.3921,0.0,-1.2532,-1.1677,0.0,-1.0286,-0.9427,0.0,0.0,-0.7641,-0.7398,-0.707,-0.6641,-0.6513,-0.6167,-0.5303,-0.5196,-0.5229,-0.5368,-0.5481,-0.5549,-0.5568,-0.5647,-0.5692,-0.5788,-0.5685,-0.576,-0.6022,-0.6015,-0.6153,-0.649,-0.6837,-0.7166,-0.7519,-0.7879,-0.8251,-0.8589,-0.9015,-0.9446,-0.9867,-1.0173,-1.0597,-1.1108,-1.146,-1.1876,-1.2385,-1.3407,-1.4529,-1.5719,-1.6786,-1.7875,-1.886,-1.6232,-1.5569,0.0,0.0,0.0,0.0,0.0,0.0,0.0,-1.401,-1.4084,-1.4254,-1.4306,-1.4625,-1.4817,-1.4747,-1.4675,-1.4684,-1.4956,-1.4639,-1.4509,-1.4764,-1.4769,-1.4625,-1.4504,-1.4604,-1.4425,-1.4118,-1.4052,0.0,0.0,0.0,0.0,-1.1681,-1.1095,-1.049,-0.9916,-0.9539,-0.916,-0.878,-0.8627,-0.8533,-0.8304,-0.8416,-0.8805,-0.9519,-1.0029,-1.0743,-1.1558,-1.2415,-1.3094,-1.3695,-1.4541,-1.5065,-1.5449,-1.5622,-1.605,-1.6482,-1.6245,-1.6488,-1.677,-1.6402,-1.5958,-1.5488,-1.4958,-1.4355,-1.3653,-1.2863,0.0,0.0,0.0,0.0,0.0,0.0,-0.83,-0.7979,-0.7523,-0.7433,-0.7049,-0.599,-0.5862,-0.5953,-0.605,-0.6221,-0.6307,-0.6406,-0.6297,-0.6271,-0.6458,-0.6345,-0.6428,-0.6737,-0.6628,-0.677,-0.7121,-0.7233,-0.7442,-0.7734,-0.8099,-0.8439,-0.8745,-0.9155,-0.9567,-0.9931,-1.0336,-1.0777,-1.1262,-1.1652,-1.2086,-1.2542,-1.3143,-1.4364,-1.5788,-1.643,-1.7648,-1.9,-1.6776,-1.6055,-1.5457,-1.5317,0.0,0.0,0.0,0.0,-1.4651,-1.466,-1.4935,-1.5099,-1.5185,-1.5509,-1.5601,-1.5432,-1.5447,-1.5458,-1.5631,-1.5427,-1.5432,-1.5637,-1.5648,-1.5602,-1.5383,-1.5352,-1.5129,-1.4706,0.0,0.0,0.0,0.0,0.0,0.0,-1.1706,-1.1111,-1.0443,-1.0067,-0.9578,-0.9145,-0.9065,-0.8936,-0.8834,-0.8847,-0.9322,-0.9944,-1.0387,-1.1022,-1.1903,-1.2846,-1.3405,0.0,-1.4847,-1.5264,-1.5533,-1.5783,-1.6286,-1.6681,-1.639,-1.6612,-1.6936,-1.6746,-1.6419,-1.6045,-1.5717,-1.5257,-1.4665,-1.4004,-1.3217,0.0,0.0,0.0,-0.9776,-0.9421,0.0,-0.8788,-0.8423,-0.8349,-0.7931,-0.6797,-0.667,-0.6713,-0.681,-0.6894,-0.6985,-0.7125,-0.6881,-0.6921,-0.7187,-0.7046,-0.7092,-0.7467,-0.73,-0.7416,-0.7816,-0.7704,-0.7791,-0.8108,-0.8332,-0.8606,-0.891,-0.9343,-0.9712,-1.0034,-1.051,-1.0968,-1.1384,-1.1848,-1.2271,-1.2687,-1.3019,-1.4279,-1.5904,-1.6218,-1.7532,-1.9152,-1.7768,-1.705,-1.6269,-1.5656,-1.5536,0.0,0.0,-1.5293,-1.5477,-1.5496,-1.596,-1.6297,-1.62,-1.6304,-1.6298,-1.6231,-1.6236,-1.6236,-1.613,-1.6202,-1.6387,-1.6828,-1.6221,-1.6141,-1.6568,-1.5919,-1.5408,-1.5057,0.0,0.0,0.0,0.0,0.0,0.0,-1.2003,-1.1484,-1.1037,-1.0218,-0.9793,-0.9515,-0.9139,-0.9067,-0.9217,-0.9303,-0.9723,-1.0263,-1.1005,-1.1632,0.0,-1.3196,-1.3544,0.0,0.0,0.0,-1.5227,-1.5836,-1.6345,-1.6807,-1.6849,-1.7205,-1.746,-1.6951,-1.6886,-1.6761,-1.5989,-1.58,-1.5611,-1.5119,-1.4207,-1.3305,-1.2846,-1.1588,-1.0572,-1.0312,-0.9873,0.0,0.0,-0.9208,-0.8805,-0.7765,-0.7641,-0.7641,-0.7682,-0.7558,-0.753,-0.767,-0.7565,-0.7626,-0.7964,-0.7732,-0.7748,-0.8147,-0.7921,-0.7965,-0.8357,-0.8187,-0.8257,-0.8571,-0.8577,-0.8767,-0.9108,-0.9499,-0.9918,-1.0299,-1.0632,-1.1071,-1.1512,-1.1924,-1.2372,-1.2832,-1.3158,-1.4435,-1.6115,-1.6317,-1.7575,-1.9225,-1.7847,-1.7717,-1.7392,-1.6565,-1.6085,-1.5668,-1.5297,-1.551,-1.575,-1.5744,-1.6088,-1.6386,-1.6571,-1.6736,-1.6721,-1.6533,-1.6735,-1.6725,-1.6718,-1.6865,-1.6985,-1.7047,-1.6883,-1.6804,-1.7032,-1.6562,-1.6198,-1.5928,-1.5807,0.0,0.0,0.0,0.0,0.0,-1.2157,-1.1611,-1.1137,-1.0633,-1.0227,-0.9908,-0.9443,-0.9399,-0.9661,-0.9599,-0.9864,-1.044,-1.1039,-1.1536,0.0,-1.2904,-1.3394,-1.3736,-1.4606,-1.5248,-1.5665,-1.5818,-1.6263,0.0,0.0,0.0,-1.6871,-1.6741,-1.6792,-1.6729,-1.6442,-1.6349,-1.6163,-1.5881,-1.4899,-1.3957,-1.347,-1.224,-1.1159,-1.0829,-1.0495,-1.0186,0.0,-0.9843,-0.9716,-0.9469,-0.891,-0.8513,-0.8456,-0.8374,-0.8382,-0.8357,-0.8308,-0.8398,-0.8578,-0.8456,-0.855,-0.8836,-0.8648,-0.8666,-0.8993,-0.8926,-0.9076,-0.9391,-0.9297,-0.9401,-0.9706,-0.979,-1.0008,-1.0324,-1.0801,-1.121,-1.1601,-1.2045,-1.2471,-1.2889,-1.3295,-1.4604,-1.6318,-1.6525,-1.7718,-1.9301,-1.8408,-1.8344,-1.8087,-1.717,-1.6601,-1.6145,-1.5848,-1.6048,-1.6366,-1.6467,-1.6665,-1.6793,-1.718,-1.7161,-1.717,-1.6871,-1.696,-1.711,-1.7088,-1.734,-1.7524,-1.769,-1.7412,-1.7415,-1.7547,-1.7151,-1.6717,-1.6319,-1.6319,-1.579,0.0,0.0,0.0,0.0,-1.2384,-1.173,-1.1282,-1.0864,-1.0526,-1.0125,-0.9708,-0.967,-0.9915,-0.9882,-1.0097,-1.052,0.0,-1.1586,-1.1986,-1.2863,-1.3323,-1.3719,-1.4522,-1.5121,-1.5508,-1.5646,-1.6008,-1.6312,-1.5985,-1.6051,0.0,-1.6214,-1.6245,0.0,-1.6286,-1.6191,-1.6055,-1.5861,-1.4965,-1.4203,-1.3986,-1.2942,-1.205,-1.1921,-1.1464,-1.0997,0.0,-1.0534,-1.0505,-1.0621,-0.9883,-0.9368,-0.927,-0.9182,-0.9102,-0.903,-0.8999,-0.9007,-0.9105,-0.9056,-0.9177,-0.9417,-0.933,-0.9422,-0.9648,-0.9621,-0.9747,-1.0052,-0.9956,-0.9969,-1.0067,-1.0168,-1.0289,-1.0474,-1.0968,-1.1384,-1.1768,-1.2231,-1.2646,-1.3052,-1.3429,-1.4733,-1.6463,-1.6646,-1.7899,-1.9523,-1.9261,-1.8946,-1.8397,-1.7512,-1.7098,-1.689,-1.6633,-1.684,-1.7148,-1.7442,-1.7498,-1.7617,-1.7911,-1.7666,-1.7365,-1.7064,-1.7327,-1.7376,-1.7326,-1.7598,-1.7971,-1.8434,-1.7958,-1.785,-1.8102,-1.7672,-1.7037,-1.6319,-1.6319,-1.5922,0.0,0.0,0.0,0.0,-1.2606,-1.1934,-1.1403,-1.0992,-1.0566,-1.0182,-0.991,-0.9926,-1.0078,-1.0282,-1.0395,-1.0622,-1.1279,-1.1757,-1.218,-1.2959,-1.3389,-1.371,-1.4362,-1.4649,-1.4834,-1.5299,-1.5688,-1.5929,-1.5724,-1.5724,-1.5678,-1.5402,-1.5424,0.0,0.0,0.0,-1.5449,-1.5159,-1.4562,-1.4113,-1.4377,-1.3661,-1.3135,-1.3483,-1.2751,-1.1973,-1.1383,-1.1319,-1.133,-1.1319,-1.07,-1.0215,-1.0157,-0.9981,-0.9815,-0.9658,-0.9607,-0.9585,-0.9585,-0.9585,-0.9674,-0.9851,-0.995,-1.0137,-1.0322,-1.0197,-1.0282,-1.0577,-1.0565,-1.0467,-1.0288,-1.0638,-1.0768,-1.0705,-1.1132,-1.1564,-1.2033,-1.2435,-1.2836,-1.3244,-1.3624,-1.4925,-1.6604,-1.6838,-1.8146,-1.9823,-1.9816,-1.9551,-1.925,-1.8563,-1.7934,-1.7431,-1.7131,-1.723,-1.7272,-1.7148,-1.7358,-1.7533,-1.7617,-1.764,-1.771,-1.763,-1.7786,-1.7792,-1.7545,-1.7713,-1.7877,-1.7895,-1.7722,-1.7815,-1.8153,-1.7779,-1.7347,-1.6767,-1.6767,-1.6159,-1.4991,0.0,0.0,0.0,-1.227,-1.1804,-1.1626,-1.1228,-1.0916,-1.0699,-1.029,-1.0428,-1.0836,0.0,-1.0916,-1.1065,-1.1508,-1.1781,-1.2068,-1.281,-1.3249,-1.3545,-1.4121,-1.46,-1.4982,-1.4998,-1.5278,-1.5546,-1.5268,-1.5286,-1.5441,-1.5488,-1.5562,-1.5599,0.0,0.0,0.0,0.0,0.0,0.0,-1.4585,-1.3907,-1.3421,-1.3795,-1.3449,-1.311,-1.3094,-1.3072,-1.31,-1.327,-1.2625,-1.1823,-1.086,-1.0677,-1.0562,-1.0447,-1.0596,-1.0711,-1.0711,0.0,-1.0639,-1.069,-1.0449,-1.038,-1.0611,-1.0802,-1.111,-1.1475,-1.1377,-1.1228,-1.1039,-1.101,-1.0913,-1.0729,-1.1239,-1.1667,-1.2033,-1.2435,-1.2836,-1.3294,-1.4226,-1.5893,-1.7854,-1.8606,-1.9307,-1.9896,-2.0237,-2.0051,-1.9847,-1.9521,-1.8928,-1.8373,-1.7707,-1.7683,-1.7662,-1.7705,-1.7756,-1.7829,-1.7974,-1.786,-1.7673,-1.7673,-1.7659,-1.7658,-1.7644,-1.7726,-1.7905,-1.7961,-1.7948,-1.8012,-1.8355,-1.8138,-1.7742,-1.7145,-1.7145,-1.656,-1.5437,0.0,0.0,0.0,-1.2531,-1.1969,-1.1696,-1.1375,-1.1182,-1.104,-1.0805,-1.0913,0.0,-1.1101,-1.1119,-1.1257,-1.1577,-1.1808,-1.2091,-1.2793,-1.3283,-1.3763,-1.4269,-1.4631,-1.4882,-1.4946,-1.5081,-1.5109,-1.4778,-1.485,-1.4946,-1.4879,-1.4919,-1.5025,-1.5074,-1.5109,-1.5039,0.0,-1.448,-1.4265,0.0,-1.4185,-1.4077,-1.4421,-1.434,-1.4217,-1.4061,-1.4106,-1.4197,-1.4277,-1.3934,-1.3297,-1.2272,-1.1588,-1.1169,-1.1057,-1.1302,-1.145,0.0,0.0,-1.1458,-1.1266,-1.1085,-1.0968,-1.0905,-1.1191,-1.149,-1.1836,-1.1931,-1.1754,-1.1381,-1.1427,-1.1243,-1.0897,-1.1362,-1.1762,-1.2123,-1.2514,-1.2909,-1.3396,-1.5043,-1.6729,-1.8355,-1.9337,-1.9794,-1.996,-2.067,-2.0545,-2.0382,-2.0292,-1.9936,-1.9396,-1.8458,-1.8272,-1.8287,-1.8491,-1.8232,-1.8132,-1.843,-1.7896,-1.7604,-1.7604,-1.7343,-1.7334,-1.7723,-1.7723,-1.7865,-1.8316,-1.8187,-1.8279,-1.8545,-1.8403,-1.8092,-1.7521,-1.7468,-1.696,0.0,0.0,0.0,-1.3893,-1.3042,-1.2367,-1.1864,-1.149,-1.1365,-1.1428,-1.1428,-1.1424,-1.139,-1.1352,-1.1344,-1.1411,-1.171,-1.1977,-1.2215,-1.2832,-1.3426,-1.3971,-1.447,-1.4561,-1.4552,-1.4921,-1.4863,-1.4651,-1.4341,-1.4378,-1.4415,-1.404,-1.4072,-1.4203,-1.4203,-1.4203,-1.4203,-1.4032,-1.3894,-1.3903,0.0,0.0,-1.4915,-1.5167,-1.5301,-1.5262,-1.4903,-1.4933,-1.5024,-1.5024,-1.4962,0.0,-1.3976,-1.2631,-1.1793,-1.1627,-1.1914,-1.2069,0.0,0.0,-1.2288,-1.188,-1.1887,-1.1701,-1.1351,0.0,-1.1686,-1.1982,-1.2294,-1.2179,-1.164,-1.1869,-1.1696,-1.1221,-1.1511,-1.1854,-1.2231,-1.2649,-1.317,-1.3904,-1.5935,-1.7436,-1.857,-1.9476,-1.9889,-2.0015,-2.1549,-2.1382,-2.1024,-2.0382,-2.0201,-2.0027,-1.9396,-1.8928,-1.8574,-1.8256,-1.788,-1.769,-1.7751,-1.7586,-1.7523,-1.7707,-1.7819,-1.7927,-1.7891,-1.7867,-1.7811,-1.782,-1.7916,-1.8134,-1.8467,-1.8241,-1.7973,-1.7521,-1.7184,-1.6626,0.0,0.0,0.0,-1.4043,-1.3178,-1.256,-1.2182,-1.1864,-1.1809,-1.1934,-1.1934,-1.1913,-1.1862,-1.1906,-1.1932,-1.1948,-1.2223,-1.2372,-1.252,-1.2977,-1.3258,-1.3448,-1.395,-1.409,-1.4004,-1.3968,-1.4125,-1.4245,-1.3951,-1.3965,-1.404,-1.4132,-1.417,-1.4203,-1.4268,-1.4268,-1.4268,-1.4189,-1.4007,-1.4025,-1.444,0.0,0.0,-1.5668,-1.6099,-1.6448,-1.6542,-1.6571,-1.6625,-1.6734,-1.6253,-1.5659,-1.498,-1.3852,-1.2911,-1.2293,-1.2794,-1.3059,0.0,0.0,-1.3401,0.0,-1.2596,0.0,0.0,0.0,-1.1993,-1.233,-1.265,-1.2666,-1.2399,-1.2334,-1.213,-1.1841,-1.1784,-1.1961,-1.2307,-1.2722,-1.4057,-1.5912,-1.6548,-1.7803,-1.9327,-1.9738,-1.9934,-2.002,-2.1881,-2.1614,-2.1165,-2.0793,-2.0527,-2.011,-1.9478,-1.9082,-1.8881,-1.8624,-1.824,-1.8017,-1.8017,-1.7802,-1.7616,-1.7516,-1.7489,-1.7384,-1.7191,-1.7246,-1.7321,-1.7449,-1.7519,-1.7752,-1.8071,-1.7961,-1.7818,-1.7505,-1.7297,-1.6901,-1.6178,0.0,-1.5186,-1.4658,-1.3697,-1.2967,-1.2552,0.0,0.0,-1.2428,-1.2428,-1.2294,-1.2126,-1.2282,-1.2199,-1.1959,-1.2155,-1.2397,-1.2671,-1.3062,-1.3218,-1.327,-1.3792,-1.386,-1.3742,-1.3828,-1.3848,-1.3817,-1.3799,-1.3874,-1.398,-1.417,-1.4235,-1.4268,-1.43,-1.43,-1.4268,-1.4203,-1.4105,-1.4193,-1.4568,-1.4959,0.0,0.0,-1.627,-1.6809,-1.693,-1.7262,-1.753,-1.7598,-1.733,-1.685,-1.6034,-1.5491,-1.4475,-1.2805,-1.3291,-1.3686,0.0,0.0,-1.4305,0.0,0.0,0.0,0.0,0.0,0.0,-1.2556,-1.2838,-1.2931,-1.2761,-1.2841,-1.2637,-1.2224,-1.2319,-1.2372,-1.2487,-1.3449,-1.4848,-1.6469,-1.714,-1.8296,-1.9577,-1.9811,-1.9966,-2.0069,-2.1974,-2.1617,-2.1102,-2.0989,-2.0643,-2.0199,-1.9376,-1.911,-1.8999,-1.8844,-1.8419,-1.814,-1.814,-1.7762,-1.7482,-1.7266,-1.6967,-1.6746,-1.6767,-1.675,-1.6901,-1.7278,-1.7278,-1.7503,-1.7803,-1.7796,-1.7752,-1.7567,-1.7555,-1.7202,0.0,-1.6351,-1.5811,0.0,0.0,0.0,0.0,0.0,-1.2981,-1.2981,-1.2907,-1.2655,-1.2325,-1.2523,-1.2386,-1.207,-1.2091,-1.2341,-1.2703,-1.2976,-1.3042,-1.3148,-1.3604,-1.3593,-1.3509,-1.38,-1.3747,-1.3594,-1.3808,-1.396,-1.4065,-1.4189,-1.4268,-1.43,-1.43,-1.43,-1.43,-1.4268,-1.4235,-1.4305,-1.457,-1.4743,0.0,0.0,-1.6177,-1.6756,-1.6831,-1.7504,-1.7954,-1.7928,-1.8039,-1.7795,-1.6898,-1.6831,-1.5898,-1.3659,-1.4057,-1.4365,-1.4215,0.0,0.0,0.0,0.0,-1.3703,-1.3255,0.0,-1.2746,-1.278,-1.306,-1.3195,-1.315,-1.3327,-1.3192,-1.2802,-1.2906,-1.282,-1.2757,-1.416,-1.5415,-1.6552,-1.7621,-1.8689,-1.9649,-1.9847,-1.9998,-2.0108,-2.1753,-2.1518,-2.1025,-2.066,-2.0492,-2.0313,-1.9777,-1.9085,-1.8637,-1.8501,-1.782,-1.7401,-1.7401,-1.6793,-1.6528,-1.6631,-1.6674,-1.6784,-1.7128,-1.7128,-1.7203,-1.7446,-1.7662,-1.7728,-1.7803,-1.7825,-1.7775,-1.78,-1.7577,-1.7361,0.0,0.0,0.0,0.0,0.0,0.0,0.0,-1.3511,-1.345,-1.3425,-1.3218,-1.3002,-1.274,-1.2662,-1.2624,-1.2618,-1.2466,-1.2491,-1.2531,-1.2564,-1.2625,-1.2737,-1.3135,-1.3118,-1.3039,-1.3364,-1.3612,-1.3808,-1.3934,-1.4078,-1.4189,-1.4268,-1.43,-1.43,-1.43,-1.4365,-1.4397,-1.4397,-1.4397,-1.4378,-1.4336,-1.4849,-1.5298,0.0,0.0,-1.6577,-1.6684,-1.7362,-1.7794,-1.7726,-1.8228,-1.8184,-1.7342,-1.7249,-1.676,-1.5628,-1.5659,-1.5577,0.0,0.0,0.0,-1.5676,0.0,-1.4694,-1.4101,-1.38,-1.3447,-1.3072,-1.3391,-1.3676,-1.3893,-1.3792,-1.3898,-1.4065,-1.3368,-1.3109,-1.3225,-1.44,-1.5561,-1.6691,-1.7752,-1.8803,-1.9726,-1.9919,-2.0038,-2.0117,-2.1558,-2.1199,-2.0703,-2.0453,-1.9925,-1.9445,-1.8882,-1.841,-1.8089,-1.7845,-1.7465,-1.7269,-1.7269,-1.7005,-1.674,-1.6584,-1.6715,-1.6759,-1.6676,-1.6659,-1.6731,-1.6947,-1.7171,-1.7305,-1.7447,-1.7582,-1.7647,-1.7647,-1.7555,-1.7461,0.0,0.0,0.0,0.0,0.0,-1.4549,-1.424,-1.4112,-1.3909,-1.3678,-1.3593,-1.3266,-1.2795,-1.2935,-1.2769,-1.2469,-1.2422,-1.2394,-1.2367,-1.2347,-1.2376,-1.2524,-1.289,-1.3044,-1.3151,-1.3539,-1.3708,-1.3776,-1.3632,-1.3664,-1.3645,-1.3353,-1.3318,-1.3347,-1.3347,-1.3347,-1.3377,-1.3377,-1.3406,-1.3546,-1.3891,-1.429,-1.4707,-1.5121,0.0,-1.6441,-1.6568,-1.7171,-1.7742,-1.8093,-1.8339,-1.8395,-1.821,-1.821,-1.7921,-1.7293,-1.6639,-1.6084,0.0,0.0,0.0,-1.6219,0.0,-1.5187,-1.4631,-1.425,-1.3808,-1.3323,-1.3628,-1.3927,-1.4241,-1.4438,-1.4674,-1.4927,-1.4482,-1.4427,-1.4731,-1.5905,-1.6762,-1.7429,-1.8504,-1.9249,-1.9788,-1.9941,-2.0068,-2.0173,-2.1051,-2.0641,-2.0205,-2.0042,-1.9421,-1.8835,-1.8323,-1.8018,-1.7788,-1.7575,-1.714,-1.6923,-1.7086,-1.7007,-1.6832,-1.6569,-1.6606,-1.6634,-1.643,-1.6412,-1.6473,-1.6751,-1.6899,-1.7107,-1.7314,-1.7461,-1.7529,-1.7529,-1.7598,-1.7541,0.0,0.0,0.0,0.0,-1.5399,-1.4976,-1.4647,-1.4526,-1.4246,-1.3902,-1.3719,-1.3392,-1.3035,-1.3138,-1.2929,-1.2514,-1.2539,-1.2492,-1.2435,-1.23,-1.2437,-1.2662,-1.2908,-1.3151,-1.3331,-1.348,-1.3605,-1.3603,-1.3159,-1.3117,-1.3111,-1.2717,-1.2664,-1.2691,-1.2691,-1.2733,-1.2761,-1.2816,-1.2872,-1.3053,-1.3459,-1.3913,-1.4371,-1.4789,0.0,0.0,-1.6321,-1.6901,-1.7513,-1.7874,-1.8273,-1.8582,-1.8693,-1.8873,-1.8836,-1.8503,-1.7644,-1.6969,0.0,0.0,0.0,0.0,0.0,0.0,-1.535,-1.4888,-1.4394,-1.3908,-1.4007,-1.4222,-1.4556,-1.5074,-1.5364,-1.5467,-1.5421,-1.5504,-1.5746,-1.6937,-1.7594,-1.7964,-1.9011,-1.9587,-1.9813,-1.9955,-2.0079,-2.0218,-2.0093,-1.9825,-1.9545,-1.9287,-1.9078,-1.8941,-1.872,-1.8152,-1.7819,-1.7819,-1.6757,-1.6204,-1.6838,-1.6519,-1.6289,-1.6281,-1.6281,-1.6412,-1.6603,-1.6603,-1.6742,-1.7166,-1.7166,-1.7314,-1.747,-1.7647,-1.7706,-1.7706,-1.7862,0.0,-1.7091,0.0,-1.6012,-1.5586,-1.5586,-1.5349,-1.4942,-1.4525,-1.4289,-1.4213,-1.3542,-1.3362,-1.3457,-1.3253,-1.3134,-1.3055,-1.2936,-1.2869,-1.2754,-1.2578,-1.2768,-1.3094,-1.3163,-1.3391,-1.3511,-1.3044,-1.3156,-1.3253,-1.267,-1.2621,-1.2705,-1.2691,-1.2691,-1.2691,-1.2691,-1.2803,-1.2926,-1.3061,-1.3141,-1.3209,-1.3209,-1.3918,-1.4493,-1.4493,0.0,0.0,-1.5915,-1.6547,-1.6955,-1.6819,-1.8007,-1.8717,-1.853,-1.903,-1.9302,-1.9101,-1.8898,0.0,0.0,0.0,0.0,-1.7393,-1.7269,0.0,-1.6376,-1.5925,-1.5402,-1.4892,-1.461,-1.461,-1.4825,-1.5624,-1.586,-1.5606,-1.6003,-1.6034,-1.5881,-1.7029,-1.7694,-1.8106,-1.9105,-1.9612,-1.9811,-1.995,-2.0069,-2.0205,-2.0145,-1.9768,-1.9425,-1.9051,-1.8359,-1.7852,-1.7638,-1.7091,-1.6694,-1.6694,-1.6393,-1.6197,-1.6391,-1.5966,-1.5686,-1.5686,-1.5809,-1.5942,-1.6131,-1.614,-1.6206,-1.6487,-1.6599,-1.6664,-1.673,-1.6934,-1.6999,-1.6999,0.0,0.0,0.0,-1.6609,-1.6333,-1.6176,-1.5576,-1.5241,-1.5084,-1.4651,-1.4297,-1.4001,-1.3777,-1.3581,-1.3389,-1.3227,-1.3044,-1.2925,-1.2766,-1.2666,-1.2625,-1.2733,-1.2765,-1.2799,-1.2942,-1.3039,-1.305,-1.2718,-1.2692,-1.2672,-1.2156,-1.2072,-1.2054,-1.1638,-1.1615,-1.1689,-1.1689,-1.1763,-1.1822,-1.1918,-1.199,-1.2207,-1.2692,-1.3075,-1.3655,-1.4671,-1.5179,0.0,-1.6102,-1.6419,-1.6727,-1.7116,-1.7915,-1.8587,-1.8879,-1.9441,-1.9741,-1.9508,-1.9325,0.0,0.0,0.0,0.0,0.0,-1.7733,0.0,-1.6805,-1.6312,-1.5787,-1.5305,-1.4934,-1.5043,-1.5566,-1.6052,-1.6391,-1.6563,-1.702,-1.727,-1.742,-1.8107,-1.8554,-1.887,-1.9327,-1.965,-1.9881,-2.001,-2.0116,-2.0211,-1.9338,-1.8977,-1.866,-1.8449,-1.781,-1.7268,-1.7119,-1.6712,-1.6357,-1.6284,-1.6088,-1.5984,-1.5984,-1.5529,0.0,-1.568,-1.5836,-1.5891,-1.6028,-1.6019,-1.6083,-1.6284,-1.6329,-1.6456,-1.6519,-1.6719,0.0,-1.6792,-1.6812,-1.6857,-1.6908,-1.6467,-1.6167,-1.5986,-1.5435,-1.5094,-1.4914,-1.4516,-1.4215,-1.3952,-1.389,-1.3631,-1.332,-1.3313,-1.3065,-1.2777,-1.2782,-1.2726,-1.2649,-1.2731,-1.2746,-1.2677,-1.2402,-1.2374,-1.2396,-1.2222,-1.2211,-1.2183,-1.1679,-1.1587,-1.1538,-1.1207,-1.1192,-1.1262,-1.1307,-1.1353,-1.1399,-1.1452,-1.1541,-1.174,-1.2222,-1.2651,-1.3327,-1.4521,-1.5021,-1.5542,-1.6273,-1.6409,-1.6593,-1.6987,-1.7876,-1.8563,0.0,-1.9682,-2.0131,0.0,0.0,0.0,0.0,0.0,0.0,-1.8305,-1.8214,0.0,-1.7595,-1.6839,-1.6334,-1.6064,-1.5475,-1.5492,-1.6026,-1.6355,-1.6738,-1.7142,-1.7549,-1.7932,-1.829,-1.8659,-1.8966,-1.9246,-1.9481,-1.9707,-1.9915,-2.0059,-2.0162,-2.0246,-1.7945,-1.7709,-1.7533,0.0,-1.7326,0.0,-1.6994,-1.6786,-1.6568,-1.6369,-1.5899,-1.56,-1.56,-1.5257,-1.5352,-1.6069,0.0,0.0,-1.6145,-1.6145,-1.6198,-1.6296,-1.636,-1.6432,-1.6641,-1.6829,-1.6944,-1.6944,-1.6658,-1.6437,-1.6457,-1.6055,-1.5632,-1.52,-1.5169,-1.4918,-1.4495,-1.4195,-1.4102,-1.4061,-1.3861,-1.3552,-1.3276,-1.3454,-1.3164,-1.2657,-1.2954,-1.301,-1.2891,-1.2612,-1.2666,-1.2708,-1.1734,-1.1482,-1.1573,-1.1573,-1.1689,-1.1741,-1.1254,-1.1155,-1.1215,-1.1285,-1.1307,-1.1353,-1.1466,-1.1511,-1.1534,-1.1593,-1.1725,-1.1826,-1.1826,-1.2582,-1.3428,-1.4123,-1.4894,-1.5681,-1.6433,-1.6528,-1.6554,-1.6623,0.0,0.0,-1.8651,-1.9797,-2.0494,0.0,0.0,0.0,0.0,0.0,-1.8936,-1.886,-1.8731,-1.8669,-1.8669,-1.7505,-1.6924,-1.693,-1.6113,-1.5911,-1.625,-1.6581,-1.6935,-1.7344,-1.7664,-1.8078,-1.8524,-1.8734,-1.9014,-1.932,-1.9601,-1.9782,-1.9926,-2.005,-2.0171,-2.03,0.0,0.0,-1.7771,-1.7668,-1.7257,-1.684,-1.6658,-1.6317,-1.6049,-1.5861,-1.5772,-1.5645,-1.5449,-1.5361,-1.5381,-1.5584,-1.5384,-1.5333,-1.5453,-1.5453,-1.5504,-1.5653,-1.5792,-1.5861,-1.593,-1.6108,-1.6216,-1.6313,-1.6212,-1.6104,-1.5899,-1.5786,-1.5553,-1.5205,-1.4852,-1.4685,-1.461,-1.4188,-1.4037,-1.3994,-1.3658,-1.3583,-1.3587,-1.304,-1.2924,-1.3044,-1.2926,-1.3053,-1.3234,-1.2839,-1.2598,-1.2348,-1.1858,-1.1479,-1.1228,-1.1228,-1.1238,-1.1268,-1.1244,-1.1262,-1.1285,-1.1307,-1.1376,-1.1466,-1.1564,-1.163,-1.1674,-1.1725,-1.1869,-1.1991,-1.2091,-1.2734,-1.3548,-1.4357,-1.5074,-1.5833,-1.669,-1.6811,-1.6811,0.0,-1.8071,-1.8917,-1.8903,-2.0067,-2.0811,0.0,0.0,0.0,0.0,-2.0115,-1.9782,-1.9332,-1.925,-1.9213,-1.9213,-1.8032,-1.7048,-1.6248,-1.612,-1.6234,-1.6517,-1.685,-1.7175,-1.7486,-1.7871,-1.8208,-1.8524,-1.8878,-1.9168,-1.9387,-1.9609,-1.9818,-1.9993,-2.0069,-2.0171,-2.03,-1.7691,-1.7503,-1.7385,-1.7277,-1.695,-1.6667,-1.6502,-1.6181,-1.5961,-1.5798,-1.5798,-1.5661,-1.5328,-1.5308,-1.5219,-1.5022,-1.509,-1.5254,-1.5449,-1.5449,-1.5498,-1.5604,-1.573,-1.5798,-1.5798,-1.5904,-1.5975,-1.593,-1.5714,-1.5553,-1.5487,-1.5487,-1.529,-1.4942,-1.4689,-1.4546,-1.4468,-1.4258,-1.4068,-1.3887,-1.375,-1.3606,-1.3369,-1.2974,-1.2913,-1.3047,-1.2994,-1.3044,-1.3084,-1.269,-1.2348,-1.1994,-1.1615,-1.1356,-1.1215,-1.1262,-1.1239,-1.1215,-1.1353,-1.1399,-1.1399,-1.1429,-1.1519,-1.1608,-1.1681,-1.1747,-1.1826,-1.1927,-1.2012,-1.2133,-1.2236,-1.2884,-1.3666,-1.4511,-1.5256,-1.6031,-1.6885,-1.7023,-1.7048,-1.7083,-1.8028,-1.869,-1.8635,-1.9573,-2.014,-2.0048,-1.9862,0.0,-1.972,-1.9639,-1.9623,-1.9767,-1.9426,-1.9276,-1.9276,-1.8037,-1.7,-1.6163,-1.6316,-1.6517,-1.6789,-1.7101,-1.7392,-1.771,-1.8001,-1.833,-1.8676,-1.8967,-1.9251,-1.946,-1.9668,-1.9842,-2.0007,-2.0108,-2.0205,-2.0296,-1.6903,-1.6856,-1.6786,-1.6722,-1.6588,-1.6455,-1.63,-1.61,-1.592,-1.577,-1.577,-1.5572,-1.5134,-1.5084,-1.4934,-1.4553,-1.4972,-1.5339,-1.5541,-1.5531,-1.5598,-1.5656,-1.5713,-1.5713,-1.5713,-1.5863,-1.5848,-1.5641,-1.5247,-1.507,-1.5112,-1.5112,-1.4972,-1.4616,-1.4665,-1.4446,-1.416,-1.431,-1.4115,-1.3739,-1.3888,-1.3563,-1.3038,-1.3071,-1.301,-1.2988,-1.3094,-1.3031,-1.2812,-1.2377,-1.2062,-1.179,-1.132,-1.1262,-1.1376,-1.1489,-1.1444,-1.1384,-1.1489,-1.1511,-1.1556,-1.1615,-1.1681,-1.1747,-1.1826,-1.1891,-1.1991,-1.2091,-1.2174,-1.2257,-1.2323,-1.3073,-1.3907,-1.4617,-1.5493,-1.6322,-1.7027,0.0,-1.7224,-1.7281,-1.7887,-1.8287,-1.8225,-1.8876,-1.9244,-1.9058,-1.9001,-1.8943,-1.8872,-1.8799,-1.9123,-1.99,-1.9344,-1.9006,-1.8898,-1.7837,-1.6998,-1.6463,-1.6596,-1.6789,-1.7052,-1.7313,-1.7618,-1.7927,-1.8146,-1.8467,-1.8824,-1.9036,-1.928,-1.9513,-1.9725,-1.9877,-2.0019,-2.0153,-2.0238,-2.0318,-1.658,-1.6796,-1.6837,-1.646,-1.6277,-1.603,-1.5606,-1.5437,-1.5268,-1.5161,-1.5045,-1.4854,-1.4633,-1.4623,-1.4593,-1.4533,-1.459,-1.467,-1.467,-1.468,-1.467,-1.4733,-1.4884,-1.4991,-1.4991,-1.5098,-1.5226,-1.5279,-1.5196,-1.5017,-1.4789,-1.4789,-1.4573,-1.4294,-1.4399,-1.4231,-1.3872,-1.4071,-1.3878,-1.3448,-1.3288,-1.3217,-1.3132,-1.2987,-1.3074,-1.3293,-1.2974,-1.3014,-1.3081,-1.2239,-1.2034,-1.2064,-1.1578,-1.1489,-1.1556,-1.1652,-1.1659,-1.1615,-1.1593,-1.1615,-1.1696,-1.1747,-1.1826,-1.1891,-1.1949,-1.2054,-1.2153,-1.219,-1.2334,-1.2475,-1.2459,-1.359,-1.4597,-1.482,-1.603,-1.7003,-1.724,0.0,-1.7281,-1.7306,-1.7887,-1.8313,-1.8287,-1.8941,-1.9383,-1.9339,-1.9272,-1.9216,-1.9216,-1.9045,-1.9026,-1.9174,-1.8885,-1.8481,-1.7914,-1.7738,-1.7306,-1.6738,-1.6866,-1.7052,-1.7272,-1.7532,-1.7816,-1.8074,-1.8345,-1.8584,-1.8825,-1.9135,-1.9353,-1.9518,-1.9726,-1.9892,-2.0011,-2.0153,-2.0246,-2.032,-1.6153,-1.6275,-1.6309,-1.605,-1.5891,-1.5763,-1.556,-1.5372,-1.5279,-1.5216,-1.5112,-1.4904,-1.4553,-1.442,-1.4267,-1.4023,-1.4002,-1.4002,-1.4002,-1.4408,-1.4682,-1.4787,-1.484,-1.4892,-1.4892,-1.4811,-1.4737,-1.4839,-1.4637,-1.4503,-1.4425,-1.4473,-1.4497,-1.4408,-1.4236,-1.4139,-1.4047,-1.3882,-1.365,-1.3349,-1.3362,-1.3287,-1.3143,-1.3204,-1.3425,-1.363,-1.3221,-1.3055,-1.2924,-1.2283,-1.195,-1.1788,-1.1607,-1.163,-1.1718,-1.1783,-1.1805,-1.1805,-1.1768,-1.1805,-1.1869,-1.1891,-1.1991,-1.207,-1.2112,-1.2195,-1.2277,-1.2354,-1.2435,-1.2518,-1.26,-1.3801,-1.4837,-1.494,-1.6245,0.0,0.0,-1.737,-1.7434,-1.7458,-1.7723,-1.7922,-1.7922,-1.8236,-1.841,-1.8334,-1.8283,-1.8273,-1.8212,-1.8134,-1.8054,-1.8028,-1.8207,-1.7996,-1.7338,-1.7316,-1.7203,-1.7018,-1.7101,-1.7296,-1.7509,-1.7749,-1.7992,-1.8225,-1.8448,-1.8697,-1.8931,-1.9182,-1.9398,-1.9577,-1.9788,-1.9936,-2.006,-2.0208,-2.0269,-2.0302,-1.5662,-1.5709,-1.5753,-1.5684,-1.556,-1.5466,-1.5347,-1.5196,-1.5105,-1.5105,-1.4993,-1.4755,-1.4447,-1.4307,-1.4112,-1.3699,-1.3668,-1.3668,-1.3668,-1.4233,-1.4625,-1.4676,-1.4676,-1.4676,-1.4727,-1.4485,-1.4356,-1.4444,-1.419,-1.414,-1.4326,-1.4373,-1.4457,-1.4473,-1.4183,-1.4053,-1.3983,-1.3674,-1.3408,-1.3213,-1.346,-1.3419,-1.3232,-1.3514,-1.367,-1.3728,-1.3331,-1.2966,-1.2618,-1.2188,-1.1826,-1.1578,-1.1615,-1.1725,-1.1869,-1.1949,-1.1976,-1.1976,-1.1955,-1.2012,-1.2054,-1.2054,-1.2153,-1.2216,-1.2216,-1.2298,-1.2363,-1.2479,-1.2518,-1.2581,-1.27,-1.3925,-1.4962,-1.5048,0.0,0.0,0.0,-1.7496,-1.7542,-1.7589,-1.7612,-1.7612,-1.7612,-1.7612,-1.7566,-1.7455,-1.7448,-1.7425,-1.7362,-1.7338,-1.733,-1.7257,-1.7601,-1.7581,-1.7074,-1.7075,-1.7142,-1.7288,-1.7344,-1.7509,-1.7755,-1.7966,-1.8163,-1.8371,-1.8566,-1.8807,-1.9052,-1.9261,-1.9438,-1.9636,-1.9835,-1.9979,-2.0127,-2.0252,-2.0311,-2.0334,-1.5159,-1.552,-1.5644,-1.5236,-1.5159,-1.5006,-1.4548,-1.4378,-1.4283,-1.4283,-1.4163,-1.4068,-1.4026,-1.4026,-1.4005,-1.3973,-1.3868,-1.3821,-1.3973,-1.3931,-1.382,-1.3714,-1.3714,-1.3772,-1.3868,-1.3836,-1.3958,-1.423,-1.4197,-1.4326,-1.4569,-1.4581,-1.4417,-1.4136,-1.4243,-1.3875,-1.3193,-1.335,-1.3215,-1.2957,-1.3283,-1.3429,-1.3514,-1.3835,-1.3717,-1.3303,-1.2966,-1.2617,-1.2273,-1.1734,-1.1652,-1.1783,-1.1768,-1.1869,-1.2012,-1.2133,-1.2221,-1.2226,-1.2117,-1.2123,-1.2185,-1.2185,-1.2246,-1.2302,-1.2302,-1.2383,-1.2495,-1.2514,-1.26,-1.2719,-1.2776,-1.4003,-1.5065,-1.5251,0.0,0.0,-1.7566,-1.7589,-1.7589,-1.7612,-1.7612,-1.7612,-1.7612,-1.7612,-1.7589,-1.7589,-1.7589,-1.7589,-1.7589,-1.7526,-1.7455,-1.7401,-1.7306,-1.7273,-1.7273,-1.7281,-1.7353,-1.7486,-1.7618,-1.7732,-1.7883,-1.8082,-1.831,-1.8492,-1.8698,-1.893,-1.9202,-1.9338,-1.9509,-1.9713,-1.9858,-1.9979,-2.0126,-2.026,-2.0337,-2.0386,-1.4704,-1.4799,-1.4875,-1.469,-1.4657,-1.4591,-1.4452,-1.4373,-1.4326,-1.4326,-1.4186,-1.414,-1.414,-1.4057,-1.402,-1.402,-1.3962,-1.3973,-1.402,-1.3962,-1.3915,-1.3868,-1.3868,-1.3868,-1.3915,-1.3999,-1.4093,-1.4222,-1.4033,-1.3992,-1.4082,-1.4024,-1.3894,-1.3773,-1.372,-1.3568,-1.3394,-1.318,-1.3163,-1.3276,-1.3446,-1.3648,-1.3795,-1.3709,-1.3642,-1.3507,-1.2756,-1.2503,-1.2395,-1.1874,-1.1762,-1.1869,-1.2012,-1.2091,-1.2133,-1.2221,-1.2338,-1.2419,-1.2359,-1.2302,-1.2266,-1.2307,-1.2363,-1.2439,-1.2479,-1.2518,-1.2597,-1.2659,-1.2735,-1.2776,-1.285,-1.3743,-1.4529,-1.4609,0.0,-1.6875,-1.6965,-1.7356,-1.7681,-1.7704,-1.7726,-1.7726,-1.7726,-1.7726,-1.7704,-1.7681,-1.7664,-1.7664,-1.7664,-1.7681,-1.7681,-1.7635,-1.7606,-1.7536,-1.7432,-1.7502,-1.7595,-1.7681,-1.7833,-1.7949,-1.8082,-1.8287,-1.8469,-1.8642,-1.8843,-1.9035,-1.92,-1.9383,-1.9569,-1.9726,-1.9889,-2.0019,-2.0126,-2.026,-2.0337,-2.0405,-1.443,-1.4373,-1.4373,-1.4373,-1.4373,-1.4373,-1.4373,-1.4373,-1.4373,-1.4373,-1.4326,-1.4269,-1.4269,-1.4197,-1.4114,-1.4114,-1.4104,-1.4057,-1.4104,-1.4161,-1.4114,-1.402,-1.402,-1.402,-1.4057,-1.4036,-1.4052,-1.4052,-1.3762,-1.3661,-1.3736,-1.3629,-1.3593,-1.3539,-1.3433,-1.3409,-1.3471,-1.3196,-1.331,-1.3628,-1.3749,-1.3934,-1.4127,-1.3731,-1.3609,-1.3502,-1.265,-1.2366,-1.2304,-1.1933,-1.1891,-1.2012,-1.2153,-1.2236,-1.2298,-1.2343,-1.2443,-1.2538,-1.2538,-1.2463,-1.2403,-1.2443,-1.2499,-1.2538,-1.2593,-1.2636,-1.2697,-1.2776,-1.2813,-1.285,-1.2942,-1.3642,-1.4211,-1.4269,-1.5345,-1.6294,-1.6597,-1.7074,-1.7479,-1.7755,-1.7811,-1.7811,-1.7811,-1.7833,-1.7794,-1.7772,-1.7794,-1.7794,-1.7794,-1.7833,-1.7856,-1.7856,-1.7856,-1.7811,-1.7687,-1.7732,-1.7816,-1.79,-1.8009,-1.8121,-1.8266,-1.8467,-1.8641,-1.8771,-1.8984,-1.9135,-1.928,-1.9489,-1.9623,-1.9751,-1.993,-2.0048,-2.0126,-2.026,-2.0337,-2.0405,-1.4373,-1.4373,-1.4373,-1.4373,-1.4373,-1.4373,-1.4373,-1.4373,-1.4373,-1.4373,-1.4373,-1.4373,-1.4373,-1.4373,-1.4373,-1.4373,-1.428,-1.4269,-1.4373,-1.4523,-1.443,-1.402,-1.401,-1.4057,-1.4222,-1.3802,-1.3663,-1.3806,-1.3384,-1.3346,-1.3581,-1.3581,-1.3516,-1.3392,-1.3531,-1.3447,-1.3232,-1.3425,-1.3661,-1.3921,-1.4105,-1.4337,-1.4418,-1.3974,-1.3544,-1.3135,-1.2667,-1.2213,-1.1826,-1.1869,-1.2033,-1.221,-1.221,-1.2354,-1.2514,-1.2514,-1.2558,-1.26,-1.26,-1.26,-1.26,-1.26,-1.26,-1.26,-1.26,-1.2716,-1.2811,-1.2794,-1.285,-1.2942,-1.3084,-1.3714,-1.4233,-1.4368,-1.5009,-1.5768,-1.6559,-1.6699,-1.6987,-1.771,-1.7794,-1.7811,-1.7811,-1.7878,-1.7905,-1.7905,-1.7944,-1.8005,-1.8005,-1.8005,-1.8005,-1.8005,-1.8005,-1.8027,-1.8113,-1.7966,-1.7966,-1.8113,-1.8163,-1.8266,-1.8406,-1.8603,-1.8771,-1.8913,-1.9101,-1.9277,-1.9423,-1.9614,-1.9732,-1.9811,-1.9955,-2.0049,-2.0126,-2.026,-2.0337,-2.0405,-1.4373,-1.4373,-1.4373,-1.4373,-1.4373,-1.4373,-1.4373,-1.4477,-1.4523,-1.4523,-1.4627,-1.4684,-1.4684,-1.4684,-1.4684,-1.4684,-1.4627,-1.4627,-1.4684,-1.4395,-1.4139,-1.4005,-1.4005,-1.4005,-1.4038,-1.3563,-1.333,-1.3373,-1.3076,-1.2946,-1.3053,-1.2974,-1.2974,-1.2974,-1.3224,-1.3383,-1.348,-1.3641,-1.3908,-1.4203,-1.43,-1.4218,-1.3947,-1.3544,-1.3121,-1.2712,-1.2192,-1.205,-1.2091,-1.2112,-1.2179,-1.2282,-1.2379,-1.2475,-1.2574,-1.2577,-1.262,-1.2681,-1.2681,-1.27,-1.2719,-1.2681,-1.2681,-1.27,-1.2792,-1.2829,-1.2885,-1.294,-1.2995,-1.3066,-1.3154,-1.3391,-1.3578,-1.3614,-1.4292,-1.4888,-1.5127,-1.5639,-1.6285,-1.7088,-1.7173,-1.7377,-1.7888,-1.7961,-1.7983,-1.7983,-1.8027,-1.807,-1.807,-1.8108,-1.8151,-1.8215,-1.8215,-1.8218,-1.8246,-1.8155,-1.8134,-1.8163,-1.8328,-1.8448,-1.8545,-1.8753,-1.8913,-1.9049,-1.9196,-1.9353,-1.9485,-1.9647,-1.9763,-1.9884,-1.9966,-2.0078,-2.0173,-2.026,-2.0337,-2.0405,-1.4373,-1.4373,-1.4373,-1.4373,-1.443,-1.4477,-1.4477,-1.4581,-1.4684,-1.4684,-1.473,-1.4787,-1.4787,-1.4787,-1.4787,-1.4787,-1.4811,-1.4846,-1.4846,-1.4428,-1.4189,-1.4189,-1.3845,-1.3678,-1.3755,-1.3365,-1.3105,-1.3105,-1.2789,-1.2686,-1.2761,-1.2711,-1.278,-1.2978,-1.322,-1.3459,-1.3695,-1.3908,-1.4138,-1.4337,-1.4218,-1.407,-1.3884,-1.3166,-1.2808,-1.2615,-1.2066,-1.2012,-1.221,-1.2257,-1.2338,-1.2439,-1.2518,-1.2597,-1.2636,-1.2639,-1.2681,-1.2738,-1.2738,-1.2776,-1.2776,-1.2757,-1.2757,-1.2811,-1.2883,-1.292,-1.2959,-1.303,-1.3084,-1.3154,-1.3242,-1.3294,-1.3346,-1.3329,-1.3769,-1.4195,-1.4502,-1.4962,-1.556,-1.6328,-1.6703,-1.7079,-1.7505,-1.7856,-1.8048,-1.8087,-1.813,-1.8151,-1.8194,-1.8215,-1.8256,-1.8301,-1.8301,-1.8325,-1.8388,-1.8342,-1.8322,-1.8328,-1.8487,-1.8639,-1.8715,-1.8896,-1.9051,-1.9182,-1.9289,-1.9442,-1.9587,-1.9694,-1.9825,-1.9949,-2.0017,-2.0098,-2.0201,-2.0277,-2.0345,-2.0405,-1.4373,-1.4373,-1.4373,-1.443,-1.4523,-1.4581,-1.4627,-1.473,-1.4822,-1.4822,-1.4822,-1.4822,-1.4822,-1.4868,-1.4868,-1.4868,-1.4926,-1.4949,-1.4949,-1.4647,-1.4476,-1.4476,-1.3567,-1.3151,-1.3345,-1.3108,-1.2942,-1.2942,-1.2612,-1.252,-1.2709,-1.2745,-1.292,-1.3232,-1.3425,-1.3628,-1.3854,-1.417,-1.4365,-1.4406,-1.3972,-1.3941,-1.3997,-1.2864,-1.2564,-1.2658,-1.2197,-1.2112,-1.2252,-1.2363,-1.2499,-1.2613,-1.26,-1.2662,-1.2703,-1.2703,-1.2757,-1.2811,-1.2811,-1.2811,-1.2811,-1.2811,-1.2848,-1.2901,-1.2901,-1.294,-1.3013,-1.3084,-1.3154,-1.3224,-1.3295,-1.3346,-1.3396,-1.3412,-1.3462,-1.3734,-1.4418,-1.4503,-1.4793,-1.5526,-1.628,-1.6758,-1.6894,-1.7641,-1.8134,-1.819,-1.8211,-1.8232,-1.8295,-1.8298,-1.8301,-1.831,-1.831,-1.8388,-1.8505,-1.8524,-1.8524,-1.8524,-1.8641,-1.8788,-1.8914,-1.9036,-1.917,-1.9314,-1.9383,-1.9527,-1.9712,-1.9782,-1.9877,-2.0004,-2.0058,-2.0146,-2.0209,-2.0273,-2.0339,-2.0405,-1.4373,-1.4373,-1.4419,-1.4523,-1.4581,-1.4627,-1.473,-1.4846,-1.4869,-1.4869,-1.5074,-1.5176,-1.5176,-1.53,-1.5345,-1.5345,-1.5379,-1.5379,-1.5379,-1.4622,-1.4198,-1.4198,-1.3332,-1.289,-1.2926,-1.271,-1.2614,-1.2614,-1.2674,-1.2733,-1.2768,-1.299,-1.3198,-1.3357,-1.3607,-1.3874,-1.4105,-1.4268,-1.4461,-1.469,-1.4164,-1.3785,-1.3445,-1.2839,-1.2447,-1.2167,-1.2158,-1.2277,-1.2455,-1.2522,-1.262,-1.2681,-1.2681,-1.2719,-1.2776,-1.2776,-1.2776,-1.2811,-1.2811,-1.2811,-1.2811,-1.2883,-1.2904,-1.2906,-1.2906,-1.2942,-1.3031,-1.3154,-1.319,-1.3226,-1.3363,-1.3396,-1.3429,-1.3462,-1.3528,-1.3629,-1.3801,-1.3816,-1.4107,-1.49,-1.5141,-1.5709,-1.6858,-1.7704,-1.8172,-1.8211,-1.8253,-1.8295,-1.8295,-1.8284,-1.8348,-1.8465,-1.8465,-1.8505,-1.8584,-1.8677,-1.8696,-1.8659,-1.8733,-1.8861,-1.8984,-1.912,-1.9248,-1.9365,-1.9489,-1.9633,-1.9782,-1.9849,-1.993,-2.0017,-2.0069,-2.0135,-2.0216,-2.0281,-2.0339,-2.0411,-1.4269,-1.4373,-1.443,-1.4581,-1.4627,-1.4719,-1.4846,-1.4971,-1.5108,-1.5108,-1.5255,-1.539,-1.539,-1.5468,-1.5513,-1.557,-1.5603,-1.5647,-1.5724,-1.485,-1.4353,-1.4353,-1.3374,-1.2838,-1.2838,-1.2838,-1.2791,-1.2685,-1.2803,-1.2908,-1.2978,-1.3129,-1.3335,-1.3607,-1.3775,-1.4007,-1.4254,-1.4337,-1.4363,-1.4288,-1.3756,-1.3297,-1.2871,-1.2397,-1.2141,-1.207,-1.2216,-1.2403,-1.2639,-1.2716,-1.2757,-1.2797,-1.2797,-1.2815,-1.285,-1.2848,-1.2848,-1.2848,-1.2811,-1.2811,-1.2829,-1.2883,-1.2904,-1.2908,-1.2942,-1.3013,-1.3119,-1.319,-1.326,-1.3329,-1.3396,-1.3446,-1.3512,-1.3528,-1.3593,-1.3658,-1.3658,-1.3638,-1.3808,-1.4224,-1.4588,-1.5384,-1.6863,-1.738,-1.7797,-1.8218,-1.8295,-1.8298,-1.836,-1.8385,-1.8445,-1.8542,-1.8544,-1.8601,-1.8678,-1.8769,-1.8843,-1.8896,-1.8932,-1.9002,-1.9086,-1.92,-1.9341,-1.9504,-1.9592,-1.9718,-1.9813,-1.9915,-1.9974,-2.001,-2.0108,-2.0162,-2.0222,-2.0277,-2.0347,-2.0408,-1.4176,-1.428,-1.443,-1.4581,-1.473,-1.4811,-1.4915,-1.5153,-1.5312,-1.5312,-1.5435,-1.5513,-1.5513,-1.5558,-1.5647,-1.5748,-1.5836,-1.5925,-1.6044,-1.5127,-1.4617,-1.4617,-1.3557,-1.3,-1.3,-1.3163,-1.3151,-1.2943,-1.3,-1.3082,-1.3267,-1.3301,-1.3472,-1.3788,-1.3921,-1.4105,-1.4332,-1.4483,-1.4279,-1.3826,-1.3344,-1.2874,-1.2448,-1.1933,-1.1891,-1.2133,-1.2262,-1.2542,-1.2811,-1.2885,-1.2922,-1.2942,-1.2908,-1.2908,-1.2924,-1.2904,-1.2885,-1.2885,-1.2832,-1.2813,-1.2832,-1.2885,-1.2922,-1.2942,-1.3013,-1.3118,-1.3207,-1.3192,-1.3312,-1.3413,-1.3412,-1.3528,-1.361,-1.361,-1.3672,-1.3702,-1.3702,-1.3715,-1.3698,-1.3684,-1.4361,-1.5349,-1.6693,-1.6952,-1.7389,-1.8246,-1.8319,-1.836,-1.8406,-1.8483,-1.8542,-1.8617,-1.8639,-1.8715,-1.8824,-1.8843,-1.8932,-1.912,-1.9137,-1.9152,-1.9216,-1.9308,-1.9446,-1.9597,-1.9673,-1.9763,-1.9842,-1.9941,-2.0017,-2.0021,-2.0155,-2.0208,-2.0219,-2.0287,-2.0365,-2.043,-1.4129,-1.4222,-1.4326,-1.473,-1.4787,-1.4868,-1.5062,-1.521,-1.5312,-1.5312,-1.5537,-1.5659,-1.5659,-1.5824,-1.5944,-1.5957,-1.6057,-1.6144,-1.6188,-1.5221,-1.4695,-1.4761,-1.3846,-1.3357,-1.3412,-1.3459,-1.3357,-1.3163,-1.3323,-1.3412,-1.3459,-1.3641,-1.3754,-1.3821,-1.4105,-1.43,-1.4397,-1.4637,-1.4504,-1.3998,-1.3494,-1.299,-1.252,-1.2059,-1.1991,-1.2195,-1.2338,-1.2562,-1.2829,-1.294,-1.3013,-1.3066,-1.3013,-1.3031,-1.3066,-1.2924,-1.2906,-1.2906,-1.2889,-1.2889,-1.2889,-1.2977,-1.2995,-1.3013,-1.3136,-1.3188,-1.3207,-1.3192,-1.3312,-1.3413,-1.3479,-1.3543,-1.3622,-1.3671,-1.37,-1.3698,-1.3698,-1.3698,-1.3698,-1.3698,-1.4393,-1.5228,-1.6061,-1.6756,-1.7505,-1.8238,-1.8365,-1.8423,-1.8485,-1.8559,-1.8637,-1.8769,-1.8769,-1.8843,-1.8984,-1.9036,-1.9104,-1.9202,-1.9246,-1.9292,-1.9289,-1.9413,-1.9513,-1.9601,-1.9725,-1.9825,-1.9889,-1.9966,-2.0039,-2.0088,-2.0162,-2.0233,-2.03,-2.0366,-2.0438,-2.0487,-1.3847,-1.4035,-1.428,-1.4523,-1.4684,-1.4857,-1.496,-1.5244,-1.539,-1.539,-1.5614,-1.5748,-1.5748,-1.5913,-1.6076,-1.6219,-1.6275,-1.6362,-1.6461,-1.5452,-1.4916,-1.5005,-1.4024,-1.3459,-1.348,-1.3547,-1.356,-1.3552,-1.3493,-1.356,-1.3674,-1.3754,-1.3921,-1.4105,-1.4235,-1.4397,-1.4588,-1.4746,-1.4534,-1.4041,-1.3522,-1.3041,-1.2606,-1.214,-1.2075,-1.2282,-1.2585,-1.2794,-1.2977,-1.3086,-1.3139,-1.3157,-1.3122,-1.3121,-1.3136,-1.3031,-1.2995,-1.2942,-1.2908,-1.2889,-1.2924,-1.2979,-1.3031,-1.3084,-1.3188,-1.3259,-1.3294,-1.3312,-1.3379,-1.3479,-1.3543,-1.3606,-1.3669,-1.37,-1.3731,-1.3761,-1.3761,-1.3793,-1.3793,-1.3761,-1.4042,-1.4531,-1.5297,-1.6079,-1.6863,-1.7687,-1.8198,-1.8483,-1.8559,-1.8656,-1.875,-1.8788,-1.8843,-1.8931,-1.9053,-1.9086,-1.915,-1.9261,-1.9368,-1.9413,-1.9413,-1.9504,-1.962,-1.9725,-1.977,-1.9861,-1.9952,-1.9998,-2.004,-2.0117,-2.0169,-2.0254,-2.0359,-2.0385,-2.0434,-2.0491]}]]